<?xml version="1.0" encoding="UTF-8" standalone="no" ?>
<gpx xmlns="http://www.topografix.com/GPX/1/1" xmlns:xsi="http://www.w3.org/2001/XMLSchema-instance" xsi:schemaLocation="http://www.topografix.com/GPX/1/1 http://www.topografix.com/GPX/1/1/gpx.xsd" version="1.1" creator="VisuGPX - https://www.visugpx.com">
  <metadata>
    <name>Le Girolet (Champsaur)</name>
    <desc><![CDATA[Une ascension spectaculaire par le rocher du Midi pour rejoindre un beau parcours de crêtes passant par plusieurs sommets : le Girolet, le sommet du Chamois, Coste Folle et Coste Belle.]]></desc>
  </metadata>
  <trk>
    <name><![CDATA[09-OCT-16 14:58:00]]></name>
    <trkseg>
      <trkpt lat="44.66696" lon="6.05577">
        <ele>1148.43</ele>
        <time>2016-10-09T06:15:06Z</time>
      </trkpt>
      <trkpt lat="44.66697" lon="6.05574">
        <ele>1149.39</ele>
        <time>2016-10-09T06:15:36Z</time>
      </trkpt>
      <trkpt lat="44.66698" lon="6.05572">
        <ele>1149.39</ele>
        <time>2016-10-09T06:15:38Z</time>
      </trkpt>
      <trkpt lat="44.6671" lon="6.05553">
        <ele>1148.91</ele>
        <time>2016-10-09T06:15:55Z</time>
      </trkpt>
      <trkpt lat="44.66709" lon="6.05539">
        <ele>1149.39</ele>
        <time>2016-10-09T06:16:06Z</time>
      </trkpt>
      <trkpt lat="44.66709" lon="6.05546">
        <ele>1149.39</ele>
        <time>2016-10-09T06:16:10Z</time>
      </trkpt>
      <trkpt lat="44.66709" lon="6.05552">
        <ele>1149.39</ele>
        <time>2016-10-09T06:16:14Z</time>
      </trkpt>
      <trkpt lat="44.66709" lon="6.05557">
        <ele>1149.87</ele>
        <time>2016-10-09T06:16:17Z</time>
      </trkpt>
      <trkpt lat="44.66704" lon="6.05558">
        <ele>1150.35</ele>
        <time>2016-10-09T06:16:21Z</time>
      </trkpt>
      <trkpt lat="44.667" lon="6.05544">
        <ele>1152.28</ele>
        <time>2016-10-09T06:16:31Z</time>
      </trkpt>
      <trkpt lat="44.66692" lon="6.05529">
        <ele>1155.64</ele>
        <time>2016-10-09T06:16:43Z</time>
      </trkpt>
      <trkpt lat="44.66688" lon="6.05523">
        <ele>1156.6</ele>
        <time>2016-10-09T06:16:49Z</time>
      </trkpt>
      <trkpt lat="44.6669" lon="6.05513">
        <ele>1157.56</ele>
        <time>2016-10-09T06:16:56Z</time>
      </trkpt>
      <trkpt lat="44.66691" lon="6.0551">
        <ele>1158.05</ele>
        <time>2016-10-09T06:16:58Z</time>
      </trkpt>
      <trkpt lat="44.66691" lon="6.05497">
        <ele>1160.93</ele>
        <time>2016-10-09T06:17:09Z</time>
      </trkpt>
      <trkpt lat="44.66688" lon="6.05483">
        <ele>1163.81</ele>
        <time>2016-10-09T06:17:22Z</time>
      </trkpt>
      <trkpt lat="44.66687" lon="6.05468">
        <ele>1165.74</ele>
        <time>2016-10-09T06:17:32Z</time>
      </trkpt>
      <trkpt lat="44.66688" lon="6.05453">
        <ele>1167.66</ele>
        <time>2016-10-09T06:17:45Z</time>
      </trkpt>
      <trkpt lat="44.66682" lon="6.05435">
        <ele>1169.1</ele>
        <time>2016-10-09T06:17:56Z</time>
      </trkpt>
      <trkpt lat="44.66672" lon="6.05413">
        <ele>1171.5</ele>
        <time>2016-10-09T06:18:11Z</time>
      </trkpt>
      <trkpt lat="44.66669" lon="6.05401">
        <ele>1172.95</ele>
        <time>2016-10-09T06:18:20Z</time>
      </trkpt>
      <trkpt lat="44.6666" lon="6.05371">
        <ele>1175.35</ele>
        <time>2016-10-09T06:18:39Z</time>
      </trkpt>
      <trkpt lat="44.66657" lon="6.0535">
        <ele>1177.75</ele>
        <time>2016-10-09T06:18:53Z</time>
      </trkpt>
      <trkpt lat="44.66657" lon="6.05331">
        <ele>1179.67</ele>
        <time>2016-10-09T06:19:06Z</time>
      </trkpt>
      <trkpt lat="44.6666" lon="6.05308">
        <ele>1183.04</ele>
        <time>2016-10-09T06:19:21Z</time>
      </trkpt>
      <trkpt lat="44.66662" lon="6.05294">
        <ele>1184.96</ele>
        <time>2016-10-09T06:19:32Z</time>
      </trkpt>
      <trkpt lat="44.6666" lon="6.05287">
        <ele>1185.92</ele>
        <time>2016-10-09T06:19:37Z</time>
      </trkpt>
      <trkpt lat="44.66651" lon="6.05267">
        <ele>1186.88</ele>
        <time>2016-10-09T06:19:49Z</time>
      </trkpt>
      <trkpt lat="44.66646" lon="6.05251">
        <ele>1187.85</ele>
        <time>2016-10-09T06:20:00Z</time>
      </trkpt>
      <trkpt lat="44.6664" lon="6.05235">
        <ele>1189.77</ele>
        <time>2016-10-09T06:20:11Z</time>
      </trkpt>
      <trkpt lat="44.66635" lon="6.05215">
        <ele>1191.69</ele>
        <time>2016-10-09T06:20:24Z</time>
      </trkpt>
      <trkpt lat="44.66634" lon="6.05207">
        <ele>1191.69</ele>
        <time>2016-10-09T06:20:29Z</time>
      </trkpt>
      <trkpt lat="44.66638" lon="6.05177">
        <ele>1193.13</ele>
        <time>2016-10-09T06:20:45Z</time>
      </trkpt>
      <trkpt lat="44.66639" lon="6.05168">
        <ele>1195.06</ele>
        <time>2016-10-09T06:20:53Z</time>
      </trkpt>
      <trkpt lat="44.66644" lon="6.05159">
        <ele>1198.42</ele>
        <time>2016-10-09T06:21:06Z</time>
      </trkpt>
      <trkpt lat="44.66644" lon="6.05158">
        <ele>1198.42</ele>
        <time>2016-10-09T06:21:07Z</time>
      </trkpt>
      <trkpt lat="44.66647" lon="6.05142">
        <ele>1200.82</ele>
        <time>2016-10-09T06:21:21Z</time>
      </trkpt>
      <trkpt lat="44.66648" lon="6.05118">
        <ele>1202.75</ele>
        <time>2016-10-09T06:21:35Z</time>
      </trkpt>
      <trkpt lat="44.66648" lon="6.05114">
        <ele>1202.75</ele>
        <time>2016-10-09T06:21:37Z</time>
      </trkpt>
      <trkpt lat="44.66653" lon="6.05094">
        <ele>1205.63</ele>
        <time>2016-10-09T06:21:51Z</time>
      </trkpt>
      <trkpt lat="44.66661" lon="6.05078">
        <ele>1205.63</ele>
        <time>2016-10-09T06:22:04Z</time>
      </trkpt>
      <trkpt lat="44.66669" lon="6.05062">
        <ele>1203.71</ele>
        <time>2016-10-09T06:22:17Z</time>
      </trkpt>
      <trkpt lat="44.66671" lon="6.05044">
        <ele>1204.19</ele>
        <time>2016-10-09T06:22:32Z</time>
      </trkpt>
      <trkpt lat="44.66672" lon="6.05046">
        <ele>1205.15</ele>
        <time>2016-10-09T06:22:35Z</time>
      </trkpt>
      <trkpt lat="44.66684" lon="6.0505">
        <ele>1207.55</ele>
        <time>2016-10-09T06:22:47Z</time>
      </trkpt>
      <trkpt lat="44.66695" lon="6.05061">
        <ele>1210.44</ele>
        <time>2016-10-09T06:23:02Z</time>
      </trkpt>
      <trkpt lat="44.66711" lon="6.05075">
        <ele>1213.8</ele>
        <time>2016-10-09T06:23:17Z</time>
      </trkpt>
      <trkpt lat="44.66714" lon="6.05078">
        <ele>1214.28</ele>
        <time>2016-10-09T06:23:20Z</time>
      </trkpt>
      <trkpt lat="44.6672" lon="6.05086">
        <ele>1216.69</ele>
        <time>2016-10-09T06:23:32Z</time>
      </trkpt>
      <trkpt lat="44.66713" lon="6.05086">
        <ele>1217.65</ele>
        <time>2016-10-09T06:23:39Z</time>
      </trkpt>
      <trkpt lat="44.6671" lon="6.05081">
        <ele>1218.61</ele>
        <time>2016-10-09T06:23:45Z</time>
      </trkpt>
      <trkpt lat="44.66699" lon="6.05065">
        <ele>1221.49</ele>
        <time>2016-10-09T06:24:00Z</time>
      </trkpt>
      <trkpt lat="44.66702" lon="6.05066">
        <ele>1222.93</ele>
        <time>2016-10-09T06:24:07Z</time>
      </trkpt>
      <trkpt lat="44.66721" lon="6.05066">
        <ele>1224.86</ele>
        <time>2016-10-09T06:24:20Z</time>
      </trkpt>
      <trkpt lat="44.66727" lon="6.05066">
        <ele>1225.82</ele>
        <time>2016-10-09T06:24:28Z</time>
      </trkpt>
      <trkpt lat="44.66742" lon="6.05071">
        <ele>1229.66</ele>
        <time>2016-10-09T06:24:43Z</time>
      </trkpt>
      <trkpt lat="44.66756" lon="6.05076">
        <ele>1231.59</ele>
        <time>2016-10-09T06:25:01Z</time>
      </trkpt>
      <trkpt lat="44.66773" lon="6.05071">
        <ele>1233.51</ele>
        <time>2016-10-09T06:25:15Z</time>
      </trkpt>
      <trkpt lat="44.6679" lon="6.05087">
        <ele>1236.87</ele>
        <time>2016-10-09T06:25:34Z</time>
      </trkpt>
      <trkpt lat="44.66797" lon="6.05092">
        <ele>1239.28</ele>
        <time>2016-10-09T06:25:46Z</time>
      </trkpt>
      <trkpt lat="44.66813" lon="6.05101">
        <ele>1242.64</ele>
        <time>2016-10-09T06:26:02Z</time>
      </trkpt>
      <trkpt lat="44.66814" lon="6.05105">
        <ele>1242.64</ele>
        <time>2016-10-09T06:26:04Z</time>
      </trkpt>
      <trkpt lat="44.66828" lon="6.0512">
        <ele>1246.49</ele>
        <time>2016-10-09T06:26:21Z</time>
      </trkpt>
      <trkpt lat="44.66841" lon="6.05129">
        <ele>1249.37</ele>
        <time>2016-10-09T06:26:36Z</time>
      </trkpt>
      <trkpt lat="44.66855" lon="6.05141">
        <ele>1252.25</ele>
        <time>2016-10-09T06:26:53Z</time>
      </trkpt>
      <trkpt lat="44.66869" lon="6.05146">
        <ele>1255.14</ele>
        <time>2016-10-09T06:27:07Z</time>
      </trkpt>
      <trkpt lat="44.66882" lon="6.05144">
        <ele>1258.5</ele>
        <time>2016-10-09T06:27:23Z</time>
      </trkpt>
      <trkpt lat="44.66889" lon="6.05139">
        <ele>1258.98</ele>
        <time>2016-10-09T06:27:29Z</time>
      </trkpt>
      <trkpt lat="44.66906" lon="6.05132">
        <ele>1262.35</ele>
        <time>2016-10-09T06:27:48Z</time>
      </trkpt>
      <trkpt lat="44.66922" lon="6.05133">
        <ele>1265.71</ele>
        <time>2016-10-09T06:28:03Z</time>
      </trkpt>
      <trkpt lat="44.66945" lon="6.05127">
        <ele>1268.6</ele>
        <time>2016-10-09T06:28:21Z</time>
      </trkpt>
      <trkpt lat="44.66963" lon="6.05134">
        <ele>1271.96</ele>
        <time>2016-10-09T06:28:37Z</time>
      </trkpt>
      <trkpt lat="44.66971" lon="6.0514">
        <ele>1274.85</ele>
        <time>2016-10-09T06:28:52Z</time>
      </trkpt>
      <trkpt lat="44.6699" lon="6.05154">
        <ele>1278.21</ele>
        <time>2016-10-09T06:29:08Z</time>
      </trkpt>
      <trkpt lat="44.67006" lon="6.05167">
        <ele>1282.06</ele>
        <time>2016-10-09T06:29:23Z</time>
      </trkpt>
      <trkpt lat="44.6702" lon="6.05172">
        <ele>1284.94</ele>
        <time>2016-10-09T06:29:42Z</time>
      </trkpt>
      <trkpt lat="44.6703" lon="6.05186">
        <ele>1287.82</ele>
        <time>2016-10-09T06:29:58Z</time>
      </trkpt>
      <trkpt lat="44.67017" lon="6.05176">
        <ele>1290.71</ele>
        <time>2016-10-09T06:30:16Z</time>
      </trkpt>
      <trkpt lat="44.67011" lon="6.05157">
        <ele>1292.63</ele>
        <time>2016-10-09T06:30:29Z</time>
      </trkpt>
      <trkpt lat="44.67003" lon="6.05136">
        <ele>1295.51</ele>
        <time>2016-10-09T06:30:45Z</time>
      </trkpt>
      <trkpt lat="44.66994" lon="6.05118">
        <ele>1298.4</ele>
        <time>2016-10-09T06:31:01Z</time>
      </trkpt>
      <trkpt lat="44.66987" lon="6.05092">
        <ele>1300.8</ele>
        <time>2016-10-09T06:31:16Z</time>
      </trkpt>
      <trkpt lat="44.66979" lon="6.05068">
        <ele>1304.17</ele>
        <time>2016-10-09T06:31:35Z</time>
      </trkpt>
      <trkpt lat="44.66969" lon="6.05041">
        <ele>1307.05</ele>
        <time>2016-10-09T06:31:52Z</time>
      </trkpt>
      <trkpt lat="44.66957" lon="6.05032">
        <ele>1309.93</ele>
        <time>2016-10-09T06:32:08Z</time>
      </trkpt>
      <trkpt lat="44.66942" lon="6.05027">
        <ele>1311.86</ele>
        <time>2016-10-09T06:32:22Z</time>
      </trkpt>
      <trkpt lat="44.66938" lon="6.05022">
        <ele>1312.82</ele>
        <time>2016-10-09T06:32:28Z</time>
      </trkpt>
      <trkpt lat="44.66924" lon="6.05012">
        <ele>1315.7</ele>
        <time>2016-10-09T06:32:46Z</time>
      </trkpt>
      <trkpt lat="44.66901" lon="6.04995">
        <ele>1319.55</ele>
        <time>2016-10-09T06:33:04Z</time>
      </trkpt>
      <trkpt lat="44.66887" lon="6.04977">
        <ele>1321.47</ele>
        <time>2016-10-09T06:33:19Z</time>
      </trkpt>
      <trkpt lat="44.66878" lon="6.04965">
        <ele>1323.39</ele>
        <time>2016-10-09T06:33:32Z</time>
      </trkpt>
      <trkpt lat="44.66873" lon="6.04953">
        <ele>1324.83</ele>
        <time>2016-10-09T06:33:43Z</time>
      </trkpt>
      <trkpt lat="44.66868" lon="6.04946">
        <ele>1326.28</ele>
        <time>2016-10-09T06:33:54Z</time>
      </trkpt>
      <trkpt lat="44.66866" lon="6.04944">
        <ele>1327.24</ele>
        <time>2016-10-09T06:33:57Z</time>
      </trkpt>
      <trkpt lat="44.66861" lon="6.04943">
        <ele>1327.72</ele>
        <time>2016-10-09T06:34:02Z</time>
      </trkpt>
      <trkpt lat="44.66848" lon="6.04934">
        <ele>1330.6</ele>
        <time>2016-10-09T06:34:16Z</time>
      </trkpt>
      <trkpt lat="44.66841" lon="6.04923">
        <ele>1331.08</ele>
        <time>2016-10-09T06:34:23Z</time>
      </trkpt>
      <trkpt lat="44.66835" lon="6.0491">
        <ele>1332.52</ele>
        <time>2016-10-09T06:34:33Z</time>
      </trkpt>
      <trkpt lat="44.66827" lon="6.04907">
        <ele>1334.93</ele>
        <time>2016-10-09T06:34:46Z</time>
      </trkpt>
      <trkpt lat="44.6682" lon="6.04902">
        <ele>1335.89</ele>
        <time>2016-10-09T06:34:56Z</time>
      </trkpt>
      <trkpt lat="44.66818" lon="6.04897">
        <ele>1336.37</ele>
        <time>2016-10-09T06:35:00Z</time>
      </trkpt>
      <trkpt lat="44.6681" lon="6.04885">
        <ele>1337.81</ele>
        <time>2016-10-09T06:35:11Z</time>
      </trkpt>
      <trkpt lat="44.66805" lon="6.04882">
        <ele>1338.77</ele>
        <time>2016-10-09T06:35:16Z</time>
      </trkpt>
      <trkpt lat="44.66793" lon="6.0488">
        <ele>1340.22</ele>
        <time>2016-10-09T06:35:28Z</time>
      </trkpt>
      <trkpt lat="44.66781" lon="6.04882">
        <ele>1342.62</ele>
        <time>2016-10-09T06:35:39Z</time>
      </trkpt>
      <trkpt lat="44.66769" lon="6.04881">
        <ele>1344.06</ele>
        <time>2016-10-09T06:35:50Z</time>
      </trkpt>
      <trkpt lat="44.66758" lon="6.04885">
        <ele>1345.98</ele>
        <time>2016-10-09T06:36:03Z</time>
      </trkpt>
      <trkpt lat="44.66746" lon="6.04874">
        <ele>1349.35</ele>
        <time>2016-10-09T06:36:16Z</time>
      </trkpt>
      <trkpt lat="44.66749" lon="6.04867">
        <ele>1350.31</ele>
        <time>2016-10-09T06:36:24Z</time>
      </trkpt>
      <trkpt lat="44.66764" lon="6.04857">
        <ele>1353.19</ele>
        <time>2016-10-09T06:36:40Z</time>
      </trkpt>
      <trkpt lat="44.66782" lon="6.0485">
        <ele>1355.12</ele>
        <time>2016-10-09T06:36:57Z</time>
      </trkpt>
      <trkpt lat="44.66796" lon="6.04846">
        <ele>1357.52</ele>
        <time>2016-10-09T06:37:13Z</time>
      </trkpt>
      <trkpt lat="44.66819" lon="6.04841">
        <ele>1359.92</ele>
        <time>2016-10-09T06:37:28Z</time>
      </trkpt>
      <trkpt lat="44.66823" lon="6.0484">
        <ele>1360.4</ele>
        <time>2016-10-09T06:37:31Z</time>
      </trkpt>
      <trkpt lat="44.66835" lon="6.04839">
        <ele>1362.81</ele>
        <time>2016-10-09T06:37:44Z</time>
      </trkpt>
      <trkpt lat="44.66841" lon="6.04839">
        <ele>1364.25</ele>
        <time>2016-10-09T06:37:50Z</time>
      </trkpt>
      <trkpt lat="44.66854" lon="6.04836">
        <ele>1366.17</ele>
        <time>2016-10-09T06:38:04Z</time>
      </trkpt>
      <trkpt lat="44.66858" lon="6.04835">
        <ele>1366.65</ele>
        <time>2016-10-09T06:38:09Z</time>
      </trkpt>
      <trkpt lat="44.66868" lon="6.04838">
        <ele>1368.09</ele>
        <time>2016-10-09T06:38:18Z</time>
      </trkpt>
      <trkpt lat="44.66872" lon="6.04842">
        <ele>1368.57</ele>
        <time>2016-10-09T06:38:23Z</time>
      </trkpt>
      <trkpt lat="44.66879" lon="6.04844">
        <ele>1370.02</ele>
        <time>2016-10-09T06:38:30Z</time>
      </trkpt>
      <trkpt lat="44.66894" lon="6.04847">
        <ele>1371.46</ele>
        <time>2016-10-09T06:38:42Z</time>
      </trkpt>
      <trkpt lat="44.66902" lon="6.04849">
        <ele>1372.9</ele>
        <time>2016-10-09T06:38:53Z</time>
      </trkpt>
      <trkpt lat="44.66907" lon="6.04848">
        <ele>1373.38</ele>
        <time>2016-10-09T06:39:08Z</time>
      </trkpt>
      <trkpt lat="44.66918" lon="6.04842">
        <ele>1375.78</ele>
        <time>2016-10-09T06:39:21Z</time>
      </trkpt>
      <trkpt lat="44.66926" lon="6.04838">
        <ele>1377.71</ele>
        <time>2016-10-09T06:39:31Z</time>
      </trkpt>
      <trkpt lat="44.66936" lon="6.04836">
        <ele>1379.15</ele>
        <time>2016-10-09T06:39:44Z</time>
      </trkpt>
      <trkpt lat="44.6694" lon="6.04841">
        <ele>1379.63</ele>
        <time>2016-10-09T06:40:02Z</time>
      </trkpt>
      <trkpt lat="44.6694" lon="6.0484">
        <ele>1379.63</ele>
        <time>2016-10-09T06:40:29Z</time>
      </trkpt>
      <trkpt lat="44.66939" lon="6.0484">
        <ele>1380.11</ele>
        <time>2016-10-09T06:41:00Z</time>
      </trkpt>
      <trkpt lat="44.6694" lon="6.0484">
        <ele>1380.59</ele>
        <time>2016-10-09T06:41:34Z</time>
      </trkpt>
      <trkpt lat="44.66944" lon="6.04837">
        <ele>1381.55</ele>
        <time>2016-10-09T06:41:56Z</time>
      </trkpt>
      <trkpt lat="44.66956" lon="6.04832">
        <ele>1383.47</ele>
        <time>2016-10-09T06:42:11Z</time>
      </trkpt>
      <trkpt lat="44.66976" lon="6.04828">
        <ele>1386.36</ele>
        <time>2016-10-09T06:42:28Z</time>
      </trkpt>
      <trkpt lat="44.66984" lon="6.04826">
        <ele>1387.32</ele>
        <time>2016-10-09T06:42:38Z</time>
      </trkpt>
      <trkpt lat="44.67003" lon="6.04822">
        <ele>1390.2</ele>
        <time>2016-10-09T06:42:54Z</time>
      </trkpt>
      <trkpt lat="44.67021" lon="6.04817">
        <ele>1393.57</ele>
        <time>2016-10-09T06:43:12Z</time>
      </trkpt>
      <trkpt lat="44.67031" lon="6.04811">
        <ele>1395.97</ele>
        <time>2016-10-09T06:43:29Z</time>
      </trkpt>
      <trkpt lat="44.67047" lon="6.04796">
        <ele>1398.86</ele>
        <time>2016-10-09T06:43:44Z</time>
      </trkpt>
      <trkpt lat="44.67063" lon="6.04784">
        <ele>1401.26</ele>
        <time>2016-10-09T06:44:01Z</time>
      </trkpt>
      <trkpt lat="44.67074" lon="6.04777">
        <ele>1403.18</ele>
        <time>2016-10-09T06:44:10Z</time>
      </trkpt>
      <trkpt lat="44.67089" lon="6.04771">
        <ele>1405.1</ele>
        <time>2016-10-09T06:44:24Z</time>
      </trkpt>
      <trkpt lat="44.67105" lon="6.04766">
        <ele>1407.51</ele>
        <time>2016-10-09T06:44:39Z</time>
      </trkpt>
      <trkpt lat="44.67107" lon="6.04765">
        <ele>1407.99</ele>
        <time>2016-10-09T06:44:56Z</time>
      </trkpt>
      <trkpt lat="44.67121" lon="6.04759">
        <ele>1410.39</ele>
        <time>2016-10-09T06:45:11Z</time>
      </trkpt>
      <trkpt lat="44.67135" lon="6.04746">
        <ele>1412.79</ele>
        <time>2016-10-09T06:45:27Z</time>
      </trkpt>
      <trkpt lat="44.67136" lon="6.04744">
        <ele>1412.79</ele>
        <time>2016-10-09T06:45:28Z</time>
      </trkpt>
      <trkpt lat="44.6714" lon="6.0474">
        <ele>1413.76</ele>
        <time>2016-10-09T06:45:32Z</time>
      </trkpt>
      <trkpt lat="44.67144" lon="6.04737">
        <ele>1414.24</ele>
        <time>2016-10-09T06:45:36Z</time>
      </trkpt>
      <trkpt lat="44.67154" lon="6.04728">
        <ele>1416.16</ele>
        <time>2016-10-09T06:45:49Z</time>
      </trkpt>
      <trkpt lat="44.67162" lon="6.04716">
        <ele>1417.6</ele>
        <time>2016-10-09T06:46:00Z</time>
      </trkpt>
      <trkpt lat="44.67166" lon="6.04708">
        <ele>1419.52</ele>
        <time>2016-10-09T06:46:08Z</time>
      </trkpt>
      <trkpt lat="44.67174" lon="6.04692">
        <ele>1420.97</ele>
        <time>2016-10-09T06:46:21Z</time>
      </trkpt>
      <trkpt lat="44.67177" lon="6.04686">
        <ele>1421.93</ele>
        <time>2016-10-09T06:46:26Z</time>
      </trkpt>
      <trkpt lat="44.67184" lon="6.04671">
        <ele>1423.85</ele>
        <time>2016-10-09T06:46:39Z</time>
      </trkpt>
      <trkpt lat="44.67186" lon="6.04667">
        <ele>1424.81</ele>
        <time>2016-10-09T06:46:44Z</time>
      </trkpt>
      <trkpt lat="44.67188" lon="6.04662">
        <ele>1425.77</ele>
        <time>2016-10-09T06:46:50Z</time>
      </trkpt>
      <trkpt lat="44.67181" lon="6.04667">
        <ele>1428.18</ele>
        <time>2016-10-09T06:47:03Z</time>
      </trkpt>
      <trkpt lat="44.67172" lon="6.04675">
        <ele>1430.1</ele>
        <time>2016-10-09T06:47:14Z</time>
      </trkpt>
      <trkpt lat="44.67162" lon="6.04682">
        <ele>1431.54</ele>
        <time>2016-10-09T06:47:26Z</time>
      </trkpt>
      <trkpt lat="44.67151" lon="6.04686">
        <ele>1432.98</ele>
        <time>2016-10-09T06:47:36Z</time>
      </trkpt>
      <trkpt lat="44.67141" lon="6.0469">
        <ele>1434.91</ele>
        <time>2016-10-09T06:47:47Z</time>
      </trkpt>
      <trkpt lat="44.6714" lon="6.0469">
        <ele>1434.91</ele>
        <time>2016-10-09T06:47:48Z</time>
      </trkpt>
      <trkpt lat="44.67129" lon="6.04687">
        <ele>1437.31</ele>
        <time>2016-10-09T06:48:00Z</time>
      </trkpt>
      <trkpt lat="44.67116" lon="6.04682">
        <ele>1439.23</ele>
        <time>2016-10-09T06:48:11Z</time>
      </trkpt>
      <trkpt lat="44.67106" lon="6.04678">
        <ele>1440.67</ele>
        <time>2016-10-09T06:48:22Z</time>
      </trkpt>
      <trkpt lat="44.67095" lon="6.04676">
        <ele>1442.11</ele>
        <time>2016-10-09T06:48:33Z</time>
      </trkpt>
      <trkpt lat="44.6709" lon="6.04675">
        <ele>1443.08</ele>
        <time>2016-10-09T06:48:39Z</time>
      </trkpt>
      <trkpt lat="44.67087" lon="6.04676">
        <ele>1443.56</ele>
        <time>2016-10-09T06:48:43Z</time>
      </trkpt>
      <trkpt lat="44.67078" lon="6.04678">
        <ele>1445.96</ele>
        <time>2016-10-09T06:48:55Z</time>
      </trkpt>
      <trkpt lat="44.67077" lon="6.04678">
        <ele>1446.44</ele>
        <time>2016-10-09T06:48:56Z</time>
      </trkpt>
      <trkpt lat="44.6707" lon="6.04682">
        <ele>1448.36</ele>
        <time>2016-10-09T06:49:07Z</time>
      </trkpt>
      <trkpt lat="44.67061" lon="6.04687">
        <ele>1450.29</ele>
        <time>2016-10-09T06:49:17Z</time>
      </trkpt>
      <trkpt lat="44.67056" lon="6.04689">
        <ele>1451.73</ele>
        <time>2016-10-09T06:49:22Z</time>
      </trkpt>
      <trkpt lat="44.67042" lon="6.04691">
        <ele>1450.77</ele>
        <time>2016-10-09T06:49:34Z</time>
      </trkpt>
      <trkpt lat="44.67033" lon="6.04688">
        <ele>1453.17</ele>
        <time>2016-10-09T06:49:45Z</time>
      </trkpt>
      <trkpt lat="44.67019" lon="6.04685">
        <ele>1455.09</ele>
        <time>2016-10-09T06:49:57Z</time>
      </trkpt>
      <trkpt lat="44.67015" lon="6.04684">
        <ele>1456.53</ele>
        <time>2016-10-09T06:50:03Z</time>
      </trkpt>
      <trkpt lat="44.6701" lon="6.04682">
        <ele>1457.98</ele>
        <time>2016-10-09T06:50:12Z</time>
      </trkpt>
      <trkpt lat="44.67" lon="6.04684">
        <ele>1458.94</ele>
        <time>2016-10-09T06:50:23Z</time>
      </trkpt>
      <trkpt lat="44.66991" lon="6.04688">
        <ele>1459.9</ele>
        <time>2016-10-09T06:50:33Z</time>
      </trkpt>
      <trkpt lat="44.66981" lon="6.04689">
        <ele>1461.34</ele>
        <time>2016-10-09T06:50:44Z</time>
      </trkpt>
      <trkpt lat="44.66978" lon="6.04689">
        <ele>1461.34</ele>
        <time>2016-10-09T06:50:48Z</time>
      </trkpt>
      <trkpt lat="44.66967" lon="6.04681">
        <ele>1463.74</ele>
        <time>2016-10-09T06:50:59Z</time>
      </trkpt>
      <trkpt lat="44.66965" lon="6.04681">
        <ele>1463.26</ele>
        <time>2016-10-09T06:51:01Z</time>
      </trkpt>
      <trkpt lat="44.66957" lon="6.04683">
        <ele>1466.63</ele>
        <time>2016-10-09T06:51:12Z</time>
      </trkpt>
      <trkpt lat="44.66949" lon="6.04685">
        <ele>1467.59</ele>
        <time>2016-10-09T06:51:22Z</time>
      </trkpt>
      <trkpt lat="44.66944" lon="6.04687">
        <ele>1468.55</ele>
        <time>2016-10-09T06:51:33Z</time>
      </trkpt>
      <trkpt lat="44.66937" lon="6.04689">
        <ele>1469.51</ele>
        <time>2016-10-09T06:51:43Z</time>
      </trkpt>
      <trkpt lat="44.66927" lon="6.0469">
        <ele>1471.44</ele>
        <time>2016-10-09T06:51:54Z</time>
      </trkpt>
      <trkpt lat="44.66917" lon="6.04688">
        <ele>1473.36</ele>
        <time>2016-10-09T06:52:05Z</time>
      </trkpt>
      <trkpt lat="44.66907" lon="6.04688">
        <ele>1474.32</ele>
        <time>2016-10-09T06:52:15Z</time>
      </trkpt>
      <trkpt lat="44.669" lon="6.04687">
        <ele>1474.8</ele>
        <time>2016-10-09T06:52:22Z</time>
      </trkpt>
      <trkpt lat="44.66897" lon="6.04686">
        <ele>1475.76</ele>
        <time>2016-10-09T06:52:26Z</time>
      </trkpt>
      <trkpt lat="44.66887" lon="6.04689">
        <ele>1477.68</ele>
        <time>2016-10-09T06:52:38Z</time>
      </trkpt>
      <trkpt lat="44.66879" lon="6.04686">
        <ele>1478.16</ele>
        <time>2016-10-09T06:52:47Z</time>
      </trkpt>
      <trkpt lat="44.66871" lon="6.04681">
        <ele>1480.09</ele>
        <time>2016-10-09T06:52:57Z</time>
      </trkpt>
      <trkpt lat="44.66864" lon="6.04672">
        <ele>1482.01</ele>
        <time>2016-10-09T06:53:08Z</time>
      </trkpt>
      <trkpt lat="44.66858" lon="6.04668">
        <ele>1482.49</ele>
        <time>2016-10-09T06:53:18Z</time>
      </trkpt>
      <trkpt lat="44.66848" lon="6.04672">
        <ele>1484.41</ele>
        <time>2016-10-09T06:53:28Z</time>
      </trkpt>
      <trkpt lat="44.66837" lon="6.0467">
        <ele>1485.85</ele>
        <time>2016-10-09T06:53:39Z</time>
      </trkpt>
      <trkpt lat="44.66827" lon="6.04667">
        <ele>1487.3</ele>
        <time>2016-10-09T06:53:49Z</time>
      </trkpt>
      <trkpt lat="44.66826" lon="6.04667">
        <ele>1487.3</ele>
        <time>2016-10-09T06:53:50Z</time>
      </trkpt>
      <trkpt lat="44.66816" lon="6.04661">
        <ele>1489.22</ele>
        <time>2016-10-09T06:54:03Z</time>
      </trkpt>
      <trkpt lat="44.6681" lon="6.04661">
        <ele>1490.66</ele>
        <time>2016-10-09T06:54:18Z</time>
      </trkpt>
      <trkpt lat="44.66806" lon="6.04661">
        <ele>1490.66</ele>
        <time>2016-10-09T06:54:21Z</time>
      </trkpt>
      <trkpt lat="44.66798" lon="6.04654">
        <ele>1492.1</ele>
        <time>2016-10-09T06:54:34Z</time>
      </trkpt>
      <trkpt lat="44.66799" lon="6.04654">
        <ele>1492.58</ele>
        <time>2016-10-09T06:54:59Z</time>
      </trkpt>
      <trkpt lat="44.66786" lon="6.04642">
        <ele>1494.99</ele>
        <time>2016-10-09T06:55:16Z</time>
      </trkpt>
      <trkpt lat="44.6678" lon="6.04631">
        <ele>1496.91</ele>
        <time>2016-10-09T06:55:31Z</time>
      </trkpt>
      <trkpt lat="44.66779" lon="6.0463">
        <ele>1496.91</ele>
        <time>2016-10-09T06:55:32Z</time>
      </trkpt>
      <trkpt lat="44.66774" lon="6.04623">
        <ele>1497.87</ele>
        <time>2016-10-09T06:55:39Z</time>
      </trkpt>
      <trkpt lat="44.66771" lon="6.04618">
        <ele>1498.35</ele>
        <time>2016-10-09T06:55:46Z</time>
      </trkpt>
      <trkpt lat="44.66768" lon="6.04608">
        <ele>1500.27</ele>
        <time>2016-10-09T06:55:55Z</time>
      </trkpt>
      <trkpt lat="44.66762" lon="6.04601">
        <ele>1501.72</ele>
        <time>2016-10-09T06:56:08Z</time>
      </trkpt>
      <trkpt lat="44.66759" lon="6.04593">
        <ele>1502.2</ele>
        <time>2016-10-09T06:56:15Z</time>
      </trkpt>
      <trkpt lat="44.66753" lon="6.04579">
        <ele>1504.12</ele>
        <time>2016-10-09T06:56:25Z</time>
      </trkpt>
      <trkpt lat="44.66752" lon="6.04578">
        <ele>1504.6</ele>
        <time>2016-10-09T06:56:28Z</time>
      </trkpt>
      <trkpt lat="44.66745" lon="6.04575">
        <ele>1505.56</ele>
        <time>2016-10-09T06:56:37Z</time>
      </trkpt>
      <trkpt lat="44.66736" lon="6.0457">
        <ele>1507.97</ele>
        <time>2016-10-09T06:56:48Z</time>
      </trkpt>
      <trkpt lat="44.66736" lon="6.04566">
        <ele>1507.97</ele>
        <time>2016-10-09T06:56:51Z</time>
      </trkpt>
      <trkpt lat="44.66733" lon="6.0456">
        <ele>1508.93</ele>
        <time>2016-10-09T06:56:57Z</time>
      </trkpt>
      <trkpt lat="44.66724" lon="6.0456">
        <ele>1510.85</ele>
        <time>2016-10-09T06:57:08Z</time>
      </trkpt>
      <trkpt lat="44.66722" lon="6.0456">
        <ele>1511.33</ele>
        <time>2016-10-09T06:57:11Z</time>
      </trkpt>
      <trkpt lat="44.66715" lon="6.0455">
        <ele>1512.77</ele>
        <time>2016-10-09T06:57:20Z</time>
      </trkpt>
      <trkpt lat="44.66713" lon="6.04546">
        <ele>1513.73</ele>
        <time>2016-10-09T06:57:23Z</time>
      </trkpt>
      <trkpt lat="44.6671" lon="6.04544">
        <ele>1514.69</ele>
        <time>2016-10-09T06:57:27Z</time>
      </trkpt>
      <trkpt lat="44.66704" lon="6.04542">
        <ele>1515.66</ele>
        <time>2016-10-09T06:57:33Z</time>
      </trkpt>
      <trkpt lat="44.66698" lon="6.04538">
        <ele>1517.58</ele>
        <time>2016-10-09T06:57:41Z</time>
      </trkpt>
      <trkpt lat="44.66696" lon="6.04533">
        <ele>1517.58</ele>
        <time>2016-10-09T06:57:44Z</time>
      </trkpt>
      <trkpt lat="44.66691" lon="6.04529">
        <ele>1518.54</ele>
        <time>2016-10-09T06:57:51Z</time>
      </trkpt>
      <trkpt lat="44.66682" lon="6.04516">
        <ele>1521.42</ele>
        <time>2016-10-09T06:58:05Z</time>
      </trkpt>
      <trkpt lat="44.6668" lon="6.04513">
        <ele>1521.9</ele>
        <time>2016-10-09T06:58:09Z</time>
      </trkpt>
      <trkpt lat="44.66676" lon="6.04507">
        <ele>1522.87</ele>
        <time>2016-10-09T06:58:15Z</time>
      </trkpt>
      <trkpt lat="44.66672" lon="6.04501">
        <ele>1523.83</ele>
        <time>2016-10-09T06:58:20Z</time>
      </trkpt>
      <trkpt lat="44.66665" lon="6.04485">
        <ele>1526.23</ele>
        <time>2016-10-09T06:58:32Z</time>
      </trkpt>
      <trkpt lat="44.66666" lon="6.04484">
        <ele>1527.67</ele>
        <time>2016-10-09T06:58:44Z</time>
      </trkpt>
      <trkpt lat="44.66678" lon="6.04483">
        <ele>1530.08</ele>
        <time>2016-10-09T06:58:59Z</time>
      </trkpt>
      <trkpt lat="44.66689" lon="6.04494">
        <ele>1532.96</ele>
        <time>2016-10-09T06:59:12Z</time>
      </trkpt>
      <trkpt lat="44.66698" lon="6.04497">
        <ele>1534.4</ele>
        <time>2016-10-09T06:59:19Z</time>
      </trkpt>
      <trkpt lat="44.66712" lon="6.045">
        <ele>1536.8</ele>
        <time>2016-10-09T06:59:33Z</time>
      </trkpt>
      <trkpt lat="44.66715" lon="6.045">
        <ele>1537.29</ele>
        <time>2016-10-09T06:59:37Z</time>
      </trkpt>
      <trkpt lat="44.66725" lon="6.04499">
        <ele>1540.65</ele>
        <time>2016-10-09T06:59:50Z</time>
      </trkpt>
      <trkpt lat="44.66739" lon="6.045">
        <ele>1542.57</ele>
        <time>2016-10-09T07:00:03Z</time>
      </trkpt>
      <trkpt lat="44.66741" lon="6.04499">
        <ele>1543.53</ele>
        <time>2016-10-09T07:00:06Z</time>
      </trkpt>
      <trkpt lat="44.66745" lon="6.04497">
        <ele>1544.5</ele>
        <time>2016-10-09T07:00:09Z</time>
      </trkpt>
      <trkpt lat="44.66761" lon="6.04499">
        <ele>1546.42</ele>
        <time>2016-10-09T07:00:20Z</time>
      </trkpt>
      <trkpt lat="44.66768" lon="6.045">
        <ele>1546.9</ele>
        <time>2016-10-09T07:00:25Z</time>
      </trkpt>
      <trkpt lat="44.66784" lon="6.04511">
        <ele>1550.26</ele>
        <time>2016-10-09T07:00:42Z</time>
      </trkpt>
      <trkpt lat="44.66791" lon="6.04513">
        <ele>1552.67</ele>
        <time>2016-10-09T07:00:56Z</time>
      </trkpt>
      <trkpt lat="44.668" lon="6.04519">
        <ele>1553.63</ele>
        <time>2016-10-09T07:01:09Z</time>
      </trkpt>
      <trkpt lat="44.66812" lon="6.04523">
        <ele>1555.55</ele>
        <time>2016-10-09T07:01:19Z</time>
      </trkpt>
      <trkpt lat="44.66824" lon="6.04533">
        <ele>1557.47</ele>
        <time>2016-10-09T07:01:29Z</time>
      </trkpt>
      <trkpt lat="44.66835" lon="6.04536">
        <ele>1559.88</ele>
        <time>2016-10-09T07:01:41Z</time>
      </trkpt>
      <trkpt lat="44.66845" lon="6.04538">
        <ele>1561.32</ele>
        <time>2016-10-09T07:01:50Z</time>
      </trkpt>
      <trkpt lat="44.66854" lon="6.04546">
        <ele>1564.2</ele>
        <time>2016-10-09T07:02:02Z</time>
      </trkpt>
      <trkpt lat="44.6686" lon="6.04544">
        <ele>1566.12</ele>
        <time>2016-10-09T07:02:15Z</time>
      </trkpt>
      <trkpt lat="44.66867" lon="6.04539">
        <ele>1567.57</ele>
        <time>2016-10-09T07:02:24Z</time>
      </trkpt>
      <trkpt lat="44.66873" lon="6.04537">
        <ele>1568.53</ele>
        <time>2016-10-09T07:02:31Z</time>
      </trkpt>
      <trkpt lat="44.66876" lon="6.04534">
        <ele>1569.49</ele>
        <time>2016-10-09T07:02:35Z</time>
      </trkpt>
      <trkpt lat="44.66881" lon="6.04532">
        <ele>1570.93</ele>
        <time>2016-10-09T07:02:41Z</time>
      </trkpt>
      <trkpt lat="44.66887" lon="6.04531">
        <ele>1571.41</ele>
        <time>2016-10-09T07:02:47Z</time>
      </trkpt>
      <trkpt lat="44.66898" lon="6.04527">
        <ele>1573.82</ele>
        <time>2016-10-09T07:03:00Z</time>
      </trkpt>
      <trkpt lat="44.66902" lon="6.04526">
        <ele>1575.26</ele>
        <time>2016-10-09T07:03:06Z</time>
      </trkpt>
      <trkpt lat="44.66912" lon="6.04524">
        <ele>1576.7</ele>
        <time>2016-10-09T07:03:17Z</time>
      </trkpt>
      <trkpt lat="44.66915" lon="6.04522">
        <ele>1577.66</ele>
        <time>2016-10-09T07:03:20Z</time>
      </trkpt>
      <trkpt lat="44.66928" lon="6.04523">
        <ele>1580.06</ele>
        <time>2016-10-09T07:03:34Z</time>
      </trkpt>
      <trkpt lat="44.66933" lon="6.04522">
        <ele>1581.51</ele>
        <time>2016-10-09T07:03:40Z</time>
      </trkpt>
      <trkpt lat="44.66944" lon="6.04519">
        <ele>1583.91</ele>
        <time>2016-10-09T07:03:53Z</time>
      </trkpt>
      <trkpt lat="44.6695" lon="6.04515">
        <ele>1585.35</ele>
        <time>2016-10-09T07:04:00Z</time>
      </trkpt>
      <trkpt lat="44.66953" lon="6.0451">
        <ele>1585.83</ele>
        <time>2016-10-09T07:04:05Z</time>
      </trkpt>
      <trkpt lat="44.66961" lon="6.04503">
        <ele>1588.24</ele>
        <time>2016-10-09T07:04:16Z</time>
      </trkpt>
      <trkpt lat="44.66974" lon="6.045">
        <ele>1590.16</ele>
        <time>2016-10-09T07:04:28Z</time>
      </trkpt>
      <trkpt lat="44.66985" lon="6.0449">
        <ele>1592.56</ele>
        <time>2016-10-09T07:04:42Z</time>
      </trkpt>
      <trkpt lat="44.66995" lon="6.04483">
        <ele>1594.96</ele>
        <time>2016-10-09T07:04:56Z</time>
      </trkpt>
      <trkpt lat="44.67005" lon="6.04473">
        <ele>1596.89</ele>
        <time>2016-10-09T07:05:09Z</time>
      </trkpt>
      <trkpt lat="44.67007" lon="6.04471">
        <ele>1597.37</ele>
        <time>2016-10-09T07:05:12Z</time>
      </trkpt>
      <trkpt lat="44.67013" lon="6.0446">
        <ele>1599.77</ele>
        <time>2016-10-09T07:05:24Z</time>
      </trkpt>
      <trkpt lat="44.67018" lon="6.04454">
        <ele>1602.17</ele>
        <time>2016-10-09T07:05:33Z</time>
      </trkpt>
      <trkpt lat="44.67028" lon="6.04444">
        <ele>1604.58</ele>
        <time>2016-10-09T07:05:47Z</time>
      </trkpt>
      <trkpt lat="44.67037" lon="6.04425">
        <ele>1607.46</ele>
        <time>2016-10-09T07:06:02Z</time>
      </trkpt>
      <trkpt lat="44.67045" lon="6.04415">
        <ele>1609.38</ele>
        <time>2016-10-09T07:06:12Z</time>
      </trkpt>
      <trkpt lat="44.67055" lon="6.04405">
        <ele>1611.79</ele>
        <time>2016-10-09T07:06:27Z</time>
      </trkpt>
      <trkpt lat="44.67057" lon="6.04403">
        <ele>1612.27</ele>
        <time>2016-10-09T07:06:31Z</time>
      </trkpt>
      <trkpt lat="44.67068" lon="6.04393">
        <ele>1614.19</ele>
        <time>2016-10-09T07:06:45Z</time>
      </trkpt>
      <trkpt lat="44.67074" lon="6.04392">
        <ele>1615.15</ele>
        <time>2016-10-09T07:07:07Z</time>
      </trkpt>
      <trkpt lat="44.67081" lon="6.04382">
        <ele>1617.07</ele>
        <time>2016-10-09T07:07:18Z</time>
      </trkpt>
      <trkpt lat="44.67083" lon="6.04379">
        <ele>1618.52</ele>
        <time>2016-10-09T07:07:28Z</time>
      </trkpt>
      <trkpt lat="44.6709" lon="6.04368">
        <ele>1620.92</ele>
        <time>2016-10-09T07:07:40Z</time>
      </trkpt>
      <trkpt lat="44.67091" lon="6.04364">
        <ele>1621.88</ele>
        <time>2016-10-09T07:07:46Z</time>
      </trkpt>
      <trkpt lat="44.67097" lon="6.04351">
        <ele>1623.8</ele>
        <time>2016-10-09T07:07:57Z</time>
      </trkpt>
      <trkpt lat="44.67097" lon="6.04349">
        <ele>1625.25</ele>
        <time>2016-10-09T07:08:00Z</time>
      </trkpt>
      <trkpt lat="44.67101" lon="6.04341">
        <ele>1626.69</ele>
        <time>2016-10-09T07:08:12Z</time>
      </trkpt>
      <trkpt lat="44.67108" lon="6.04329">
        <ele>1628.13</ele>
        <time>2016-10-09T07:08:23Z</time>
      </trkpt>
      <trkpt lat="44.67114" lon="6.04321">
        <ele>1629.57</ele>
        <time>2016-10-09T07:08:31Z</time>
      </trkpt>
      <trkpt lat="44.67115" lon="6.04317">
        <ele>1630.53</ele>
        <time>2016-10-09T07:08:36Z</time>
      </trkpt>
      <trkpt lat="44.67116" lon="6.04311">
        <ele>1631.98</ele>
        <time>2016-10-09T07:08:43Z</time>
      </trkpt>
      <trkpt lat="44.67117" lon="6.04302">
        <ele>1633.9</ele>
        <time>2016-10-09T07:08:50Z</time>
      </trkpt>
      <trkpt lat="44.67115" lon="6.04304">
        <ele>1634.38</ele>
        <time>2016-10-09T07:09:00Z</time>
      </trkpt>
      <trkpt lat="44.67109" lon="6.04316">
        <ele>1635.34</ele>
        <time>2016-10-09T07:09:10Z</time>
      </trkpt>
      <trkpt lat="44.67104" lon="6.04318">
        <ele>1637.26</ele>
        <time>2016-10-09T07:09:18Z</time>
      </trkpt>
      <trkpt lat="44.67093" lon="6.04318">
        <ele>1640.63</ele>
        <time>2016-10-09T07:09:31Z</time>
      </trkpt>
      <trkpt lat="44.67091" lon="6.04319">
        <ele>1641.59</ele>
        <time>2016-10-09T07:09:35Z</time>
      </trkpt>
      <trkpt lat="44.67088" lon="6.04322">
        <ele>1642.55</ele>
        <time>2016-10-09T07:09:40Z</time>
      </trkpt>
      <trkpt lat="44.67082" lon="6.04327">
        <ele>1644.47</ele>
        <time>2016-10-09T07:09:50Z</time>
      </trkpt>
      <trkpt lat="44.67083" lon="6.04322">
        <ele>1645.43</ele>
        <time>2016-10-09T07:09:54Z</time>
      </trkpt>
      <trkpt lat="44.67083" lon="6.04313">
        <ele>1648.32</ele>
        <time>2016-10-09T07:10:05Z</time>
      </trkpt>
      <trkpt lat="44.67082" lon="6.04308">
        <ele>1650.24</ele>
        <time>2016-10-09T07:10:12Z</time>
      </trkpt>
      <trkpt lat="44.67081" lon="6.0431">
        <ele>1652.64</ele>
        <time>2016-10-09T07:10:15Z</time>
      </trkpt>
      <trkpt lat="44.67079" lon="6.04322">
        <ele>1652.16</ele>
        <time>2016-10-09T07:10:26Z</time>
      </trkpt>
      <trkpt lat="44.67075" lon="6.04322">
        <ele>1653.6</ele>
        <time>2016-10-09T07:10:30Z</time>
      </trkpt>
      <trkpt lat="44.67064" lon="6.04329">
        <ele>1655.05</ele>
        <time>2016-10-09T07:10:41Z</time>
      </trkpt>
      <trkpt lat="44.67062" lon="6.04331">
        <ele>1656.01</ele>
        <time>2016-10-09T07:10:44Z</time>
      </trkpt>
      <trkpt lat="44.67059" lon="6.04335">
        <ele>1656.49</ele>
        <time>2016-10-09T07:10:47Z</time>
      </trkpt>
      <trkpt lat="44.67047" lon="6.04338">
        <ele>1658.89</ele>
        <time>2016-10-09T07:10:59Z</time>
      </trkpt>
      <trkpt lat="44.67044" lon="6.0434">
        <ele>1659.37</ele>
        <time>2016-10-09T07:11:02Z</time>
      </trkpt>
      <trkpt lat="44.67041" lon="6.0434">
        <ele>1659.37</ele>
        <time>2016-10-09T07:11:07Z</time>
      </trkpt>
      <trkpt lat="44.67035" lon="6.04334">
        <ele>1660.81</ele>
        <time>2016-10-09T07:11:14Z</time>
      </trkpt>
      <trkpt lat="44.6703" lon="6.04333">
        <ele>1661.78</ele>
        <time>2016-10-09T07:11:20Z</time>
      </trkpt>
      <trkpt lat="44.67028" lon="6.0433">
        <ele>1662.74</ele>
        <time>2016-10-09T07:11:23Z</time>
      </trkpt>
      <trkpt lat="44.67019" lon="6.04338">
        <ele>1663.22</ele>
        <time>2016-10-09T07:11:35Z</time>
      </trkpt>
      <trkpt lat="44.67017" lon="6.04342">
        <ele>1664.18</ele>
        <time>2016-10-09T07:11:46Z</time>
      </trkpt>
      <trkpt lat="44.67021" lon="6.04331">
        <ele>1666.58</ele>
        <time>2016-10-09T07:11:57Z</time>
      </trkpt>
      <trkpt lat="44.67022" lon="6.04327">
        <ele>1666.58</ele>
        <time>2016-10-09T07:12:02Z</time>
      </trkpt>
      <trkpt lat="44.67027" lon="6.04325">
        <ele>1667.54</ele>
        <time>2016-10-09T07:12:07Z</time>
      </trkpt>
      <trkpt lat="44.67038" lon="6.04323">
        <ele>1669.95</ele>
        <time>2016-10-09T07:12:19Z</time>
      </trkpt>
      <trkpt lat="44.67044" lon="6.04318">
        <ele>1671.39</ele>
        <time>2016-10-09T07:12:27Z</time>
      </trkpt>
      <trkpt lat="44.67051" lon="6.04311">
        <ele>1672.83</ele>
        <time>2016-10-09T07:12:37Z</time>
      </trkpt>
      <trkpt lat="44.67062" lon="6.043">
        <ele>1675.23</ele>
        <time>2016-10-09T07:12:51Z</time>
      </trkpt>
      <trkpt lat="44.67064" lon="6.04297">
        <ele>1676.2</ele>
        <time>2016-10-09T07:13:06Z</time>
      </trkpt>
      <trkpt lat="44.67065" lon="6.04294">
        <ele>1676.68</ele>
        <time>2016-10-09T07:13:09Z</time>
      </trkpt>
      <trkpt lat="44.67064" lon="6.04287">
        <ele>1678.12</ele>
        <time>2016-10-09T07:13:15Z</time>
      </trkpt>
      <trkpt lat="44.67068" lon="6.04276">
        <ele>1681</ele>
        <time>2016-10-09T07:13:24Z</time>
      </trkpt>
      <trkpt lat="44.67078" lon="6.04268">
        <ele>1682.44</ele>
        <time>2016-10-09T07:13:37Z</time>
      </trkpt>
      <trkpt lat="44.67088" lon="6.04263">
        <ele>1685.33</ele>
        <time>2016-10-09T07:13:49Z</time>
      </trkpt>
      <trkpt lat="44.67098" lon="6.04259">
        <ele>1687.73</ele>
        <time>2016-10-09T07:14:02Z</time>
      </trkpt>
      <trkpt lat="44.671" lon="6.0426">
        <ele>1689.17</ele>
        <time>2016-10-09T07:14:07Z</time>
      </trkpt>
      <trkpt lat="44.67093" lon="6.04262">
        <ele>1690.14</ele>
        <time>2016-10-09T07:14:17Z</time>
      </trkpt>
      <trkpt lat="44.67089" lon="6.0426">
        <ele>1691.1</ele>
        <time>2016-10-09T07:14:21Z</time>
      </trkpt>
      <trkpt lat="44.67078" lon="6.04251">
        <ele>1693.5</ele>
        <time>2016-10-09T07:14:35Z</time>
      </trkpt>
      <trkpt lat="44.67076" lon="6.04252">
        <ele>1693.98</ele>
        <time>2016-10-09T07:14:37Z</time>
      </trkpt>
      <trkpt lat="44.67063" lon="6.04257">
        <ele>1695.9</ele>
        <time>2016-10-09T07:14:48Z</time>
      </trkpt>
      <trkpt lat="44.67057" lon="6.0426">
        <ele>1697.83</ele>
        <time>2016-10-09T07:14:59Z</time>
      </trkpt>
      <trkpt lat="44.6706" lon="6.04255">
        <ele>1698.79</ele>
        <time>2016-10-09T07:15:04Z</time>
      </trkpt>
      <trkpt lat="44.67075" lon="6.04244">
        <ele>1700.71</ele>
        <time>2016-10-09T07:15:17Z</time>
      </trkpt>
      <trkpt lat="44.67083" lon="6.04242">
        <ele>1702.15</ele>
        <time>2016-10-09T07:15:28Z</time>
      </trkpt>
      <trkpt lat="44.67082" lon="6.04242">
        <ele>1703.11</ele>
        <time>2016-10-09T07:15:31Z</time>
      </trkpt>
      <trkpt lat="44.6708" lon="6.0424">
        <ele>1704.07</ele>
        <time>2016-10-09T07:15:35Z</time>
      </trkpt>
      <trkpt lat="44.67072" lon="6.04241">
        <ele>1705.52</ele>
        <time>2016-10-09T07:15:44Z</time>
      </trkpt>
      <trkpt lat="44.67062" lon="6.04245">
        <ele>1707.44</ele>
        <time>2016-10-09T07:15:55Z</time>
      </trkpt>
      <trkpt lat="44.67052" lon="6.04246">
        <ele>1708.4</ele>
        <time>2016-10-09T07:16:05Z</time>
      </trkpt>
      <trkpt lat="44.67048" lon="6.04252">
        <ele>1709.84</ele>
        <time>2016-10-09T07:16:13Z</time>
      </trkpt>
      <trkpt lat="44.67048" lon="6.04257">
        <ele>1710.32</ele>
        <time>2016-10-09T07:16:16Z</time>
      </trkpt>
      <trkpt lat="44.67048" lon="6.04264">
        <ele>1710.8</ele>
        <time>2016-10-09T07:16:22Z</time>
      </trkpt>
      <trkpt lat="44.67048" lon="6.04267">
        <ele>1711.28</ele>
        <time>2016-10-09T07:16:24Z</time>
      </trkpt>
      <trkpt lat="44.67052" lon="6.04281">
        <ele>1712.73</ele>
        <time>2016-10-09T07:16:38Z</time>
      </trkpt>
      <trkpt lat="44.67045" lon="6.0428">
        <ele>1713.21</ele>
        <time>2016-10-09T07:16:54Z</time>
      </trkpt>
      <trkpt lat="44.67044" lon="6.04278">
        <ele>1713.21</ele>
        <time>2016-10-09T07:17:14Z</time>
      </trkpt>
      <trkpt lat="44.67041" lon="6.04274">
        <ele>1713.69</ele>
        <time>2016-10-09T07:17:18Z</time>
      </trkpt>
      <trkpt lat="44.67032" lon="6.04261">
        <ele>1715.13</ele>
        <time>2016-10-09T07:17:30Z</time>
      </trkpt>
      <trkpt lat="44.67031" lon="6.0426">
        <ele>1715.61</ele>
        <time>2016-10-09T07:17:31Z</time>
      </trkpt>
      <trkpt lat="44.67026" lon="6.04258">
        <ele>1717.05</ele>
        <time>2016-10-09T07:17:43Z</time>
      </trkpt>
      <trkpt lat="44.67015" lon="6.04256">
        <ele>1718.01</ele>
        <time>2016-10-09T07:17:53Z</time>
      </trkpt>
      <trkpt lat="44.67007" lon="6.04257">
        <ele>1718.97</ele>
        <time>2016-10-09T07:18:03Z</time>
      </trkpt>
      <trkpt lat="44.66999" lon="6.04256">
        <ele>1720.9</ele>
        <time>2016-10-09T07:18:14Z</time>
      </trkpt>
      <trkpt lat="44.66999" lon="6.04262">
        <ele>1721.38</ele>
        <time>2016-10-09T07:18:26Z</time>
      </trkpt>
      <trkpt lat="44.66998" lon="6.04271">
        <ele>1722.34</ele>
        <time>2016-10-09T07:18:37Z</time>
      </trkpt>
      <trkpt lat="44.66993" lon="6.04282">
        <ele>1723.3</ele>
        <time>2016-10-09T07:18:46Z</time>
      </trkpt>
      <trkpt lat="44.66993" lon="6.04286">
        <ele>1723.3</ele>
        <time>2016-10-09T07:18:48Z</time>
      </trkpt>
      <trkpt lat="44.66978" lon="6.04295">
        <ele>1725.7</ele>
        <time>2016-10-09T07:19:02Z</time>
      </trkpt>
      <trkpt lat="44.66976" lon="6.04294">
        <ele>1725.7</ele>
        <time>2016-10-09T07:19:04Z</time>
      </trkpt>
      <trkpt lat="44.66965" lon="6.04294">
        <ele>1727.15</ele>
        <time>2016-10-09T07:19:16Z</time>
      </trkpt>
      <trkpt lat="44.66958" lon="6.04296">
        <ele>1729.07</ele>
        <time>2016-10-09T07:19:29Z</time>
      </trkpt>
      <trkpt lat="44.66955" lon="6.04309">
        <ele>1730.03</ele>
        <time>2016-10-09T07:19:39Z</time>
      </trkpt>
      <trkpt lat="44.66943" lon="6.04319">
        <ele>1731.95</ele>
        <time>2016-10-09T07:19:51Z</time>
      </trkpt>
      <trkpt lat="44.66942" lon="6.04319">
        <ele>1731.95</ele>
        <time>2016-10-09T07:19:52Z</time>
      </trkpt>
      <trkpt lat="44.66938" lon="6.04321">
        <ele>1732.91</ele>
        <time>2016-10-09T07:19:57Z</time>
      </trkpt>
      <trkpt lat="44.66927" lon="6.04323">
        <ele>1734.36</ele>
        <time>2016-10-09T07:20:09Z</time>
      </trkpt>
      <trkpt lat="44.66922" lon="6.04324">
        <ele>1734.84</ele>
        <time>2016-10-09T07:20:14Z</time>
      </trkpt>
      <trkpt lat="44.6691" lon="6.04324">
        <ele>1736.76</ele>
        <time>2016-10-09T07:20:26Z</time>
      </trkpt>
      <trkpt lat="44.669" lon="6.04321">
        <ele>1737.72</ele>
        <time>2016-10-09T07:20:35Z</time>
      </trkpt>
      <trkpt lat="44.66893" lon="6.04317">
        <ele>1738.68</ele>
        <time>2016-10-09T07:20:48Z</time>
      </trkpt>
      <trkpt lat="44.6689" lon="6.04317">
        <ele>1739.64</ele>
        <time>2016-10-09T07:20:51Z</time>
      </trkpt>
      <trkpt lat="44.66878" lon="6.04316">
        <ele>1740.12</ele>
        <time>2016-10-09T07:21:02Z</time>
      </trkpt>
      <trkpt lat="44.66869" lon="6.04313">
        <ele>1741.57</ele>
        <time>2016-10-09T07:21:14Z</time>
      </trkpt>
      <trkpt lat="44.66861" lon="6.04316">
        <ele>1743.01</ele>
        <time>2016-10-09T07:21:25Z</time>
      </trkpt>
      <trkpt lat="44.66852" lon="6.04321">
        <ele>1744.45</ele>
        <time>2016-10-09T07:21:35Z</time>
      </trkpt>
      <trkpt lat="44.66843" lon="6.04327">
        <ele>1745.89</ele>
        <time>2016-10-09T07:21:46Z</time>
      </trkpt>
      <trkpt lat="44.66838" lon="6.04328">
        <ele>1745.89</ele>
        <time>2016-10-09T07:21:51Z</time>
      </trkpt>
      <trkpt lat="44.6683" lon="6.04323">
        <ele>1747.33</ele>
        <time>2016-10-09T07:22:01Z</time>
      </trkpt>
      <trkpt lat="44.66827" lon="6.04322">
        <ele>1747.33</ele>
        <time>2016-10-09T07:22:04Z</time>
      </trkpt>
      <trkpt lat="44.66818" lon="6.04319">
        <ele>1749.26</ele>
        <time>2016-10-09T07:22:14Z</time>
      </trkpt>
      <trkpt lat="44.6681" lon="6.04314">
        <ele>1750.7</ele>
        <time>2016-10-09T07:22:25Z</time>
      </trkpt>
      <trkpt lat="44.66809" lon="6.04306">
        <ele>1751.66</ele>
        <time>2016-10-09T07:22:38Z</time>
      </trkpt>
      <trkpt lat="44.66809" lon="6.04305">
        <ele>1751.66</ele>
        <time>2016-10-09T07:22:56Z</time>
      </trkpt>
      <trkpt lat="44.66808" lon="6.04305">
        <ele>1751.66</ele>
        <time>2016-10-09T07:23:18Z</time>
      </trkpt>
      <trkpt lat="44.66808" lon="6.04305">
        <ele>1751.66</ele>
        <time>2016-10-09T07:23:49Z</time>
      </trkpt>
      <trkpt lat="44.66808" lon="6.04304">
        <ele>1751.66</ele>
        <time>2016-10-09T07:24:16Z</time>
      </trkpt>
      <trkpt lat="44.66808" lon="6.04305">
        <ele>1751.66</ele>
        <time>2016-10-09T07:24:44Z</time>
      </trkpt>
      <trkpt lat="44.66808" lon="6.04305">
        <ele>1751.18</ele>
        <time>2016-10-09T07:25:15Z</time>
      </trkpt>
      <trkpt lat="44.66807" lon="6.04305">
        <ele>1751.18</ele>
        <time>2016-10-09T07:25:39Z</time>
      </trkpt>
      <trkpt lat="44.66807" lon="6.04305">
        <ele>1751.18</ele>
        <time>2016-10-09T07:26:14Z</time>
      </trkpt>
      <trkpt lat="44.66808" lon="6.04305">
        <ele>1751.18</ele>
        <time>2016-10-09T07:26:42Z</time>
      </trkpt>
      <trkpt lat="44.66808" lon="6.04305">
        <ele>1751.18</ele>
        <time>2016-10-09T07:27:10Z</time>
      </trkpt>
      <trkpt lat="44.66808" lon="6.04305">
        <ele>1751.18</ele>
        <time>2016-10-09T07:27:37Z</time>
      </trkpt>
      <trkpt lat="44.66808" lon="6.04303">
        <ele>1751.66</ele>
        <time>2016-10-09T07:28:10Z</time>
      </trkpt>
      <trkpt lat="44.66808" lon="6.04301">
        <ele>1751.66</ele>
        <time>2016-10-09T07:28:25Z</time>
      </trkpt>
      <trkpt lat="44.66807" lon="6.04301">
        <ele>1751.66</ele>
        <time>2016-10-09T07:28:55Z</time>
      </trkpt>
      <trkpt lat="44.66807" lon="6.043">
        <ele>1751.18</ele>
        <time>2016-10-09T07:29:10Z</time>
      </trkpt>
      <trkpt lat="44.66806" lon="6.04293">
        <ele>1751.66</ele>
        <time>2016-10-09T07:29:26Z</time>
      </trkpt>
      <trkpt lat="44.66805" lon="6.04277">
        <ele>1753.1</ele>
        <time>2016-10-09T07:29:37Z</time>
      </trkpt>
      <trkpt lat="44.66802" lon="6.0426">
        <ele>1755.02</ele>
        <time>2016-10-09T07:29:49Z</time>
      </trkpt>
      <trkpt lat="44.66799" lon="6.04247">
        <ele>1756.47</ele>
        <time>2016-10-09T07:29:59Z</time>
      </trkpt>
      <trkpt lat="44.66798" lon="6.04231">
        <ele>1757.91</ele>
        <time>2016-10-09T07:30:10Z</time>
      </trkpt>
      <trkpt lat="44.66797" lon="6.04229">
        <ele>1758.39</ele>
        <time>2016-10-09T07:30:12Z</time>
      </trkpt>
      <trkpt lat="44.66796" lon="6.04212">
        <ele>1759.35</ele>
        <time>2016-10-09T07:30:23Z</time>
      </trkpt>
      <trkpt lat="44.66793" lon="6.04192">
        <ele>1760.79</ele>
        <time>2016-10-09T07:30:35Z</time>
      </trkpt>
      <trkpt lat="44.66792" lon="6.04178">
        <ele>1762.23</ele>
        <time>2016-10-09T07:30:45Z</time>
      </trkpt>
      <trkpt lat="44.66791" lon="6.04165">
        <ele>1763.68</ele>
        <time>2016-10-09T07:30:55Z</time>
      </trkpt>
      <trkpt lat="44.66791" lon="6.04148">
        <ele>1765.12</ele>
        <time>2016-10-09T07:31:07Z</time>
      </trkpt>
      <trkpt lat="44.66789" lon="6.04129">
        <ele>1766.56</ele>
        <time>2016-10-09T07:31:19Z</time>
      </trkpt>
      <trkpt lat="44.66787" lon="6.04114">
        <ele>1768.48</ele>
        <time>2016-10-09T07:31:30Z</time>
      </trkpt>
      <trkpt lat="44.66785" lon="6.04097">
        <ele>1769.92</ele>
        <time>2016-10-09T07:31:41Z</time>
      </trkpt>
      <trkpt lat="44.66781" lon="6.04082">
        <ele>1771.85</ele>
        <time>2016-10-09T07:31:54Z</time>
      </trkpt>
      <trkpt lat="44.66777" lon="6.0407">
        <ele>1772.81</ele>
        <time>2016-10-09T07:32:06Z</time>
      </trkpt>
      <trkpt lat="44.6677" lon="6.04053">
        <ele>1775.21</ele>
        <time>2016-10-09T07:32:20Z</time>
      </trkpt>
      <trkpt lat="44.66765" lon="6.0403">
        <ele>1776.65</ele>
        <time>2016-10-09T07:32:35Z</time>
      </trkpt>
      <trkpt lat="44.6676" lon="6.04013">
        <ele>1779.06</ele>
        <time>2016-10-09T07:32:50Z</time>
      </trkpt>
      <trkpt lat="44.66754" lon="6.03995">
        <ele>1781.46</ele>
        <time>2016-10-09T07:33:05Z</time>
      </trkpt>
      <trkpt lat="44.66753" lon="6.03992">
        <ele>1781.46</ele>
        <time>2016-10-09T07:33:07Z</time>
      </trkpt>
      <trkpt lat="44.66749" lon="6.03986">
        <ele>1782.42</ele>
        <time>2016-10-09T07:33:13Z</time>
      </trkpt>
      <trkpt lat="44.66745" lon="6.03982">
        <ele>1782.9</ele>
        <time>2016-10-09T07:33:23Z</time>
      </trkpt>
      <trkpt lat="44.66738" lon="6.03968">
        <ele>1784.34</ele>
        <time>2016-10-09T07:33:32Z</time>
      </trkpt>
      <trkpt lat="44.66726" lon="6.0396">
        <ele>1786.27</ele>
        <time>2016-10-09T07:33:46Z</time>
      </trkpt>
      <trkpt lat="44.66713" lon="6.03947">
        <ele>1788.19</ele>
        <time>2016-10-09T07:34:02Z</time>
      </trkpt>
      <trkpt lat="44.66707" lon="6.03931">
        <ele>1790.11</ele>
        <time>2016-10-09T07:34:17Z</time>
      </trkpt>
      <trkpt lat="44.667" lon="6.03904">
        <ele>1792.03</ele>
        <time>2016-10-09T07:34:32Z</time>
      </trkpt>
      <trkpt lat="44.667" lon="6.03887">
        <ele>1793.48</ele>
        <time>2016-10-09T07:34:45Z</time>
      </trkpt>
      <trkpt lat="44.66703" lon="6.03882">
        <ele>1795.4</ele>
        <time>2016-10-09T07:34:58Z</time>
      </trkpt>
      <trkpt lat="44.66703" lon="6.03881">
        <ele>1795.88</ele>
        <time>2016-10-09T07:35:13Z</time>
      </trkpt>
      <trkpt lat="44.66703" lon="6.03878">
        <ele>1796.36</ele>
        <time>2016-10-09T07:35:15Z</time>
      </trkpt>
      <trkpt lat="44.66706" lon="6.0387">
        <ele>1796.36</ele>
        <time>2016-10-09T07:35:26Z</time>
      </trkpt>
      <trkpt lat="44.66707" lon="6.03865">
        <ele>1796.84</ele>
        <time>2016-10-09T07:35:31Z</time>
      </trkpt>
      <trkpt lat="44.66709" lon="6.03855">
        <ele>1796.84</ele>
        <time>2016-10-09T07:35:37Z</time>
      </trkpt>
      <trkpt lat="44.66712" lon="6.03834">
        <ele>1796.84</ele>
        <time>2016-10-09T07:35:50Z</time>
      </trkpt>
      <trkpt lat="44.66712" lon="6.03826">
        <ele>1797.32</ele>
        <time>2016-10-09T07:35:57Z</time>
      </trkpt>
      <trkpt lat="44.667" lon="6.03828">
        <ele>1798.28</ele>
        <time>2016-10-09T07:36:10Z</time>
      </trkpt>
      <trkpt lat="44.66696" lon="6.03831">
        <ele>1799.24</ele>
        <time>2016-10-09T07:36:15Z</time>
      </trkpt>
      <trkpt lat="44.6669" lon="6.03835">
        <ele>1799.73</ele>
        <time>2016-10-09T07:36:21Z</time>
      </trkpt>
      <trkpt lat="44.66675" lon="6.03831">
        <ele>1801.17</ele>
        <time>2016-10-09T07:36:34Z</time>
      </trkpt>
      <trkpt lat="44.66672" lon="6.03832">
        <ele>1801.65</ele>
        <time>2016-10-09T07:36:37Z</time>
      </trkpt>
      <trkpt lat="44.66659" lon="6.03821">
        <ele>1800.69</ele>
        <time>2016-10-09T07:36:49Z</time>
      </trkpt>
      <trkpt lat="44.66648" lon="6.03814">
        <ele>1799.73</ele>
        <time>2016-10-09T07:37:00Z</time>
      </trkpt>
      <trkpt lat="44.66647" lon="6.03815">
        <ele>1799.73</ele>
        <time>2016-10-09T07:37:01Z</time>
      </trkpt>
      <trkpt lat="44.66638" lon="6.03821">
        <ele>1799.73</ele>
        <time>2016-10-09T07:37:15Z</time>
      </trkpt>
      <trkpt lat="44.66626" lon="6.03806">
        <ele>1800.21</ele>
        <time>2016-10-09T07:37:28Z</time>
      </trkpt>
      <trkpt lat="44.6662" lon="6.03802">
        <ele>1799.24</ele>
        <time>2016-10-09T07:37:39Z</time>
      </trkpt>
      <trkpt lat="44.66619" lon="6.03801">
        <ele>1798.76</ele>
        <time>2016-10-09T07:37:41Z</time>
      </trkpt>
      <trkpt lat="44.66617" lon="6.03803">
        <ele>1799.24</ele>
        <time>2016-10-09T07:37:44Z</time>
      </trkpt>
      <trkpt lat="44.6661" lon="6.03805">
        <ele>1798.76</ele>
        <time>2016-10-09T07:37:58Z</time>
      </trkpt>
      <trkpt lat="44.66609" lon="6.03804">
        <ele>1798.76</ele>
        <time>2016-10-09T07:38:00Z</time>
      </trkpt>
      <trkpt lat="44.66603" lon="6.03799">
        <ele>1799.24</ele>
        <time>2016-10-09T07:38:07Z</time>
      </trkpt>
      <trkpt lat="44.66601" lon="6.03798">
        <ele>1800.21</ele>
        <time>2016-10-09T07:38:19Z</time>
      </trkpt>
      <trkpt lat="44.666" lon="6.03799">
        <ele>1800.69</ele>
        <time>2016-10-09T07:38:30Z</time>
      </trkpt>
      <trkpt lat="44.66601" lon="6.03796">
        <ele>1800.21</ele>
        <time>2016-10-09T07:38:41Z</time>
      </trkpt>
      <trkpt lat="44.66602" lon="6.03789">
        <ele>1800.21</ele>
        <time>2016-10-09T07:38:48Z</time>
      </trkpt>
      <trkpt lat="44.66612" lon="6.03798">
        <ele>1800.21</ele>
        <time>2016-10-09T07:39:00Z</time>
      </trkpt>
      <trkpt lat="44.66617" lon="6.03794">
        <ele>1800.21</ele>
        <time>2016-10-09T07:39:05Z</time>
      </trkpt>
      <trkpt lat="44.6662" lon="6.03791">
        <ele>1800.69</ele>
        <time>2016-10-09T07:39:09Z</time>
      </trkpt>
      <trkpt lat="44.66626" lon="6.03797">
        <ele>1800.69</ele>
        <time>2016-10-09T07:39:18Z</time>
      </trkpt>
      <trkpt lat="44.66636" lon="6.03813">
        <ele>1801.17</ele>
        <time>2016-10-09T07:39:33Z</time>
      </trkpt>
      <trkpt lat="44.66638" lon="6.03816">
        <ele>1801.65</ele>
        <time>2016-10-09T07:39:37Z</time>
      </trkpt>
      <trkpt lat="44.66641" lon="6.03812">
        <ele>1801.17</ele>
        <time>2016-10-09T07:39:42Z</time>
      </trkpt>
      <trkpt lat="44.66644" lon="6.03806">
        <ele>1801.17</ele>
        <time>2016-10-09T07:39:46Z</time>
      </trkpt>
      <trkpt lat="44.66654" lon="6.03805">
        <ele>1801.65</ele>
        <time>2016-10-09T07:39:54Z</time>
      </trkpt>
      <trkpt lat="44.66667" lon="6.0382">
        <ele>1803.09</ele>
        <time>2016-10-09T07:40:08Z</time>
      </trkpt>
      <trkpt lat="44.6667" lon="6.03826">
        <ele>1802.61</ele>
        <time>2016-10-09T07:40:15Z</time>
      </trkpt>
      <trkpt lat="44.66676" lon="6.03827">
        <ele>1803.09</ele>
        <time>2016-10-09T07:40:27Z</time>
      </trkpt>
      <trkpt lat="44.66678" lon="6.03827">
        <ele>1806.45</ele>
        <time>2016-10-09T07:40:39Z</time>
      </trkpt>
      <trkpt lat="44.66678" lon="6.03827">
        <ele>1803.09</ele>
        <time>2016-10-09T07:40:40Z</time>
      </trkpt>
      <trkpt lat="44.66677" lon="6.03828">
        <ele>1805.01</ele>
        <time>2016-10-09T07:41:06Z</time>
      </trkpt>
      <trkpt lat="44.66674" lon="6.03823">
        <ele>1805.01</ele>
        <time>2016-10-09T07:41:21Z</time>
      </trkpt>
      <trkpt lat="44.66669" lon="6.0382">
        <ele>1804.53</ele>
        <time>2016-10-09T07:41:34Z</time>
      </trkpt>
      <trkpt lat="44.66672" lon="6.03817">
        <ele>1805.49</ele>
        <time>2016-10-09T07:41:52Z</time>
      </trkpt>
      <trkpt lat="44.66674" lon="6.03815">
        <ele>1806.45</ele>
        <time>2016-10-09T07:41:54Z</time>
      </trkpt>
      <trkpt lat="44.66673" lon="6.03805">
        <ele>1808.38</ele>
        <time>2016-10-09T07:42:04Z</time>
      </trkpt>
      <trkpt lat="44.6667" lon="6.03795">
        <ele>1810.78</ele>
        <time>2016-10-09T07:42:13Z</time>
      </trkpt>
      <trkpt lat="44.66662" lon="6.03783">
        <ele>1813.66</ele>
        <time>2016-10-09T07:42:27Z</time>
      </trkpt>
      <trkpt lat="44.66656" lon="6.0377">
        <ele>1817.03</ele>
        <time>2016-10-09T07:42:42Z</time>
      </trkpt>
      <trkpt lat="44.66654" lon="6.0376">
        <ele>1819.91</ele>
        <time>2016-10-09T07:42:55Z</time>
      </trkpt>
      <trkpt lat="44.66654" lon="6.03744">
        <ele>1822.8</ele>
        <time>2016-10-09T07:43:08Z</time>
      </trkpt>
      <trkpt lat="44.66653" lon="6.03739">
        <ele>1824.24</ele>
        <time>2016-10-09T07:43:12Z</time>
      </trkpt>
      <trkpt lat="44.66648" lon="6.03728">
        <ele>1827.12</ele>
        <time>2016-10-09T07:43:27Z</time>
      </trkpt>
      <trkpt lat="44.66647" lon="6.03728">
        <ele>1828.08</ele>
        <time>2016-10-09T07:43:30Z</time>
      </trkpt>
      <trkpt lat="44.66645" lon="6.03718">
        <ele>1830.01</ele>
        <time>2016-10-09T07:43:41Z</time>
      </trkpt>
      <trkpt lat="44.66642" lon="6.03698">
        <ele>1832.89</ele>
        <time>2016-10-09T07:43:56Z</time>
      </trkpt>
      <trkpt lat="44.66636" lon="6.03685">
        <ele>1835.77</ele>
        <time>2016-10-09T07:44:10Z</time>
      </trkpt>
      <trkpt lat="44.66627" lon="6.03685">
        <ele>1838.66</ele>
        <time>2016-10-09T07:44:23Z</time>
      </trkpt>
      <trkpt lat="44.66626" lon="6.03685">
        <ele>1839.62</ele>
        <time>2016-10-09T07:44:25Z</time>
      </trkpt>
      <trkpt lat="44.66619" lon="6.03683">
        <ele>1842.5</ele>
        <time>2016-10-09T07:44:38Z</time>
      </trkpt>
      <trkpt lat="44.66613" lon="6.0368">
        <ele>1845.87</ele>
        <time>2016-10-09T07:44:51Z</time>
      </trkpt>
      <trkpt lat="44.66604" lon="6.03684">
        <ele>1848.27</ele>
        <time>2016-10-09T07:45:02Z</time>
      </trkpt>
      <trkpt lat="44.66598" lon="6.03683">
        <ele>1850.19</ele>
        <time>2016-10-09T07:45:10Z</time>
      </trkpt>
      <trkpt lat="44.66592" lon="6.03683">
        <ele>1853.08</ele>
        <time>2016-10-09T07:45:23Z</time>
      </trkpt>
      <trkpt lat="44.6659" lon="6.03682">
        <ele>1855</ele>
        <time>2016-10-09T07:45:28Z</time>
      </trkpt>
      <trkpt lat="44.66581" lon="6.03677">
        <ele>1857.89</ele>
        <time>2016-10-09T07:45:41Z</time>
      </trkpt>
      <trkpt lat="44.6658" lon="6.03672">
        <ele>1858.85</ele>
        <time>2016-10-09T07:45:52Z</time>
      </trkpt>
      <trkpt lat="44.66578" lon="6.0367">
        <ele>1860.77</ele>
        <time>2016-10-09T07:45:57Z</time>
      </trkpt>
      <trkpt lat="44.66577" lon="6.03662">
        <ele>1863.65</ele>
        <time>2016-10-09T07:46:08Z</time>
      </trkpt>
      <trkpt lat="44.66576" lon="6.03658">
        <ele>1866.06</ele>
        <time>2016-10-09T07:46:17Z</time>
      </trkpt>
      <trkpt lat="44.66572" lon="6.03652">
        <ele>1868.46</ele>
        <time>2016-10-09T07:46:29Z</time>
      </trkpt>
      <trkpt lat="44.66572" lon="6.03644">
        <ele>1871.82</ele>
        <time>2016-10-09T07:46:41Z</time>
      </trkpt>
      <trkpt lat="44.66572" lon="6.03643">
        <ele>1872.3</ele>
        <time>2016-10-09T07:46:42Z</time>
      </trkpt>
      <trkpt lat="44.66571" lon="6.03635">
        <ele>1874.71</ele>
        <time>2016-10-09T07:46:54Z</time>
      </trkpt>
      <trkpt lat="44.66565" lon="6.03637">
        <ele>1877.11</ele>
        <time>2016-10-09T07:47:08Z</time>
      </trkpt>
      <trkpt lat="44.66562" lon="6.03637">
        <ele>1877.59</ele>
        <time>2016-10-09T07:47:23Z</time>
      </trkpt>
      <trkpt lat="44.66561" lon="6.03636">
        <ele>1880</ele>
        <time>2016-10-09T07:47:36Z</time>
      </trkpt>
      <trkpt lat="44.66562" lon="6.03634">
        <ele>1880.48</ele>
        <time>2016-10-09T07:47:38Z</time>
      </trkpt>
      <trkpt lat="44.66564" lon="6.03618">
        <ele>1883.36</ele>
        <time>2016-10-09T07:47:49Z</time>
      </trkpt>
      <trkpt lat="44.66562" lon="6.03608">
        <ele>1885.28</ele>
        <time>2016-10-09T07:47:59Z</time>
      </trkpt>
      <trkpt lat="44.66561" lon="6.03602">
        <ele>1887.69</ele>
        <time>2016-10-09T07:48:09Z</time>
      </trkpt>
      <trkpt lat="44.66562" lon="6.03599">
        <ele>1889.61</ele>
        <time>2016-10-09T07:48:17Z</time>
      </trkpt>
      <trkpt lat="44.66564" lon="6.03595">
        <ele>1890.09</ele>
        <time>2016-10-09T07:48:21Z</time>
      </trkpt>
      <trkpt lat="44.66564" lon="6.03584">
        <ele>1892.01</ele>
        <time>2016-10-09T07:48:32Z</time>
      </trkpt>
      <trkpt lat="44.66567" lon="6.03576">
        <ele>1894.9</ele>
        <time>2016-10-09T07:48:44Z</time>
      </trkpt>
      <trkpt lat="44.66571" lon="6.03567">
        <ele>1896.82</ele>
        <time>2016-10-09T07:48:54Z</time>
      </trkpt>
      <trkpt lat="44.66574" lon="6.0356">
        <ele>1898.74</ele>
        <time>2016-10-09T07:49:04Z</time>
      </trkpt>
      <trkpt lat="44.66575" lon="6.03555">
        <ele>1900.66</ele>
        <time>2016-10-09T07:49:11Z</time>
      </trkpt>
      <trkpt lat="44.66578" lon="6.03549">
        <ele>1902.11</ele>
        <time>2016-10-09T07:49:18Z</time>
      </trkpt>
      <trkpt lat="44.66578" lon="6.03543">
        <ele>1904.51</ele>
        <time>2016-10-09T07:49:29Z</time>
      </trkpt>
      <trkpt lat="44.6658" lon="6.03535">
        <ele>1907.39</ele>
        <time>2016-10-09T07:49:42Z</time>
      </trkpt>
      <trkpt lat="44.66582" lon="6.03528">
        <ele>1910.28</ele>
        <time>2016-10-09T07:49:54Z</time>
      </trkpt>
      <trkpt lat="44.6658" lon="6.03523">
        <ele>1912.68</ele>
        <time>2016-10-09T07:50:05Z</time>
      </trkpt>
      <trkpt lat="44.66579" lon="6.03521">
        <ele>1912.68</ele>
        <time>2016-10-09T07:50:07Z</time>
      </trkpt>
      <trkpt lat="44.66578" lon="6.03513">
        <ele>1917.01</ele>
        <time>2016-10-09T07:50:19Z</time>
      </trkpt>
      <trkpt lat="44.66573" lon="6.03513">
        <ele>1918.93</ele>
        <time>2016-10-09T07:50:33Z</time>
      </trkpt>
      <trkpt lat="44.66567" lon="6.0351">
        <ele>1921.33</ele>
        <time>2016-10-09T07:50:46Z</time>
      </trkpt>
      <trkpt lat="44.66564" lon="6.03503">
        <ele>1923.25</ele>
        <time>2016-10-09T07:50:59Z</time>
      </trkpt>
      <trkpt lat="44.66561" lon="6.03502">
        <ele>1926.62</ele>
        <time>2016-10-09T07:51:12Z</time>
      </trkpt>
      <trkpt lat="44.66555" lon="6.03502">
        <ele>1927.58</ele>
        <time>2016-10-09T07:51:19Z</time>
      </trkpt>
      <trkpt lat="44.66549" lon="6.03505">
        <ele>1929.98</ele>
        <time>2016-10-09T07:51:32Z</time>
      </trkpt>
      <trkpt lat="44.66548" lon="6.03505">
        <ele>1931.43</ele>
        <time>2016-10-09T07:51:38Z</time>
      </trkpt>
      <trkpt lat="44.66546" lon="6.03506">
        <ele>1931.91</ele>
        <time>2016-10-09T07:51:41Z</time>
      </trkpt>
      <trkpt lat="44.66541" lon="6.03506">
        <ele>1933.83</ele>
        <time>2016-10-09T07:51:50Z</time>
      </trkpt>
      <trkpt lat="44.66536" lon="6.03505">
        <ele>1934.79</ele>
        <time>2016-10-09T07:52:01Z</time>
      </trkpt>
      <trkpt lat="44.66532" lon="6.03504">
        <ele>1937.67</ele>
        <time>2016-10-09T07:52:12Z</time>
      </trkpt>
      <trkpt lat="44.66525" lon="6.03504">
        <ele>1940.08</ele>
        <time>2016-10-09T07:52:24Z</time>
      </trkpt>
      <trkpt lat="44.66517" lon="6.03506">
        <ele>1942</ele>
        <time>2016-10-09T07:52:36Z</time>
      </trkpt>
      <trkpt lat="44.66514" lon="6.03505">
        <ele>1943.92</ele>
        <time>2016-10-09T07:52:47Z</time>
      </trkpt>
      <trkpt lat="44.66506" lon="6.03505">
        <ele>1945.85</ele>
        <time>2016-10-09T07:52:58Z</time>
      </trkpt>
      <trkpt lat="44.66498" lon="6.03506">
        <ele>1947.77</ele>
        <time>2016-10-09T07:53:07Z</time>
      </trkpt>
      <trkpt lat="44.66494" lon="6.03505">
        <ele>1949.21</ele>
        <time>2016-10-09T07:53:15Z</time>
      </trkpt>
      <trkpt lat="44.66487" lon="6.03506">
        <ele>1951.61</ele>
        <time>2016-10-09T07:53:28Z</time>
      </trkpt>
      <trkpt lat="44.66484" lon="6.03506">
        <ele>1954.02</ele>
        <time>2016-10-09T07:53:37Z</time>
      </trkpt>
      <trkpt lat="44.66481" lon="6.03505">
        <ele>1955.94</ele>
        <time>2016-10-09T07:53:47Z</time>
      </trkpt>
      <trkpt lat="44.66476" lon="6.03505">
        <ele>1957.86</ele>
        <time>2016-10-09T07:53:58Z</time>
      </trkpt>
      <trkpt lat="44.66475" lon="6.03505">
        <ele>1958.34</ele>
        <time>2016-10-09T07:54:00Z</time>
      </trkpt>
      <trkpt lat="44.6647" lon="6.03505">
        <ele>1960.27</ele>
        <time>2016-10-09T07:54:10Z</time>
      </trkpt>
      <trkpt lat="44.66464" lon="6.03504">
        <ele>1962.67</ele>
        <time>2016-10-09T07:54:21Z</time>
      </trkpt>
      <trkpt lat="44.66461" lon="6.03501">
        <ele>1963.63</ele>
        <time>2016-10-09T07:54:34Z</time>
      </trkpt>
      <trkpt lat="44.66459" lon="6.03497">
        <ele>1965.55</ele>
        <time>2016-10-09T07:54:41Z</time>
      </trkpt>
      <trkpt lat="44.66456" lon="6.03496">
        <ele>1966.03</ele>
        <time>2016-10-09T07:54:44Z</time>
      </trkpt>
      <trkpt lat="44.66452" lon="6.03497">
        <ele>1968.44</ele>
        <time>2016-10-09T07:54:56Z</time>
      </trkpt>
      <trkpt lat="44.66452" lon="6.03497">
        <ele>1968.44</ele>
        <time>2016-10-09T07:55:19Z</time>
      </trkpt>
      <trkpt lat="44.66452" lon="6.03496">
        <ele>1968.44</ele>
        <time>2016-10-09T07:55:42Z</time>
      </trkpt>
      <trkpt lat="44.66451" lon="6.03496">
        <ele>1968.44</ele>
        <time>2016-10-09T07:56:14Z</time>
      </trkpt>
      <trkpt lat="44.6645" lon="6.03497">
        <ele>1968.44</ele>
        <time>2016-10-09T07:56:37Z</time>
      </trkpt>
      <trkpt lat="44.66449" lon="6.03497">
        <ele>1968.92</ele>
        <time>2016-10-09T07:57:02Z</time>
      </trkpt>
      <trkpt lat="44.66449" lon="6.03497">
        <ele>1968.92</ele>
        <time>2016-10-09T07:57:27Z</time>
      </trkpt>
      <trkpt lat="44.66447" lon="6.03498">
        <ele>1970.36</ele>
        <time>2016-10-09T07:57:42Z</time>
      </trkpt>
      <trkpt lat="44.66441" lon="6.03498">
        <ele>1973.24</ele>
        <time>2016-10-09T07:57:53Z</time>
      </trkpt>
      <trkpt lat="44.66432" lon="6.03498">
        <ele>1976.13</ele>
        <time>2016-10-09T07:58:05Z</time>
      </trkpt>
      <trkpt lat="44.66429" lon="6.035">
        <ele>1976.61</ele>
        <time>2016-10-09T07:58:09Z</time>
      </trkpt>
      <trkpt lat="44.66428" lon="6.03499">
        <ele>1978.05</ele>
        <time>2016-10-09T07:58:13Z</time>
      </trkpt>
      <trkpt lat="44.66418" lon="6.03502">
        <ele>1980.45</ele>
        <time>2016-10-09T07:58:25Z</time>
      </trkpt>
      <trkpt lat="44.66415" lon="6.03502">
        <ele>1981.9</ele>
        <time>2016-10-09T07:58:32Z</time>
      </trkpt>
      <trkpt lat="44.66413" lon="6.03502">
        <ele>1982.86</ele>
        <time>2016-10-09T07:58:36Z</time>
      </trkpt>
      <trkpt lat="44.66404" lon="6.03504">
        <ele>1985.74</ele>
        <time>2016-10-09T07:58:49Z</time>
      </trkpt>
      <trkpt lat="44.66398" lon="6.03507">
        <ele>1987.18</ele>
        <time>2016-10-09T07:58:57Z</time>
      </trkpt>
      <trkpt lat="44.66393" lon="6.03508">
        <ele>1989.59</ele>
        <time>2016-10-09T07:59:08Z</time>
      </trkpt>
      <trkpt lat="44.66386" lon="6.0351">
        <ele>1991.99</ele>
        <time>2016-10-09T07:59:21Z</time>
      </trkpt>
      <trkpt lat="44.66376" lon="6.03516">
        <ele>1995.35</ele>
        <time>2016-10-09T07:59:37Z</time>
      </trkpt>
      <trkpt lat="44.66371" lon="6.03517">
        <ele>1997.28</ele>
        <time>2016-10-09T07:59:48Z</time>
      </trkpt>
      <trkpt lat="44.66368" lon="6.03518">
        <ele>1998.24</ele>
        <time>2016-10-09T07:59:56Z</time>
      </trkpt>
      <trkpt lat="44.66359" lon="6.03526">
        <ele>2000.16</ele>
        <time>2016-10-09T08:00:07Z</time>
      </trkpt>
      <trkpt lat="44.66353" lon="6.03528">
        <ele>2002.08</ele>
        <time>2016-10-09T08:00:17Z</time>
      </trkpt>
      <trkpt lat="44.66343" lon="6.03532">
        <ele>2004.49</ele>
        <time>2016-10-09T08:00:31Z</time>
      </trkpt>
      <trkpt lat="44.66335" lon="6.03537">
        <ele>2006.41</ele>
        <time>2016-10-09T08:00:43Z</time>
      </trkpt>
      <trkpt lat="44.66326" lon="6.03541">
        <ele>2008.81</ele>
        <time>2016-10-09T08:00:56Z</time>
      </trkpt>
      <trkpt lat="44.66319" lon="6.03547">
        <ele>2010.73</ele>
        <time>2016-10-09T08:01:08Z</time>
      </trkpt>
      <trkpt lat="44.6631" lon="6.03552">
        <ele>2013.14</ele>
        <time>2016-10-09T08:01:20Z</time>
      </trkpt>
      <trkpt lat="44.66307" lon="6.03554">
        <ele>2014.1</ele>
        <time>2016-10-09T08:01:25Z</time>
      </trkpt>
      <trkpt lat="44.663" lon="6.03561">
        <ele>2015.54</ele>
        <time>2016-10-09T08:01:35Z</time>
      </trkpt>
      <trkpt lat="44.66292" lon="6.03565">
        <ele>2017.46</ele>
        <time>2016-10-09T08:01:47Z</time>
      </trkpt>
      <trkpt lat="44.66287" lon="6.03567">
        <ele>2019.39</ele>
        <time>2016-10-09T08:01:58Z</time>
      </trkpt>
      <trkpt lat="44.66281" lon="6.03573">
        <ele>2021.31</ele>
        <time>2016-10-09T08:02:08Z</time>
      </trkpt>
      <trkpt lat="44.66272" lon="6.03577">
        <ele>2024.19</ele>
        <time>2016-10-09T08:02:21Z</time>
      </trkpt>
      <trkpt lat="44.66268" lon="6.0358">
        <ele>2024.19</ele>
        <time>2016-10-09T08:02:26Z</time>
      </trkpt>
      <trkpt lat="44.66263" lon="6.03582">
        <ele>2026.12</ele>
        <time>2016-10-09T08:02:35Z</time>
      </trkpt>
      <trkpt lat="44.66258" lon="6.03582">
        <ele>2028.52</ele>
        <time>2016-10-09T08:02:45Z</time>
      </trkpt>
      <trkpt lat="44.66252" lon="6.03584">
        <ele>2030.92</ele>
        <time>2016-10-09T08:02:55Z</time>
      </trkpt>
      <trkpt lat="44.66245" lon="6.03585">
        <ele>2032.84</ele>
        <time>2016-10-09T08:03:06Z</time>
      </trkpt>
      <trkpt lat="44.6624" lon="6.03586">
        <ele>2034.29</ele>
        <time>2016-10-09T08:03:15Z</time>
      </trkpt>
      <trkpt lat="44.66235" lon="6.03588">
        <ele>2036.21</ele>
        <time>2016-10-09T08:03:24Z</time>
      </trkpt>
      <trkpt lat="44.66227" lon="6.03591">
        <ele>2037.65</ele>
        <time>2016-10-09T08:03:35Z</time>
      </trkpt>
      <trkpt lat="44.6622" lon="6.03594">
        <ele>2040.05</ele>
        <time>2016-10-09T08:03:46Z</time>
      </trkpt>
      <trkpt lat="44.66218" lon="6.03594">
        <ele>2040.05</ele>
        <time>2016-10-09T08:03:48Z</time>
      </trkpt>
      <trkpt lat="44.66213" lon="6.03593">
        <ele>2041.98</ele>
        <time>2016-10-09T08:04:00Z</time>
      </trkpt>
      <trkpt lat="44.66212" lon="6.03591">
        <ele>2042.46</ele>
        <time>2016-10-09T08:04:20Z</time>
      </trkpt>
      <trkpt lat="44.66212" lon="6.03591">
        <ele>2042.46</ele>
        <time>2016-10-09T08:04:34Z</time>
      </trkpt>
      <trkpt lat="44.66211" lon="6.03591">
        <ele>2042.46</ele>
        <time>2016-10-09T08:04:51Z</time>
      </trkpt>
      <trkpt lat="44.66209" lon="6.03594">
        <ele>2041.98</ele>
        <time>2016-10-09T08:05:13Z</time>
      </trkpt>
      <trkpt lat="44.66205" lon="6.03597">
        <ele>2041.5</ele>
        <time>2016-10-09T08:05:24Z</time>
      </trkpt>
      <trkpt lat="44.66203" lon="6.03598">
        <ele>2040.54</ele>
        <time>2016-10-09T08:05:37Z</time>
      </trkpt>
      <trkpt lat="44.66203" lon="6.03598">
        <ele>2040.54</ele>
        <time>2016-10-09T08:05:52Z</time>
      </trkpt>
      <trkpt lat="44.66209" lon="6.03601">
        <ele>2041.98</ele>
        <time>2016-10-09T08:06:05Z</time>
      </trkpt>
      <trkpt lat="44.66209" lon="6.03596">
        <ele>2041.98</ele>
        <time>2016-10-09T08:06:13Z</time>
      </trkpt>
      <trkpt lat="44.66211" lon="6.03592">
        <ele>2042.94</ele>
        <time>2016-10-09T08:06:28Z</time>
      </trkpt>
      <trkpt lat="44.66211" lon="6.03592">
        <ele>2040.05</ele>
        <time>2016-10-09T08:06:35Z</time>
      </trkpt>
      <trkpt lat="44.66211" lon="6.03592">
        <ele>2044.86</ele>
        <time>2016-10-09T08:06:38Z</time>
      </trkpt>
      <trkpt lat="44.66211" lon="6.03591">
        <ele>2042.46</ele>
        <time>2016-10-09T08:06:58Z</time>
      </trkpt>
      <trkpt lat="44.6622" lon="6.03582">
        <ele>2043.42</ele>
        <time>2016-10-09T08:07:09Z</time>
      </trkpt>
      <trkpt lat="44.66226" lon="6.03569">
        <ele>2044.38</ele>
        <time>2016-10-09T08:07:21Z</time>
      </trkpt>
      <trkpt lat="44.6623" lon="6.03564">
        <ele>2044.86</ele>
        <time>2016-10-09T08:07:27Z</time>
      </trkpt>
      <trkpt lat="44.66231" lon="6.03559">
        <ele>2045.34</ele>
        <time>2016-10-09T08:07:31Z</time>
      </trkpt>
      <trkpt lat="44.66236" lon="6.03551">
        <ele>2046.78</ele>
        <time>2016-10-09T08:07:39Z</time>
      </trkpt>
      <trkpt lat="44.66245" lon="6.03536">
        <ele>2048.23</ele>
        <time>2016-10-09T08:07:52Z</time>
      </trkpt>
      <trkpt lat="44.66251" lon="6.03523">
        <ele>2049.19</ele>
        <time>2016-10-09T08:08:03Z</time>
      </trkpt>
      <trkpt lat="44.66258" lon="6.0351">
        <ele>2050.63</ele>
        <time>2016-10-09T08:08:15Z</time>
      </trkpt>
      <trkpt lat="44.66265" lon="6.03496">
        <ele>2052.07</ele>
        <time>2016-10-09T08:08:27Z</time>
      </trkpt>
      <trkpt lat="44.66272" lon="6.03485">
        <ele>2053.03</ele>
        <time>2016-10-09T08:08:37Z</time>
      </trkpt>
      <trkpt lat="44.66278" lon="6.03474">
        <ele>2054.96</ele>
        <time>2016-10-09T08:08:47Z</time>
      </trkpt>
      <trkpt lat="44.66279" lon="6.03472">
        <ele>2054.96</ele>
        <time>2016-10-09T08:08:49Z</time>
      </trkpt>
      <trkpt lat="44.66282" lon="6.03469">
        <ele>2055.44</ele>
        <time>2016-10-09T08:08:53Z</time>
      </trkpt>
      <trkpt lat="44.66287" lon="6.03457">
        <ele>2057.36</ele>
        <time>2016-10-09T08:09:04Z</time>
      </trkpt>
      <trkpt lat="44.66291" lon="6.03448">
        <ele>2058.8</ele>
        <time>2016-10-09T08:09:14Z</time>
      </trkpt>
      <trkpt lat="44.66294" lon="6.03443">
        <ele>2059.76</ele>
        <time>2016-10-09T08:09:19Z</time>
      </trkpt>
      <trkpt lat="44.66301" lon="6.03432">
        <ele>2061.2</ele>
        <time>2016-10-09T08:09:31Z</time>
      </trkpt>
      <trkpt lat="44.66307" lon="6.03418">
        <ele>2063.61</ele>
        <time>2016-10-09T08:09:42Z</time>
      </trkpt>
      <trkpt lat="44.66311" lon="6.03406">
        <ele>2066.01</ele>
        <time>2016-10-09T08:09:54Z</time>
      </trkpt>
      <trkpt lat="44.66314" lon="6.03395">
        <ele>2068.41</ele>
        <time>2016-10-09T08:10:05Z</time>
      </trkpt>
      <trkpt lat="44.66316" lon="6.03387">
        <ele>2070.34</ele>
        <time>2016-10-09T08:10:16Z</time>
      </trkpt>
      <trkpt lat="44.66317" lon="6.03384">
        <ele>2071.3</ele>
        <time>2016-10-09T08:10:19Z</time>
      </trkpt>
      <trkpt lat="44.66322" lon="6.03378">
        <ele>2073.22</ele>
        <time>2016-10-09T08:10:29Z</time>
      </trkpt>
      <trkpt lat="44.66324" lon="6.03367">
        <ele>2075.14</ele>
        <time>2016-10-09T08:10:41Z</time>
      </trkpt>
      <trkpt lat="44.66327" lon="6.03359">
        <ele>2077.07</ele>
        <time>2016-10-09T08:10:53Z</time>
      </trkpt>
      <trkpt lat="44.66327" lon="6.03355">
        <ele>2077.55</ele>
        <time>2016-10-09T08:10:56Z</time>
      </trkpt>
      <trkpt lat="44.66326" lon="6.03351">
        <ele>2077.07</ele>
        <time>2016-10-09T08:11:11Z</time>
      </trkpt>
      <trkpt lat="44.66326" lon="6.03351">
        <ele>2077.55</ele>
        <time>2016-10-09T08:11:19Z</time>
      </trkpt>
      <trkpt lat="44.66326" lon="6.03346">
        <ele>2077.07</ele>
        <time>2016-10-09T08:11:23Z</time>
      </trkpt>
      <trkpt lat="44.66325" lon="6.0334">
        <ele>2076.59</ele>
        <time>2016-10-09T08:11:26Z</time>
      </trkpt>
      <trkpt lat="44.66323" lon="6.03325">
        <ele>2075.62</ele>
        <time>2016-10-09T08:11:36Z</time>
      </trkpt>
      <trkpt lat="44.66322" lon="6.03311">
        <ele>2074.18</ele>
        <time>2016-10-09T08:11:46Z</time>
      </trkpt>
      <trkpt lat="44.66323" lon="6.03301">
        <ele>2073.22</ele>
        <time>2016-10-09T08:11:51Z</time>
      </trkpt>
      <trkpt lat="44.66321" lon="6.03283">
        <ele>2071.3</ele>
        <time>2016-10-09T08:12:01Z</time>
      </trkpt>
      <trkpt lat="44.66321" lon="6.03267">
        <ele>2070.34</ele>
        <time>2016-10-09T08:12:11Z</time>
      </trkpt>
      <trkpt lat="44.66321" lon="6.03252">
        <ele>2069.38</ele>
        <time>2016-10-09T08:12:22Z</time>
      </trkpt>
      <trkpt lat="44.66324" lon="6.03234">
        <ele>2066.01</ele>
        <time>2016-10-09T08:12:35Z</time>
      </trkpt>
      <trkpt lat="44.66325" lon="6.03224">
        <ele>2065.05</ele>
        <time>2016-10-09T08:12:42Z</time>
      </trkpt>
      <trkpt lat="44.66326" lon="6.03218">
        <ele>2064.09</ele>
        <time>2016-10-09T08:12:46Z</time>
      </trkpt>
      <trkpt lat="44.66332" lon="6.03201">
        <ele>2061.68</ele>
        <time>2016-10-09T08:12:57Z</time>
      </trkpt>
      <trkpt lat="44.66333" lon="6.03195">
        <ele>2060.24</ele>
        <time>2016-10-09T08:13:02Z</time>
      </trkpt>
      <trkpt lat="44.66337" lon="6.03185">
        <ele>2059.28</ele>
        <time>2016-10-09T08:13:09Z</time>
      </trkpt>
      <trkpt lat="44.66338" lon="6.03182">
        <ele>2058.8</ele>
        <time>2016-10-09T08:13:11Z</time>
      </trkpt>
      <trkpt lat="44.66339" lon="6.03174">
        <ele>2056.88</ele>
        <time>2016-10-09T08:13:18Z</time>
      </trkpt>
      <trkpt lat="44.66343" lon="6.03166">
        <ele>2055.92</ele>
        <time>2016-10-09T08:13:25Z</time>
      </trkpt>
      <trkpt lat="44.66348" lon="6.0315">
        <ele>2053.51</ele>
        <time>2016-10-09T08:13:37Z</time>
      </trkpt>
      <trkpt lat="44.66353" lon="6.03138">
        <ele>2051.11</ele>
        <time>2016-10-09T08:13:48Z</time>
      </trkpt>
      <trkpt lat="44.66359" lon="6.03123">
        <ele>2049.67</ele>
        <time>2016-10-09T08:13:58Z</time>
      </trkpt>
      <trkpt lat="44.66362" lon="6.03116">
        <ele>2048.23</ele>
        <time>2016-10-09T08:14:05Z</time>
      </trkpt>
      <trkpt lat="44.66363" lon="6.03114">
        <ele>2047.75</ele>
        <time>2016-10-09T08:14:10Z</time>
      </trkpt>
      <trkpt lat="44.66368" lon="6.03099">
        <ele>2046.3</ele>
        <time>2016-10-09T08:14:20Z</time>
      </trkpt>
      <trkpt lat="44.66368" lon="6.03097">
        <ele>2046.3</ele>
        <time>2016-10-09T08:14:21Z</time>
      </trkpt>
      <trkpt lat="44.66373" lon="6.03079">
        <ele>2044.38</ele>
        <time>2016-10-09T08:14:34Z</time>
      </trkpt>
      <trkpt lat="44.66375" lon="6.03072">
        <ele>2043.9</ele>
        <time>2016-10-09T08:14:39Z</time>
      </trkpt>
      <trkpt lat="44.66381" lon="6.03062">
        <ele>2042.94</ele>
        <time>2016-10-09T08:14:47Z</time>
      </trkpt>
      <trkpt lat="44.66384" lon="6.03054">
        <ele>2041.98</ele>
        <time>2016-10-09T08:14:58Z</time>
      </trkpt>
      <trkpt lat="44.66391" lon="6.03039">
        <ele>2040.54</ele>
        <time>2016-10-09T08:15:07Z</time>
      </trkpt>
      <trkpt lat="44.66396" lon="6.03025">
        <ele>2040.54</ele>
        <time>2016-10-09T08:15:18Z</time>
      </trkpt>
      <trkpt lat="44.66397" lon="6.03021">
        <ele>2040.54</ele>
        <time>2016-10-09T08:15:21Z</time>
      </trkpt>
      <trkpt lat="44.66401" lon="6.03011">
        <ele>2038.61</ele>
        <time>2016-10-09T08:15:32Z</time>
      </trkpt>
      <trkpt lat="44.66402" lon="6.03001">
        <ele>2035.73</ele>
        <time>2016-10-09T08:15:43Z</time>
      </trkpt>
      <trkpt lat="44.66403" lon="6.02992">
        <ele>2033.33</ele>
        <time>2016-10-09T08:15:52Z</time>
      </trkpt>
      <trkpt lat="44.66401" lon="6.02981">
        <ele>2029.48</ele>
        <time>2016-10-09T08:16:03Z</time>
      </trkpt>
      <trkpt lat="44.66401" lon="6.0298">
        <ele>2029.48</ele>
        <time>2016-10-09T08:16:05Z</time>
      </trkpt>
      <trkpt lat="44.66403" lon="6.02978">
        <ele>2028.52</ele>
        <time>2016-10-09T08:16:07Z</time>
      </trkpt>
      <trkpt lat="44.66403" lon="6.02973">
        <ele>2026.6</ele>
        <time>2016-10-09T08:16:14Z</time>
      </trkpt>
      <trkpt lat="44.66404" lon="6.02971">
        <ele>2026.12</ele>
        <time>2016-10-09T08:16:17Z</time>
      </trkpt>
      <trkpt lat="44.66402" lon="6.02962">
        <ele>2024.19</ele>
        <time>2016-10-09T08:16:25Z</time>
      </trkpt>
      <trkpt lat="44.664" lon="6.0296">
        <ele>2023.23</ele>
        <time>2016-10-09T08:16:28Z</time>
      </trkpt>
      <trkpt lat="44.66401" lon="6.02956">
        <ele>2022.27</ele>
        <time>2016-10-09T08:16:32Z</time>
      </trkpt>
      <trkpt lat="44.66401" lon="6.02954">
        <ele>2021.79</ele>
        <time>2016-10-09T08:16:35Z</time>
      </trkpt>
      <trkpt lat="44.66402" lon="6.02945">
        <ele>2019.87</ele>
        <time>2016-10-09T08:16:40Z</time>
      </trkpt>
      <trkpt lat="44.66402" lon="6.02928">
        <ele>2016.5</ele>
        <time>2016-10-09T08:16:54Z</time>
      </trkpt>
      <trkpt lat="44.66402" lon="6.02925">
        <ele>2016.02</ele>
        <time>2016-10-09T08:16:56Z</time>
      </trkpt>
      <trkpt lat="44.66407" lon="6.02911">
        <ele>2014.1</ele>
        <time>2016-10-09T08:17:06Z</time>
      </trkpt>
      <trkpt lat="44.66407" lon="6.02908">
        <ele>2012.66</ele>
        <time>2016-10-09T08:17:19Z</time>
      </trkpt>
      <trkpt lat="44.66407" lon="6.02901">
        <ele>2011.22</ele>
        <time>2016-10-09T08:17:26Z</time>
      </trkpt>
      <trkpt lat="44.66408" lon="6.02893">
        <ele>2008.81</ele>
        <time>2016-10-09T08:17:34Z</time>
      </trkpt>
      <trkpt lat="44.66407" lon="6.02887">
        <ele>2007.37</ele>
        <time>2016-10-09T08:17:40Z</time>
      </trkpt>
      <trkpt lat="44.66407" lon="6.02883">
        <ele>2005.93</ele>
        <time>2016-10-09T08:17:45Z</time>
      </trkpt>
      <trkpt lat="44.66407" lon="6.02877">
        <ele>2003.52</ele>
        <time>2016-10-09T08:17:52Z</time>
      </trkpt>
      <trkpt lat="44.66409" lon="6.02872">
        <ele>2001.6</ele>
        <time>2016-10-09T08:18:00Z</time>
      </trkpt>
      <trkpt lat="44.66411" lon="6.02867">
        <ele>2000.16</ele>
        <time>2016-10-09T08:18:07Z</time>
      </trkpt>
      <trkpt lat="44.66413" lon="6.02861">
        <ele>1999.2</ele>
        <time>2016-10-09T08:18:12Z</time>
      </trkpt>
      <trkpt lat="44.66411" lon="6.02853">
        <ele>1996.8</ele>
        <time>2016-10-09T08:18:21Z</time>
      </trkpt>
      <trkpt lat="44.66412" lon="6.02852">
        <ele>1996.32</ele>
        <time>2016-10-09T08:18:23Z</time>
      </trkpt>
      <trkpt lat="44.66413" lon="6.02845">
        <ele>1993.43</ele>
        <time>2016-10-09T08:18:35Z</time>
      </trkpt>
      <trkpt lat="44.66415" lon="6.02834">
        <ele>1991.03</ele>
        <time>2016-10-09T08:18:46Z</time>
      </trkpt>
      <trkpt lat="44.66415" lon="6.0283">
        <ele>1990.07</ele>
        <time>2016-10-09T08:18:51Z</time>
      </trkpt>
      <trkpt lat="44.66416" lon="6.02823">
        <ele>1987.66</ele>
        <time>2016-10-09T08:19:01Z</time>
      </trkpt>
      <trkpt lat="44.6642" lon="6.0281">
        <ele>1983.82</ele>
        <time>2016-10-09T08:19:11Z</time>
      </trkpt>
      <trkpt lat="44.66421" lon="6.02807">
        <ele>1982.86</ele>
        <time>2016-10-09T08:19:14Z</time>
      </trkpt>
      <trkpt lat="44.66423" lon="6.02805">
        <ele>1981.9</ele>
        <time>2016-10-09T08:19:18Z</time>
      </trkpt>
      <trkpt lat="44.66427" lon="6.02797">
        <ele>1979.97</ele>
        <time>2016-10-09T08:19:28Z</time>
      </trkpt>
      <trkpt lat="44.66429" lon="6.02795">
        <ele>1979.49</ele>
        <time>2016-10-09T08:19:31Z</time>
      </trkpt>
      <trkpt lat="44.66428" lon="6.02791">
        <ele>1978.05</ele>
        <time>2016-10-09T08:19:35Z</time>
      </trkpt>
      <trkpt lat="44.66435" lon="6.02786">
        <ele>1975.65</ele>
        <time>2016-10-09T08:19:45Z</time>
      </trkpt>
      <trkpt lat="44.66439" lon="6.02783">
        <ele>1974.69</ele>
        <time>2016-10-09T08:19:50Z</time>
      </trkpt>
      <trkpt lat="44.66439" lon="6.02781">
        <ele>1974.2</ele>
        <time>2016-10-09T08:19:52Z</time>
      </trkpt>
      <trkpt lat="44.66442" lon="6.02775">
        <ele>1973.24</ele>
        <time>2016-10-09T08:19:57Z</time>
      </trkpt>
      <trkpt lat="44.66444" lon="6.02769">
        <ele>1971.8</ele>
        <time>2016-10-09T08:20:01Z</time>
      </trkpt>
      <trkpt lat="44.66451" lon="6.02756">
        <ele>1969.88</ele>
        <time>2016-10-09T08:20:11Z</time>
      </trkpt>
      <trkpt lat="44.66453" lon="6.02752">
        <ele>1968.92</ele>
        <time>2016-10-09T08:20:16Z</time>
      </trkpt>
      <trkpt lat="44.66455" lon="6.02742">
        <ele>1966.51</ele>
        <time>2016-10-09T08:20:26Z</time>
      </trkpt>
      <trkpt lat="44.66458" lon="6.02732">
        <ele>1963.63</ele>
        <time>2016-10-09T08:20:39Z</time>
      </trkpt>
      <trkpt lat="44.66461" lon="6.02722">
        <ele>1960.75</ele>
        <time>2016-10-09T08:20:52Z</time>
      </trkpt>
      <trkpt lat="44.66466" lon="6.02708">
        <ele>1957.86</ele>
        <time>2016-10-09T08:21:04Z</time>
      </trkpt>
      <trkpt lat="44.66471" lon="6.02696">
        <ele>1954.5</ele>
        <time>2016-10-09T08:21:18Z</time>
      </trkpt>
      <trkpt lat="44.66477" lon="6.02684">
        <ele>1952.57</ele>
        <time>2016-10-09T08:21:29Z</time>
      </trkpt>
      <trkpt lat="44.66482" lon="6.02668">
        <ele>1950.65</ele>
        <time>2016-10-09T08:21:40Z</time>
      </trkpt>
      <trkpt lat="44.66485" lon="6.02656">
        <ele>1950.17</ele>
        <time>2016-10-09T08:21:52Z</time>
      </trkpt>
      <trkpt lat="44.66486" lon="6.02653">
        <ele>1950.17</ele>
        <time>2016-10-09T08:22:00Z</time>
      </trkpt>
      <trkpt lat="44.66484" lon="6.02642">
        <ele>1950.17</ele>
        <time>2016-10-09T08:22:10Z</time>
      </trkpt>
      <trkpt lat="44.66482" lon="6.02635">
        <ele>1948.73</ele>
        <time>2016-10-09T08:22:20Z</time>
      </trkpt>
      <trkpt lat="44.66476" lon="6.02617">
        <ele>1946.81</ele>
        <time>2016-10-09T08:22:32Z</time>
      </trkpt>
      <trkpt lat="44.66474" lon="6.02598">
        <ele>1946.33</ele>
        <time>2016-10-09T08:22:44Z</time>
      </trkpt>
      <trkpt lat="44.66471" lon="6.02581">
        <ele>1946.33</ele>
        <time>2016-10-09T08:22:55Z</time>
      </trkpt>
      <trkpt lat="44.66468" lon="6.02564">
        <ele>1946.81</ele>
        <time>2016-10-09T08:23:06Z</time>
      </trkpt>
      <trkpt lat="44.66467" lon="6.02554">
        <ele>1946.81</ele>
        <time>2016-10-09T08:23:13Z</time>
      </trkpt>
      <trkpt lat="44.66466" lon="6.02535">
        <ele>1946.33</ele>
        <time>2016-10-09T08:23:24Z</time>
      </trkpt>
      <trkpt lat="44.66465" lon="6.02519">
        <ele>1946.33</ele>
        <time>2016-10-09T08:23:34Z</time>
      </trkpt>
      <trkpt lat="44.66457" lon="6.02504">
        <ele>1946.33</ele>
        <time>2016-10-09T08:23:47Z</time>
      </trkpt>
      <trkpt lat="44.66457" lon="6.02499">
        <ele>1945.85</ele>
        <time>2016-10-09T08:23:50Z</time>
      </trkpt>
      <trkpt lat="44.6645" lon="6.0248">
        <ele>1945.36</ele>
        <time>2016-10-09T08:24:03Z</time>
      </trkpt>
      <trkpt lat="44.66441" lon="6.02463">
        <ele>1945.36</ele>
        <time>2016-10-09T08:24:15Z</time>
      </trkpt>
      <trkpt lat="44.66435" lon="6.02455">
        <ele>1945.85</ele>
        <time>2016-10-09T08:24:26Z</time>
      </trkpt>
      <trkpt lat="44.66429" lon="6.02448">
        <ele>1946.33</ele>
        <time>2016-10-09T08:24:32Z</time>
      </trkpt>
      <trkpt lat="44.66421" lon="6.0243">
        <ele>1947.29</ele>
        <time>2016-10-09T08:24:45Z</time>
      </trkpt>
      <trkpt lat="44.66414" lon="6.02414">
        <ele>1948.25</ele>
        <time>2016-10-09T08:24:57Z</time>
      </trkpt>
      <trkpt lat="44.66411" lon="6.02401">
        <ele>1950.17</ele>
        <time>2016-10-09T08:25:08Z</time>
      </trkpt>
      <trkpt lat="44.6641" lon="6.02397">
        <ele>1951.13</ele>
        <time>2016-10-09T08:25:12Z</time>
      </trkpt>
      <trkpt lat="44.66408" lon="6.02394">
        <ele>1951.13</ele>
        <time>2016-10-09T08:25:15Z</time>
      </trkpt>
      <trkpt lat="44.66404" lon="6.02378">
        <ele>1953.06</ele>
        <time>2016-10-09T08:25:28Z</time>
      </trkpt>
      <trkpt lat="44.66403" lon="6.02367">
        <ele>1954.98</ele>
        <time>2016-10-09T08:25:39Z</time>
      </trkpt>
      <trkpt lat="44.66402" lon="6.02363">
        <ele>1955.46</ele>
        <time>2016-10-09T08:25:42Z</time>
      </trkpt>
      <trkpt lat="44.664" lon="6.02358">
        <ele>1956.42</ele>
        <time>2016-10-09T08:25:48Z</time>
      </trkpt>
      <trkpt lat="44.66397" lon="6.02345">
        <ele>1959.3</ele>
        <time>2016-10-09T08:26:01Z</time>
      </trkpt>
      <trkpt lat="44.66395" lon="6.02335">
        <ele>1961.71</ele>
        <time>2016-10-09T08:26:13Z</time>
      </trkpt>
      <trkpt lat="44.66395" lon="6.02329">
        <ele>1963.15</ele>
        <time>2016-10-09T08:26:18Z</time>
      </trkpt>
      <trkpt lat="44.66389" lon="6.02314">
        <ele>1964.11</ele>
        <time>2016-10-09T08:26:31Z</time>
      </trkpt>
      <trkpt lat="44.66388" lon="6.02309">
        <ele>1964.59</ele>
        <time>2016-10-09T08:26:40Z</time>
      </trkpt>
      <trkpt lat="44.66383" lon="6.02308">
        <ele>1964.11</ele>
        <time>2016-10-09T08:26:51Z</time>
      </trkpt>
      <trkpt lat="44.66384" lon="6.0231">
        <ele>1964.59</ele>
        <time>2016-10-09T08:27:09Z</time>
      </trkpt>
      <trkpt lat="44.66383" lon="6.0231">
        <ele>1964.59</ele>
        <time>2016-10-09T08:27:36Z</time>
      </trkpt>
      <trkpt lat="44.66383" lon="6.0231">
        <ele>1964.59</ele>
        <time>2016-10-09T08:28:01Z</time>
      </trkpt>
      <trkpt lat="44.66377" lon="6.02305">
        <ele>1964.11</ele>
        <time>2016-10-09T08:28:15Z</time>
      </trkpt>
      <trkpt lat="44.66372" lon="6.02301">
        <ele>1962.67</ele>
        <time>2016-10-09T08:28:23Z</time>
      </trkpt>
      <trkpt lat="44.66367" lon="6.02295">
        <ele>1960.75</ele>
        <time>2016-10-09T08:28:30Z</time>
      </trkpt>
      <trkpt lat="44.66363" lon="6.02291">
        <ele>1960.27</ele>
        <time>2016-10-09T08:28:42Z</time>
      </trkpt>
      <trkpt lat="44.66364" lon="6.02291">
        <ele>1960.27</ele>
        <time>2016-10-09T08:29:03Z</time>
      </trkpt>
      <trkpt lat="44.66365" lon="6.02293">
        <ele>1960.75</ele>
        <time>2016-10-09T08:29:32Z</time>
      </trkpt>
      <trkpt lat="44.66365" lon="6.02293">
        <ele>1960.27</ele>
        <time>2016-10-09T08:29:57Z</time>
      </trkpt>
      <trkpt lat="44.66364" lon="6.02293">
        <ele>1960.27</ele>
        <time>2016-10-09T08:30:23Z</time>
      </trkpt>
      <trkpt lat="44.66364" lon="6.02293">
        <ele>1960.27</ele>
        <time>2016-10-09T08:30:53Z</time>
      </trkpt>
      <trkpt lat="44.66364" lon="6.02293">
        <ele>1960.27</ele>
        <time>2016-10-09T08:31:25Z</time>
      </trkpt>
      <trkpt lat="44.66364" lon="6.02293">
        <ele>1960.27</ele>
        <time>2016-10-09T08:31:49Z</time>
      </trkpt>
      <trkpt lat="44.66357" lon="6.02285">
        <ele>1960.27</ele>
        <time>2016-10-09T08:32:07Z</time>
      </trkpt>
      <trkpt lat="44.66349" lon="6.02268">
        <ele>1959.78</ele>
        <time>2016-10-09T08:32:21Z</time>
      </trkpt>
      <trkpt lat="44.66345" lon="6.02261">
        <ele>1959.78</ele>
        <time>2016-10-09T08:32:27Z</time>
      </trkpt>
      <trkpt lat="44.66333" lon="6.02249">
        <ele>1957.86</ele>
        <time>2016-10-09T08:32:41Z</time>
      </trkpt>
      <trkpt lat="44.66323" lon="6.02243">
        <ele>1955.94</ele>
        <time>2016-10-09T08:32:51Z</time>
      </trkpt>
      <trkpt lat="44.66314" lon="6.02233">
        <ele>1954.02</ele>
        <time>2016-10-09T08:33:02Z</time>
      </trkpt>
      <trkpt lat="44.66313" lon="6.02231">
        <ele>1954.02</ele>
        <time>2016-10-09T08:33:04Z</time>
      </trkpt>
      <trkpt lat="44.66307" lon="6.02227">
        <ele>1950.17</ele>
        <time>2016-10-09T08:33:16Z</time>
      </trkpt>
      <trkpt lat="44.66298" lon="6.02221">
        <ele>1946.81</ele>
        <time>2016-10-09T08:33:28Z</time>
      </trkpt>
      <trkpt lat="44.66291" lon="6.02212">
        <ele>1943.92</ele>
        <time>2016-10-09T08:33:40Z</time>
      </trkpt>
      <trkpt lat="44.66281" lon="6.02198">
        <ele>1942.48</ele>
        <time>2016-10-09T08:33:53Z</time>
      </trkpt>
      <trkpt lat="44.66272" lon="6.02184">
        <ele>1941.52</ele>
        <time>2016-10-09T08:34:05Z</time>
      </trkpt>
      <trkpt lat="44.66263" lon="6.0217">
        <ele>1941.04</ele>
        <time>2016-10-09T08:34:16Z</time>
      </trkpt>
      <trkpt lat="44.66254" lon="6.02158">
        <ele>1940.08</ele>
        <time>2016-10-09T08:34:26Z</time>
      </trkpt>
      <trkpt lat="44.6625" lon="6.02156">
        <ele>1939.6</ele>
        <time>2016-10-09T08:34:29Z</time>
      </trkpt>
      <trkpt lat="44.66238" lon="6.02145">
        <ele>1939.6</ele>
        <time>2016-10-09T08:34:41Z</time>
      </trkpt>
      <trkpt lat="44.66234" lon="6.02144">
        <ele>1939.12</ele>
        <time>2016-10-09T08:34:51Z</time>
      </trkpt>
      <trkpt lat="44.66222" lon="6.02134">
        <ele>1938.64</ele>
        <time>2016-10-09T08:35:01Z</time>
      </trkpt>
      <trkpt lat="44.66215" lon="6.02129">
        <ele>1939.6</ele>
        <time>2016-10-09T08:35:05Z</time>
      </trkpt>
      <trkpt lat="44.66203" lon="6.02122">
        <ele>1939.6</ele>
        <time>2016-10-09T08:35:17Z</time>
      </trkpt>
      <trkpt lat="44.66191" lon="6.02111">
        <ele>1941.04</ele>
        <time>2016-10-09T08:35:28Z</time>
      </trkpt>
      <trkpt lat="44.66187" lon="6.02105">
        <ele>1942</ele>
        <time>2016-10-09T08:35:36Z</time>
      </trkpt>
      <trkpt lat="44.66182" lon="6.02096">
        <ele>1944.4</ele>
        <time>2016-10-09T08:35:44Z</time>
      </trkpt>
      <trkpt lat="44.66176" lon="6.02085">
        <ele>1947.29</ele>
        <time>2016-10-09T08:35:56Z</time>
      </trkpt>
      <trkpt lat="44.6617" lon="6.02076">
        <ele>1949.21</ele>
        <time>2016-10-09T08:36:06Z</time>
      </trkpt>
      <trkpt lat="44.66163" lon="6.02068">
        <ele>1951.61</ele>
        <time>2016-10-09T08:36:17Z</time>
      </trkpt>
      <trkpt lat="44.6616" lon="6.02064">
        <ele>1953.54</ele>
        <time>2016-10-09T08:36:26Z</time>
      </trkpt>
      <trkpt lat="44.66156" lon="6.02064">
        <ele>1953.54</ele>
        <time>2016-10-09T08:36:29Z</time>
      </trkpt>
      <trkpt lat="44.66149" lon="6.02056">
        <ele>1954.98</ele>
        <time>2016-10-09T08:36:39Z</time>
      </trkpt>
      <trkpt lat="44.66141" lon="6.0205">
        <ele>1956.42</ele>
        <time>2016-10-09T08:36:48Z</time>
      </trkpt>
      <trkpt lat="44.66135" lon="6.02046">
        <ele>1957.86</ele>
        <time>2016-10-09T08:36:54Z</time>
      </trkpt>
      <trkpt lat="44.66131" lon="6.02042">
        <ele>1959.3</ele>
        <time>2016-10-09T08:37:03Z</time>
      </trkpt>
      <trkpt lat="44.66124" lon="6.02033">
        <ele>1961.71</ele>
        <time>2016-10-09T08:37:13Z</time>
      </trkpt>
      <trkpt lat="44.66119" lon="6.02026">
        <ele>1964.11</ele>
        <time>2016-10-09T08:37:24Z</time>
      </trkpt>
      <trkpt lat="44.66113" lon="6.0202">
        <ele>1966.03</ele>
        <time>2016-10-09T08:37:33Z</time>
      </trkpt>
      <trkpt lat="44.66108" lon="6.02013">
        <ele>1968.44</ele>
        <time>2016-10-09T08:37:43Z</time>
      </trkpt>
      <trkpt lat="44.66106" lon="6.0201">
        <ele>1969.88</ele>
        <time>2016-10-09T08:37:48Z</time>
      </trkpt>
      <trkpt lat="44.66099" lon="6.02004">
        <ele>1971.32</ele>
        <time>2016-10-09T08:37:57Z</time>
      </trkpt>
      <trkpt lat="44.66094" lon="6.02">
        <ele>1973.24</ele>
        <time>2016-10-09T08:38:07Z</time>
      </trkpt>
      <trkpt lat="44.66088" lon="6.01993">
        <ele>1975.65</ele>
        <time>2016-10-09T08:38:18Z</time>
      </trkpt>
      <trkpt lat="44.6608" lon="6.01988">
        <ele>1976.61</ele>
        <time>2016-10-09T08:38:28Z</time>
      </trkpt>
      <trkpt lat="44.66076" lon="6.01987">
        <ele>1977.09</ele>
        <time>2016-10-09T08:38:32Z</time>
      </trkpt>
      <trkpt lat="44.66072" lon="6.01977">
        <ele>1979.49</ele>
        <time>2016-10-09T08:38:46Z</time>
      </trkpt>
      <trkpt lat="44.66068" lon="6.0197">
        <ele>1981.9</ele>
        <time>2016-10-09T08:38:57Z</time>
      </trkpt>
      <trkpt lat="44.66062" lon="6.0196">
        <ele>1983.82</ele>
        <time>2016-10-09T08:39:07Z</time>
      </trkpt>
      <trkpt lat="44.66058" lon="6.01955">
        <ele>1985.26</ele>
        <time>2016-10-09T08:39:15Z</time>
      </trkpt>
      <trkpt lat="44.66053" lon="6.01949">
        <ele>1986.22</ele>
        <time>2016-10-09T08:39:24Z</time>
      </trkpt>
      <trkpt lat="44.6605" lon="6.01947">
        <ele>1987.18</ele>
        <time>2016-10-09T08:39:27Z</time>
      </trkpt>
      <trkpt lat="44.66046" lon="6.01942">
        <ele>1989.1</ele>
        <time>2016-10-09T08:39:36Z</time>
      </trkpt>
      <trkpt lat="44.6604" lon="6.01935">
        <ele>1991.03</ele>
        <time>2016-10-09T08:39:47Z</time>
      </trkpt>
      <trkpt lat="44.66041" lon="6.01932">
        <ele>1992.95</ele>
        <time>2016-10-09T08:39:57Z</time>
      </trkpt>
      <trkpt lat="44.66037" lon="6.01925">
        <ele>1995.35</ele>
        <time>2016-10-09T08:40:09Z</time>
      </trkpt>
      <trkpt lat="44.66036" lon="6.01924">
        <ele>1995.35</ele>
        <time>2016-10-09T08:40:11Z</time>
      </trkpt>
      <trkpt lat="44.66034" lon="6.01918">
        <ele>1997.76</ele>
        <time>2016-10-09T08:40:21Z</time>
      </trkpt>
      <trkpt lat="44.66032" lon="6.01917">
        <ele>1998.24</ele>
        <time>2016-10-09T08:40:24Z</time>
      </trkpt>
      <trkpt lat="44.6603" lon="6.01909">
        <ele>2000.64</ele>
        <time>2016-10-09T08:40:35Z</time>
      </trkpt>
      <trkpt lat="44.66028" lon="6.01903">
        <ele>2002.08</ele>
        <time>2016-10-09T08:40:44Z</time>
      </trkpt>
      <trkpt lat="44.66026" lon="6.01898">
        <ele>2004.49</ele>
        <time>2016-10-09T08:40:56Z</time>
      </trkpt>
      <trkpt lat="44.66025" lon="6.01894">
        <ele>2005.93</ele>
        <time>2016-10-09T08:41:05Z</time>
      </trkpt>
      <trkpt lat="44.66022" lon="6.01892">
        <ele>2007.85</ele>
        <time>2016-10-09T08:41:14Z</time>
      </trkpt>
      <trkpt lat="44.66019" lon="6.01887">
        <ele>2009.77</ele>
        <time>2016-10-09T08:41:24Z</time>
      </trkpt>
      <trkpt lat="44.66018" lon="6.01883">
        <ele>2011.7</ele>
        <time>2016-10-09T08:41:36Z</time>
      </trkpt>
      <trkpt lat="44.66015" lon="6.01876">
        <ele>2014.58</ele>
        <time>2016-10-09T08:41:48Z</time>
      </trkpt>
      <trkpt lat="44.66012" lon="6.01871">
        <ele>2015.54</ele>
        <time>2016-10-09T08:41:56Z</time>
      </trkpt>
      <trkpt lat="44.6601" lon="6.01868">
        <ele>2017.46</ele>
        <time>2016-10-09T08:42:05Z</time>
      </trkpt>
      <trkpt lat="44.66009" lon="6.01863">
        <ele>2018.91</ele>
        <time>2016-10-09T08:42:10Z</time>
      </trkpt>
      <trkpt lat="44.66005" lon="6.0186">
        <ele>2021.31</ele>
        <time>2016-10-09T08:42:22Z</time>
      </trkpt>
      <trkpt lat="44.66003" lon="6.01856">
        <ele>2023.23</ele>
        <time>2016-10-09T08:42:31Z</time>
      </trkpt>
      <trkpt lat="44.66002" lon="6.01852">
        <ele>2025.64</ele>
        <time>2016-10-09T08:42:41Z</time>
      </trkpt>
      <trkpt lat="44.65997" lon="6.01847">
        <ele>2027.56</ele>
        <time>2016-10-09T08:42:50Z</time>
      </trkpt>
      <trkpt lat="44.65992" lon="6.01839">
        <ele>2029.48</ele>
        <time>2016-10-09T08:43:02Z</time>
      </trkpt>
      <trkpt lat="44.65991" lon="6.01839">
        <ele>2029.96</ele>
        <time>2016-10-09T08:43:05Z</time>
      </trkpt>
      <trkpt lat="44.65988" lon="6.01837">
        <ele>2030.44</ele>
        <time>2016-10-09T08:43:14Z</time>
      </trkpt>
      <trkpt lat="44.65988" lon="6.01834">
        <ele>2030.92</ele>
        <time>2016-10-09T08:43:16Z</time>
      </trkpt>
      <trkpt lat="44.65984" lon="6.0183">
        <ele>2033.33</ele>
        <time>2016-10-09T08:43:25Z</time>
      </trkpt>
      <trkpt lat="44.65984" lon="6.01829">
        <ele>2033.33</ele>
        <time>2016-10-09T08:43:28Z</time>
      </trkpt>
      <trkpt lat="44.6598" lon="6.01827">
        <ele>2035.25</ele>
        <time>2016-10-09T08:43:39Z</time>
      </trkpt>
      <trkpt lat="44.65976" lon="6.01824">
        <ele>2037.17</ele>
        <time>2016-10-09T08:43:47Z</time>
      </trkpt>
      <trkpt lat="44.6597" lon="6.01822">
        <ele>2039.09</ele>
        <time>2016-10-09T08:43:57Z</time>
      </trkpt>
      <trkpt lat="44.65966" lon="6.01813">
        <ele>2041.5</ele>
        <time>2016-10-09T08:44:09Z</time>
      </trkpt>
      <trkpt lat="44.65966" lon="6.01812">
        <ele>2041.5</ele>
        <time>2016-10-09T08:44:10Z</time>
      </trkpt>
      <trkpt lat="44.65965" lon="6.01811">
        <ele>2042.46</ele>
        <time>2016-10-09T08:44:13Z</time>
      </trkpt>
      <trkpt lat="44.65961" lon="6.01805">
        <ele>2044.38</ele>
        <time>2016-10-09T08:44:23Z</time>
      </trkpt>
      <trkpt lat="44.65957" lon="6.01802">
        <ele>2046.3</ele>
        <time>2016-10-09T08:44:34Z</time>
      </trkpt>
      <trkpt lat="44.65952" lon="6.01797">
        <ele>2047.26</ele>
        <time>2016-10-09T08:44:44Z</time>
      </trkpt>
      <trkpt lat="44.65947" lon="6.0179">
        <ele>2049.19</ele>
        <time>2016-10-09T08:44:56Z</time>
      </trkpt>
      <trkpt lat="44.65944" lon="6.01786">
        <ele>2051.11</ele>
        <time>2016-10-09T08:45:06Z</time>
      </trkpt>
      <trkpt lat="44.65939" lon="6.01782">
        <ele>2052.55</ele>
        <time>2016-10-09T08:45:15Z</time>
      </trkpt>
      <trkpt lat="44.65938" lon="6.01777">
        <ele>2053.51</ele>
        <time>2016-10-09T08:45:21Z</time>
      </trkpt>
      <trkpt lat="44.65936" lon="6.01766">
        <ele>2055.92</ele>
        <time>2016-10-09T08:45:34Z</time>
      </trkpt>
      <trkpt lat="44.65931" lon="6.01755">
        <ele>2057.36</ele>
        <time>2016-10-09T08:45:47Z</time>
      </trkpt>
      <trkpt lat="44.6593" lon="6.01743">
        <ele>2058.8</ele>
        <time>2016-10-09T08:46:01Z</time>
      </trkpt>
      <trkpt lat="44.65929" lon="6.01739">
        <ele>2058.8</ele>
        <time>2016-10-09T08:46:17Z</time>
      </trkpt>
      <trkpt lat="44.65929" lon="6.01739">
        <ele>2059.28</ele>
        <time>2016-10-09T08:46:30Z</time>
      </trkpt>
      <trkpt lat="44.65929" lon="6.01739">
        <ele>2059.28</ele>
        <time>2016-10-09T08:46:57Z</time>
      </trkpt>
      <trkpt lat="44.65929" lon="6.0174">
        <ele>2059.76</ele>
        <time>2016-10-09T08:47:26Z</time>
      </trkpt>
      <trkpt lat="44.65929" lon="6.0174">
        <ele>2059.76</ele>
        <time>2016-10-09T08:47:55Z</time>
      </trkpt>
      <trkpt lat="44.65929" lon="6.01741">
        <ele>2059.28</ele>
        <time>2016-10-09T08:48:24Z</time>
      </trkpt>
      <trkpt lat="44.65929" lon="6.01741">
        <ele>2059.28</ele>
        <time>2016-10-09T08:48:51Z</time>
      </trkpt>
      <trkpt lat="44.65928" lon="6.01737">
        <ele>2058.8</ele>
        <time>2016-10-09T08:49:06Z</time>
      </trkpt>
      <trkpt lat="44.65928" lon="6.01738">
        <ele>2058.8</ele>
        <time>2016-10-09T08:49:34Z</time>
      </trkpt>
      <trkpt lat="44.65928" lon="6.01736">
        <ele>2058.8</ele>
        <time>2016-10-09T08:49:50Z</time>
      </trkpt>
      <trkpt lat="44.65928" lon="6.01736">
        <ele>2058.8</ele>
        <time>2016-10-09T08:50:20Z</time>
      </trkpt>
      <trkpt lat="44.65928" lon="6.01736">
        <ele>2058.8</ele>
        <time>2016-10-09T08:50:51Z</time>
      </trkpt>
      <trkpt lat="44.65928" lon="6.01736">
        <ele>2058.8</ele>
        <time>2016-10-09T08:51:23Z</time>
      </trkpt>
      <trkpt lat="44.65928" lon="6.01736">
        <ele>2058.8</ele>
        <time>2016-10-09T08:51:54Z</time>
      </trkpt>
      <trkpt lat="44.65928" lon="6.01736">
        <ele>2058.8</ele>
        <time>2016-10-09T08:52:24Z</time>
      </trkpt>
      <trkpt lat="44.65928" lon="6.01736">
        <ele>2059.28</ele>
        <time>2016-10-09T08:52:54Z</time>
      </trkpt>
      <trkpt lat="44.65928" lon="6.01736">
        <ele>2059.28</ele>
        <time>2016-10-09T08:53:27Z</time>
      </trkpt>
      <trkpt lat="44.65928" lon="6.01736">
        <ele>2059.28</ele>
        <time>2016-10-09T08:54:02Z</time>
      </trkpt>
      <trkpt lat="44.65928" lon="6.01736">
        <ele>2059.28</ele>
        <time>2016-10-09T08:54:33Z</time>
      </trkpt>
      <trkpt lat="44.65928" lon="6.01736">
        <ele>2059.28</ele>
        <time>2016-10-09T08:55:06Z</time>
      </trkpt>
      <trkpt lat="44.65928" lon="6.01736">
        <ele>2059.28</ele>
        <time>2016-10-09T08:55:35Z</time>
      </trkpt>
      <trkpt lat="44.65929" lon="6.01741">
        <ele>2059.76</ele>
        <time>2016-10-09T08:55:49Z</time>
      </trkpt>
      <trkpt lat="44.65929" lon="6.01741">
        <ele>2059.76</ele>
        <time>2016-10-09T08:55:51Z</time>
      </trkpt>
      <trkpt lat="44.6593" lon="6.0175">
        <ele>2059.28</ele>
        <time>2016-10-09T08:55:58Z</time>
      </trkpt>
      <trkpt lat="44.65933" lon="6.01762">
        <ele>2057.84</ele>
        <time>2016-10-09T08:56:09Z</time>
      </trkpt>
      <trkpt lat="44.65934" lon="6.01766">
        <ele>2057.36</ele>
        <time>2016-10-09T08:56:13Z</time>
      </trkpt>
      <trkpt lat="44.65936" lon="6.0177">
        <ele>2056.88</ele>
        <time>2016-10-09T08:56:17Z</time>
      </trkpt>
      <trkpt lat="44.65943" lon="6.01781">
        <ele>2054.47</ele>
        <time>2016-10-09T08:56:28Z</time>
      </trkpt>
      <trkpt lat="44.65951" lon="6.01793">
        <ele>2051.11</ele>
        <time>2016-10-09T08:56:41Z</time>
      </trkpt>
      <trkpt lat="44.65958" lon="6.01798">
        <ele>2049.19</ele>
        <time>2016-10-09T08:56:53Z</time>
      </trkpt>
      <trkpt lat="44.65961" lon="6.01802">
        <ele>2047.75</ele>
        <time>2016-10-09T08:56:58Z</time>
      </trkpt>
      <trkpt lat="44.65968" lon="6.01812">
        <ele>2044.38</ele>
        <time>2016-10-09T08:57:12Z</time>
      </trkpt>
      <trkpt lat="44.65973" lon="6.01819">
        <ele>2041.5</ele>
        <time>2016-10-09T08:57:24Z</time>
      </trkpt>
      <trkpt lat="44.65979" lon="6.01824">
        <ele>2038.61</ele>
        <time>2016-10-09T08:57:36Z</time>
      </trkpt>
      <trkpt lat="44.65983" lon="6.01827">
        <ele>2037.17</ele>
        <time>2016-10-09T08:57:41Z</time>
      </trkpt>
      <trkpt lat="44.65989" lon="6.01834">
        <ele>2033.81</ele>
        <time>2016-10-09T08:57:54Z</time>
      </trkpt>
      <trkpt lat="44.65997" lon="6.01843">
        <ele>2030.92</ele>
        <time>2016-10-09T08:58:05Z</time>
      </trkpt>
      <trkpt lat="44.66003" lon="6.0185">
        <ele>2027.56</ele>
        <time>2016-10-09T08:58:17Z</time>
      </trkpt>
      <trkpt lat="44.66005" lon="6.01858">
        <ele>2024.19</ele>
        <time>2016-10-09T08:58:30Z</time>
      </trkpt>
      <trkpt lat="44.66006" lon="6.01859">
        <ele>2023.71</ele>
        <time>2016-10-09T08:58:32Z</time>
      </trkpt>
      <trkpt lat="44.66012" lon="6.01867">
        <ele>2020.83</ele>
        <time>2016-10-09T08:58:45Z</time>
      </trkpt>
      <trkpt lat="44.66015" lon="6.01873">
        <ele>2017.94</ele>
        <time>2016-10-09T08:58:54Z</time>
      </trkpt>
      <trkpt lat="44.66016" lon="6.01874">
        <ele>2017.46</ele>
        <time>2016-10-09T08:58:55Z</time>
      </trkpt>
      <trkpt lat="44.66022" lon="6.01881">
        <ele>2014.58</ele>
        <time>2016-10-09T08:59:08Z</time>
      </trkpt>
      <trkpt lat="44.66022" lon="6.01888">
        <ele>2011.22</ele>
        <time>2016-10-09T08:59:18Z</time>
      </trkpt>
      <trkpt lat="44.66022" lon="6.01889">
        <ele>2010.73</ele>
        <time>2016-10-09T08:59:19Z</time>
      </trkpt>
      <trkpt lat="44.66028" lon="6.01899">
        <ele>2007.37</ele>
        <time>2016-10-09T08:59:30Z</time>
      </trkpt>
      <trkpt lat="44.66031" lon="6.01906">
        <ele>2004.49</ele>
        <time>2016-10-09T08:59:42Z</time>
      </trkpt>
      <trkpt lat="44.66037" lon="6.01915">
        <ele>2001.12</ele>
        <time>2016-10-09T08:59:53Z</time>
      </trkpt>
      <trkpt lat="44.66039" lon="6.01918">
        <ele>2000.16</ele>
        <time>2016-10-09T08:59:59Z</time>
      </trkpt>
      <trkpt lat="44.66038" lon="6.01922">
        <ele>1998.72</ele>
        <time>2016-10-09T09:00:04Z</time>
      </trkpt>
      <trkpt lat="44.66043" lon="6.01932">
        <ele>1995.35</ele>
        <time>2016-10-09T09:00:16Z</time>
      </trkpt>
      <trkpt lat="44.6605" lon="6.01943">
        <ele>1991.99</ele>
        <time>2016-10-09T09:00:28Z</time>
      </trkpt>
      <trkpt lat="44.66052" lon="6.01945">
        <ele>1991.03</ele>
        <time>2016-10-09T09:00:31Z</time>
      </trkpt>
      <trkpt lat="44.66055" lon="6.0195">
        <ele>1989.59</ele>
        <time>2016-10-09T09:00:37Z</time>
      </trkpt>
      <trkpt lat="44.66065" lon="6.01965">
        <ele>1986.22</ele>
        <time>2016-10-09T09:00:50Z</time>
      </trkpt>
      <trkpt lat="44.66073" lon="6.01978">
        <ele>1982.86</ele>
        <time>2016-10-09T09:01:03Z</time>
      </trkpt>
      <trkpt lat="44.66075" lon="6.01985">
        <ele>1980.93</ele>
        <time>2016-10-09T09:01:11Z</time>
      </trkpt>
      <trkpt lat="44.6608" lon="6.0199">
        <ele>1979.97</ele>
        <time>2016-10-09T09:01:19Z</time>
      </trkpt>
      <trkpt lat="44.66086" lon="6.01989">
        <ele>1979.01</ele>
        <time>2016-10-09T09:01:24Z</time>
      </trkpt>
      <trkpt lat="44.66097" lon="6.02">
        <ele>1976.13</ele>
        <time>2016-10-09T09:01:38Z</time>
      </trkpt>
      <trkpt lat="44.66106" lon="6.0201">
        <ele>1973.24</ele>
        <time>2016-10-09T09:01:50Z</time>
      </trkpt>
      <trkpt lat="44.66113" lon="6.02019">
        <ele>1970.36</ele>
        <time>2016-10-09T09:02:01Z</time>
      </trkpt>
      <trkpt lat="44.6612" lon="6.0203">
        <ele>1967.48</ele>
        <time>2016-10-09T09:02:11Z</time>
      </trkpt>
      <trkpt lat="44.66127" lon="6.02038">
        <ele>1964.11</ele>
        <time>2016-10-09T09:02:20Z</time>
      </trkpt>
      <trkpt lat="44.66139" lon="6.02052">
        <ele>1961.23</ele>
        <time>2016-10-09T09:02:34Z</time>
      </trkpt>
      <trkpt lat="44.66147" lon="6.02061">
        <ele>1957.86</ele>
        <time>2016-10-09T09:02:46Z</time>
      </trkpt>
      <trkpt lat="44.66159" lon="6.02069">
        <ele>1955.46</ele>
        <time>2016-10-09T09:02:58Z</time>
      </trkpt>
      <trkpt lat="44.66161" lon="6.02073">
        <ele>1954.5</ele>
        <time>2016-10-09T09:03:02Z</time>
      </trkpt>
      <trkpt lat="44.66169" lon="6.02079">
        <ele>1952.09</ele>
        <time>2016-10-09T09:03:13Z</time>
      </trkpt>
      <trkpt lat="44.66179" lon="6.02092">
        <ele>1949.21</ele>
        <time>2016-10-09T09:03:27Z</time>
      </trkpt>
      <trkpt lat="44.66189" lon="6.02101">
        <ele>1945.85</ele>
        <time>2016-10-09T09:03:38Z</time>
      </trkpt>
      <trkpt lat="44.662" lon="6.02115">
        <ele>1943.44</ele>
        <time>2016-10-09T09:03:51Z</time>
      </trkpt>
      <trkpt lat="44.66213" lon="6.02124">
        <ele>1942.48</ele>
        <time>2016-10-09T09:04:02Z</time>
      </trkpt>
      <trkpt lat="44.66226" lon="6.02139">
        <ele>1942</ele>
        <time>2016-10-09T09:04:15Z</time>
      </trkpt>
      <trkpt lat="44.66237" lon="6.02151">
        <ele>1941.52</ele>
        <time>2016-10-09T09:04:28Z</time>
      </trkpt>
      <trkpt lat="44.66241" lon="6.02155">
        <ele>1941.52</ele>
        <time>2016-10-09T09:04:31Z</time>
      </trkpt>
      <trkpt lat="44.66249" lon="6.02165">
        <ele>1940.56</ele>
        <time>2016-10-09T09:04:41Z</time>
      </trkpt>
      <trkpt lat="44.66257" lon="6.0218">
        <ele>1940.56</ele>
        <time>2016-10-09T09:04:51Z</time>
      </trkpt>
      <trkpt lat="44.66272" lon="6.02195">
        <ele>1940.56</ele>
        <time>2016-10-09T09:05:04Z</time>
      </trkpt>
      <trkpt lat="44.66279" lon="6.02206">
        <ele>1941.04</ele>
        <time>2016-10-09T09:05:15Z</time>
      </trkpt>
      <trkpt lat="44.66289" lon="6.02223">
        <ele>1942.96</ele>
        <time>2016-10-09T09:05:29Z</time>
      </trkpt>
      <trkpt lat="44.66296" lon="6.02235">
        <ele>1943.92</ele>
        <time>2016-10-09T09:05:42Z</time>
      </trkpt>
      <trkpt lat="44.66303" lon="6.02251">
        <ele>1944.4</ele>
        <time>2016-10-09T09:05:56Z</time>
      </trkpt>
      <trkpt lat="44.66303" lon="6.02253">
        <ele>1944.4</ele>
        <time>2016-10-09T09:05:57Z</time>
      </trkpt>
      <trkpt lat="44.66305" lon="6.02259">
        <ele>1944.4</ele>
        <time>2016-10-09T09:06:01Z</time>
      </trkpt>
      <trkpt lat="44.66311" lon="6.02272">
        <ele>1944.88</ele>
        <time>2016-10-09T09:06:15Z</time>
      </trkpt>
      <trkpt lat="44.66319" lon="6.02285">
        <ele>1946.33</ele>
        <time>2016-10-09T09:06:27Z</time>
      </trkpt>
      <trkpt lat="44.66323" lon="6.02291">
        <ele>1945.36</ele>
        <time>2016-10-09T09:06:33Z</time>
      </trkpt>
      <trkpt lat="44.66326" lon="6.023">
        <ele>1945.36</ele>
        <time>2016-10-09T09:06:38Z</time>
      </trkpt>
      <trkpt lat="44.66332" lon="6.02306">
        <ele>1945.36</ele>
        <time>2016-10-09T09:06:46Z</time>
      </trkpt>
      <trkpt lat="44.6634" lon="6.0232">
        <ele>1945.85</ele>
        <time>2016-10-09T09:06:58Z</time>
      </trkpt>
      <trkpt lat="44.66344" lon="6.02325">
        <ele>1945.85</ele>
        <time>2016-10-09T09:07:03Z</time>
      </trkpt>
      <trkpt lat="44.66354" lon="6.02341">
        <ele>1945.85</ele>
        <time>2016-10-09T09:07:15Z</time>
      </trkpt>
      <trkpt lat="44.66359" lon="6.02347">
        <ele>1945.85</ele>
        <time>2016-10-09T09:07:21Z</time>
      </trkpt>
      <trkpt lat="44.66367" lon="6.02366">
        <ele>1945.85</ele>
        <time>2016-10-09T09:07:33Z</time>
      </trkpt>
      <trkpt lat="44.66369" lon="6.0237">
        <ele>1945.85</ele>
        <time>2016-10-09T09:07:37Z</time>
      </trkpt>
      <trkpt lat="44.66381" lon="6.02383">
        <ele>1945.36</ele>
        <time>2016-10-09T09:07:49Z</time>
      </trkpt>
      <trkpt lat="44.66383" lon="6.02386">
        <ele>1945.36</ele>
        <time>2016-10-09T09:07:52Z</time>
      </trkpt>
      <trkpt lat="44.66385" lon="6.02395">
        <ele>1945.36</ele>
        <time>2016-10-09T09:07:56Z</time>
      </trkpt>
      <trkpt lat="44.66387" lon="6.02404">
        <ele>1945.36</ele>
        <time>2016-10-09T09:08:02Z</time>
      </trkpt>
      <trkpt lat="44.66395" lon="6.0242">
        <ele>1945.36</ele>
        <time>2016-10-09T09:08:14Z</time>
      </trkpt>
      <trkpt lat="44.66402" lon="6.02428">
        <ele>1945.85</ele>
        <time>2016-10-09T09:08:21Z</time>
      </trkpt>
      <trkpt lat="44.66403" lon="6.02432">
        <ele>1945.36</ele>
        <time>2016-10-09T09:08:24Z</time>
      </trkpt>
      <trkpt lat="44.66408" lon="6.0244">
        <ele>1945.36</ele>
        <time>2016-10-09T09:08:29Z</time>
      </trkpt>
      <trkpt lat="44.66419" lon="6.02456">
        <ele>1944.88</ele>
        <time>2016-10-09T09:08:42Z</time>
      </trkpt>
      <trkpt lat="44.66424" lon="6.02461">
        <ele>1944.4</ele>
        <time>2016-10-09T09:08:48Z</time>
      </trkpt>
      <trkpt lat="44.66431" lon="6.02479">
        <ele>1943.92</ele>
        <time>2016-10-09T09:09:00Z</time>
      </trkpt>
      <trkpt lat="44.66434" lon="6.02501">
        <ele>1943.92</ele>
        <time>2016-10-09T09:09:10Z</time>
      </trkpt>
      <trkpt lat="44.66435" lon="6.02516">
        <ele>1943.92</ele>
        <time>2016-10-09T09:09:19Z</time>
      </trkpt>
      <trkpt lat="44.66436" lon="6.02531">
        <ele>1944.4</ele>
        <time>2016-10-09T09:09:28Z</time>
      </trkpt>
      <trkpt lat="44.66436" lon="6.02549">
        <ele>1944.4</ele>
        <time>2016-10-09T09:09:38Z</time>
      </trkpt>
      <trkpt lat="44.66439" lon="6.0256">
        <ele>1944.4</ele>
        <time>2016-10-09T09:09:45Z</time>
      </trkpt>
      <trkpt lat="44.66441" lon="6.02572">
        <ele>1944.4</ele>
        <time>2016-10-09T09:09:52Z</time>
      </trkpt>
      <trkpt lat="44.66447" lon="6.02585">
        <ele>1945.85</ele>
        <time>2016-10-09T09:10:02Z</time>
      </trkpt>
      <trkpt lat="44.66449" lon="6.02587">
        <ele>1945.85</ele>
        <time>2016-10-09T09:10:04Z</time>
      </trkpt>
      <trkpt lat="44.66456" lon="6.026">
        <ele>1948.25</ele>
        <time>2016-10-09T09:10:16Z</time>
      </trkpt>
      <trkpt lat="44.6646" lon="6.02603">
        <ele>1948.25</ele>
        <time>2016-10-09T09:10:20Z</time>
      </trkpt>
      <trkpt lat="44.66463" lon="6.02606">
        <ele>1948.73</ele>
        <time>2016-10-09T09:10:24Z</time>
      </trkpt>
      <trkpt lat="44.66471" lon="6.02619">
        <ele>1949.69</ele>
        <time>2016-10-09T09:10:35Z</time>
      </trkpt>
      <trkpt lat="44.66478" lon="6.02627">
        <ele>1950.17</ele>
        <time>2016-10-09T09:10:43Z</time>
      </trkpt>
      <trkpt lat="44.66484" lon="6.02642">
        <ele>1951.61</ele>
        <time>2016-10-09T09:10:54Z</time>
      </trkpt>
      <trkpt lat="44.66485" lon="6.02649">
        <ele>1952.09</ele>
        <time>2016-10-09T09:11:06Z</time>
      </trkpt>
      <trkpt lat="44.66486" lon="6.02654">
        <ele>1952.09</ele>
        <time>2016-10-09T09:11:09Z</time>
      </trkpt>
      <trkpt lat="44.66483" lon="6.0267">
        <ele>1952.57</ele>
        <time>2016-10-09T09:11:21Z</time>
      </trkpt>
      <trkpt lat="44.66476" lon="6.02682">
        <ele>1954.02</ele>
        <time>2016-10-09T09:11:30Z</time>
      </trkpt>
      <trkpt lat="44.66475" lon="6.02684">
        <ele>1954.5</ele>
        <time>2016-10-09T09:11:32Z</time>
      </trkpt>
      <trkpt lat="44.66473" lon="6.02692">
        <ele>1955.46</ele>
        <time>2016-10-09T09:11:39Z</time>
      </trkpt>
      <trkpt lat="44.66469" lon="6.02694">
        <ele>1955.94</ele>
        <time>2016-10-09T09:11:44Z</time>
      </trkpt>
      <trkpt lat="44.66468" lon="6.02703">
        <ele>1957.38</ele>
        <time>2016-10-09T09:11:50Z</time>
      </trkpt>
      <trkpt lat="44.66461" lon="6.02706">
        <ele>1958.34</ele>
        <time>2016-10-09T09:11:59Z</time>
      </trkpt>
      <trkpt lat="44.66454" lon="6.02713">
        <ele>1960.27</ele>
        <time>2016-10-09T09:12:10Z</time>
      </trkpt>
      <trkpt lat="44.6645" lon="6.02719">
        <ele>1962.19</ele>
        <time>2016-10-09T09:12:19Z</time>
      </trkpt>
      <trkpt lat="44.66451" lon="6.02721">
        <ele>1962.67</ele>
        <time>2016-10-09T09:12:23Z</time>
      </trkpt>
      <trkpt lat="44.66458" lon="6.02731">
        <ele>1964.11</ele>
        <time>2016-10-09T09:12:37Z</time>
      </trkpt>
      <trkpt lat="44.66455" lon="6.02732">
        <ele>1964.59</ele>
        <time>2016-10-09T09:12:40Z</time>
      </trkpt>
      <trkpt lat="44.66448" lon="6.02738">
        <ele>1966.51</ele>
        <time>2016-10-09T09:12:50Z</time>
      </trkpt>
      <trkpt lat="44.66447" lon="6.02739">
        <ele>1966.51</ele>
        <time>2016-10-09T09:12:53Z</time>
      </trkpt>
      <trkpt lat="44.66447" lon="6.02744">
        <ele>1967.48</ele>
        <time>2016-10-09T09:13:00Z</time>
      </trkpt>
      <trkpt lat="44.66453" lon="6.02753">
        <ele>1969.88</ele>
        <time>2016-10-09T09:13:12Z</time>
      </trkpt>
      <trkpt lat="44.66446" lon="6.02762">
        <ele>1971.32</ele>
        <time>2016-10-09T09:13:24Z</time>
      </trkpt>
      <trkpt lat="44.6644" lon="6.02768">
        <ele>1972.76</ele>
        <time>2016-10-09T09:13:34Z</time>
      </trkpt>
      <trkpt lat="44.66435" lon="6.02776">
        <ele>1974.2</ele>
        <time>2016-10-09T09:13:44Z</time>
      </trkpt>
      <trkpt lat="44.66438" lon="6.0278">
        <ele>1975.65</ele>
        <time>2016-10-09T09:13:54Z</time>
      </trkpt>
      <trkpt lat="44.66438" lon="6.02788">
        <ele>1977.57</ele>
        <time>2016-10-09T09:14:06Z</time>
      </trkpt>
      <trkpt lat="44.66436" lon="6.02788">
        <ele>1977.57</ele>
        <time>2016-10-09T09:14:10Z</time>
      </trkpt>
      <trkpt lat="44.66427" lon="6.02794">
        <ele>1979.97</ele>
        <time>2016-10-09T09:14:20Z</time>
      </trkpt>
      <trkpt lat="44.66423" lon="6.02798">
        <ele>1981.41</ele>
        <time>2016-10-09T09:14:33Z</time>
      </trkpt>
      <trkpt lat="44.66427" lon="6.02806">
        <ele>1983.34</ele>
        <time>2016-10-09T09:14:45Z</time>
      </trkpt>
      <trkpt lat="44.66423" lon="6.0281">
        <ele>1984.78</ele>
        <time>2016-10-09T09:14:53Z</time>
      </trkpt>
      <trkpt lat="44.66421" lon="6.02815">
        <ele>1986.22</ele>
        <time>2016-10-09T09:15:03Z</time>
      </trkpt>
      <trkpt lat="44.6642" lon="6.02821">
        <ele>1988.14</ele>
        <time>2016-10-09T09:15:14Z</time>
      </trkpt>
      <trkpt lat="44.66419" lon="6.02827">
        <ele>1990.07</ele>
        <time>2016-10-09T09:15:23Z</time>
      </trkpt>
      <trkpt lat="44.66417" lon="6.02831">
        <ele>1991.99</ele>
        <time>2016-10-09T09:15:32Z</time>
      </trkpt>
      <trkpt lat="44.66415" lon="6.02834">
        <ele>1993.43</ele>
        <time>2016-10-09T09:15:42Z</time>
      </trkpt>
      <trkpt lat="44.66413" lon="6.02838">
        <ele>1994.87</ele>
        <time>2016-10-09T09:15:52Z</time>
      </trkpt>
      <trkpt lat="44.66414" lon="6.0284">
        <ele>1995.83</ele>
        <time>2016-10-09T09:15:58Z</time>
      </trkpt>
      <trkpt lat="44.66414" lon="6.02846">
        <ele>1996.8</ele>
        <time>2016-10-09T09:16:03Z</time>
      </trkpt>
      <trkpt lat="44.66412" lon="6.0285">
        <ele>1997.76</ele>
        <time>2016-10-09T09:16:10Z</time>
      </trkpt>
      <trkpt lat="44.6641" lon="6.02858">
        <ele>1999.68</ele>
        <time>2016-10-09T09:16:22Z</time>
      </trkpt>
      <trkpt lat="44.66408" lon="6.02866">
        <ele>2002.08</ele>
        <time>2016-10-09T09:16:31Z</time>
      </trkpt>
      <trkpt lat="44.66408" lon="6.0287">
        <ele>2003.04</ele>
        <time>2016-10-09T09:16:40Z</time>
      </trkpt>
      <trkpt lat="44.66408" lon="6.0287">
        <ele>2003.52</ele>
        <time>2016-10-09T09:16:42Z</time>
      </trkpt>
      <trkpt lat="44.66409" lon="6.02878">
        <ele>2005.93</ele>
        <time>2016-10-09T09:16:55Z</time>
      </trkpt>
      <trkpt lat="44.66407" lon="6.02881">
        <ele>2006.89</ele>
        <time>2016-10-09T09:17:06Z</time>
      </trkpt>
      <trkpt lat="44.66407" lon="6.02886">
        <ele>2007.85</ele>
        <time>2016-10-09T09:17:16Z</time>
      </trkpt>
      <trkpt lat="44.66407" lon="6.02889">
        <ele>2008.81</ele>
        <time>2016-10-09T09:17:50Z</time>
      </trkpt>
      <trkpt lat="44.66407" lon="6.02894">
        <ele>2009.77</ele>
        <time>2016-10-09T09:17:54Z</time>
      </trkpt>
      <trkpt lat="44.66408" lon="6.029">
        <ele>2011.22</ele>
        <time>2016-10-09T09:18:02Z</time>
      </trkpt>
      <trkpt lat="44.66407" lon="6.02906">
        <ele>2013.14</ele>
        <time>2016-10-09T09:18:10Z</time>
      </trkpt>
      <trkpt lat="44.66407" lon="6.02908">
        <ele>2013.62</ele>
        <time>2016-10-09T09:18:12Z</time>
      </trkpt>
      <trkpt lat="44.66408" lon="6.02915">
        <ele>2015.54</ele>
        <time>2016-10-09T09:18:22Z</time>
      </trkpt>
      <trkpt lat="44.66409" lon="6.02922">
        <ele>2016.98</ele>
        <time>2016-10-09T09:18:29Z</time>
      </trkpt>
      <trkpt lat="44.66406" lon="6.02926">
        <ele>2016.98</ele>
        <time>2016-10-09T09:18:34Z</time>
      </trkpt>
      <trkpt lat="44.66405" lon="6.02936">
        <ele>2018.91</ele>
        <time>2016-10-09T09:18:44Z</time>
      </trkpt>
      <trkpt lat="44.66407" lon="6.02945">
        <ele>2020.35</ele>
        <time>2016-10-09T09:18:54Z</time>
      </trkpt>
      <trkpt lat="44.66404" lon="6.0295">
        <ele>2022.27</ele>
        <time>2016-10-09T09:19:06Z</time>
      </trkpt>
      <trkpt lat="44.66402" lon="6.02956">
        <ele>2023.71</ele>
        <time>2016-10-09T09:19:16Z</time>
      </trkpt>
      <trkpt lat="44.66401" lon="6.0296">
        <ele>2024.67</ele>
        <time>2016-10-09T09:19:22Z</time>
      </trkpt>
      <trkpt lat="44.664" lon="6.02964">
        <ele>2025.64</ele>
        <time>2016-10-09T09:19:26Z</time>
      </trkpt>
      <trkpt lat="44.66399" lon="6.02968">
        <ele>2026.6</ele>
        <time>2016-10-09T09:19:37Z</time>
      </trkpt>
      <trkpt lat="44.66399" lon="6.02971">
        <ele>2027.56</ele>
        <time>2016-10-09T09:19:52Z</time>
      </trkpt>
      <trkpt lat="44.66396" lon="6.02977">
        <ele>2028.52</ele>
        <time>2016-10-09T09:19:59Z</time>
      </trkpt>
      <trkpt lat="44.66395" lon="6.02982">
        <ele>2029.96</ele>
        <time>2016-10-09T09:20:04Z</time>
      </trkpt>
      <trkpt lat="44.66393" lon="6.02989">
        <ele>2031.88</ele>
        <time>2016-10-09T09:20:13Z</time>
      </trkpt>
      <trkpt lat="44.66391" lon="6.02995">
        <ele>2033.33</ele>
        <time>2016-10-09T09:20:22Z</time>
      </trkpt>
      <trkpt lat="44.6639" lon="6.03002">
        <ele>2033.81</ele>
        <time>2016-10-09T09:20:27Z</time>
      </trkpt>
      <trkpt lat="44.6639" lon="6.03004">
        <ele>2034.29</ele>
        <time>2016-10-09T09:20:30Z</time>
      </trkpt>
      <trkpt lat="44.6639" lon="6.03006">
        <ele>2034.77</ele>
        <time>2016-10-09T09:20:32Z</time>
      </trkpt>
      <trkpt lat="44.66387" lon="6.03012">
        <ele>2035.73</ele>
        <time>2016-10-09T09:20:40Z</time>
      </trkpt>
      <trkpt lat="44.66387" lon="6.03018">
        <ele>2036.69</ele>
        <time>2016-10-09T09:20:45Z</time>
      </trkpt>
      <trkpt lat="44.66387" lon="6.03024">
        <ele>2037.65</ele>
        <time>2016-10-09T09:20:54Z</time>
      </trkpt>
      <trkpt lat="44.66388" lon="6.03028">
        <ele>2038.61</ele>
        <time>2016-10-09T09:20:59Z</time>
      </trkpt>
      <trkpt lat="44.66387" lon="6.03037">
        <ele>2041.02</ele>
        <time>2016-10-09T09:21:10Z</time>
      </trkpt>
      <trkpt lat="44.66384" lon="6.0305">
        <ele>2041.98</ele>
        <time>2016-10-09T09:21:20Z</time>
      </trkpt>
      <trkpt lat="44.66384" lon="6.03052">
        <ele>2042.46</ele>
        <time>2016-10-09T09:21:22Z</time>
      </trkpt>
      <trkpt lat="44.66382" lon="6.03057">
        <ele>2042.94</ele>
        <time>2016-10-09T09:21:27Z</time>
      </trkpt>
      <trkpt lat="44.66379" lon="6.0307">
        <ele>2044.38</ele>
        <time>2016-10-09T09:21:38Z</time>
      </trkpt>
      <trkpt lat="44.66377" lon="6.03081">
        <ele>2045.82</ele>
        <time>2016-10-09T09:21:48Z</time>
      </trkpt>
      <trkpt lat="44.66377" lon="6.03085">
        <ele>2046.3</ele>
        <time>2016-10-09T09:21:51Z</time>
      </trkpt>
      <trkpt lat="44.66372" lon="6.03099">
        <ele>2047.26</ele>
        <time>2016-10-09T09:22:02Z</time>
      </trkpt>
      <trkpt lat="44.66369" lon="6.03109">
        <ele>2048.23</ele>
        <time>2016-10-09T09:22:11Z</time>
      </trkpt>
      <trkpt lat="44.66365" lon="6.03119">
        <ele>2049.67</ele>
        <time>2016-10-09T09:22:20Z</time>
      </trkpt>
      <trkpt lat="44.66361" lon="6.0313">
        <ele>2051.11</ele>
        <time>2016-10-09T09:22:31Z</time>
      </trkpt>
      <trkpt lat="44.66356" lon="6.0314">
        <ele>2052.55</ele>
        <time>2016-10-09T09:22:40Z</time>
      </trkpt>
      <trkpt lat="44.66353" lon="6.03148">
        <ele>2053.99</ele>
        <time>2016-10-09T09:22:50Z</time>
      </trkpt>
      <trkpt lat="44.66351" lon="6.03153">
        <ele>2054.47</ele>
        <time>2016-10-09T09:22:55Z</time>
      </trkpt>
      <trkpt lat="44.66351" lon="6.03156">
        <ele>2054.96</ele>
        <time>2016-10-09T09:22:57Z</time>
      </trkpt>
      <trkpt lat="44.66347" lon="6.03165">
        <ele>2056.88</ele>
        <time>2016-10-09T09:23:06Z</time>
      </trkpt>
      <trkpt lat="44.66345" lon="6.03175">
        <ele>2057.84</ele>
        <time>2016-10-09T09:23:17Z</time>
      </trkpt>
      <trkpt lat="44.66342" lon="6.03184">
        <ele>2059.28</ele>
        <time>2016-10-09T09:23:26Z</time>
      </trkpt>
      <trkpt lat="44.6634" lon="6.03191">
        <ele>2060.72</ele>
        <time>2016-10-09T09:23:33Z</time>
      </trkpt>
      <trkpt lat="44.6634" lon="6.03192">
        <ele>2061.2</ele>
        <time>2016-10-09T09:23:34Z</time>
      </trkpt>
      <trkpt lat="44.6634" lon="6.03194">
        <ele>2061.2</ele>
        <time>2016-10-09T09:23:37Z</time>
      </trkpt>
      <trkpt lat="44.66336" lon="6.03202">
        <ele>2062.65</ele>
        <time>2016-10-09T09:23:47Z</time>
      </trkpt>
      <trkpt lat="44.66332" lon="6.03209">
        <ele>2064.09</ele>
        <time>2016-10-09T09:24:01Z</time>
      </trkpt>
      <trkpt lat="44.66329" lon="6.03221">
        <ele>2065.05</ele>
        <time>2016-10-09T09:24:11Z</time>
      </trkpt>
      <trkpt lat="44.66325" lon="6.03228">
        <ele>2066.49</ele>
        <time>2016-10-09T09:24:20Z</time>
      </trkpt>
      <trkpt lat="44.66323" lon="6.03239">
        <ele>2067.45</ele>
        <time>2016-10-09T09:24:31Z</time>
      </trkpt>
      <trkpt lat="44.66322" lon="6.03249">
        <ele>2068.41</ele>
        <time>2016-10-09T09:24:41Z</time>
      </trkpt>
      <trkpt lat="44.6632" lon="6.03259">
        <ele>2069.38</ele>
        <time>2016-10-09T09:24:49Z</time>
      </trkpt>
      <trkpt lat="44.66319" lon="6.03265">
        <ele>2069.86</ele>
        <time>2016-10-09T09:24:53Z</time>
      </trkpt>
      <trkpt lat="44.6632" lon="6.03278">
        <ele>2071.3</ele>
        <time>2016-10-09T09:25:04Z</time>
      </trkpt>
      <trkpt lat="44.66322" lon="6.03291">
        <ele>2072.26</ele>
        <time>2016-10-09T09:25:13Z</time>
      </trkpt>
      <trkpt lat="44.66324" lon="6.03302">
        <ele>2074.18</ele>
        <time>2016-10-09T09:25:26Z</time>
      </trkpt>
      <trkpt lat="44.66325" lon="6.03311">
        <ele>2075.14</ele>
        <time>2016-10-09T09:25:34Z</time>
      </trkpt>
      <trkpt lat="44.66326" lon="6.03313">
        <ele>2076.1</ele>
        <time>2016-10-09T09:25:40Z</time>
      </trkpt>
      <trkpt lat="44.66325" lon="6.03325">
        <ele>2077.07</ele>
        <time>2016-10-09T09:25:50Z</time>
      </trkpt>
      <trkpt lat="44.66325" lon="6.0333">
        <ele>2077.55</ele>
        <time>2016-10-09T09:25:55Z</time>
      </trkpt>
      <trkpt lat="44.66328" lon="6.03343">
        <ele>2078.03</ele>
        <time>2016-10-09T09:26:05Z</time>
      </trkpt>
      <trkpt lat="44.66327" lon="6.03347">
        <ele>2078.03</ele>
        <time>2016-10-09T09:26:08Z</time>
      </trkpt>
      <trkpt lat="44.66329" lon="6.03356">
        <ele>2079.47</ele>
        <time>2016-10-09T09:26:19Z</time>
      </trkpt>
      <trkpt lat="44.66328" lon="6.03359">
        <ele>2078.99</ele>
        <time>2016-10-09T09:26:35Z</time>
      </trkpt>
      <trkpt lat="44.66327" lon="6.03352">
        <ele>2078.99</ele>
        <time>2016-10-09T09:26:49Z</time>
      </trkpt>
      <trkpt lat="44.66327" lon="6.03354">
        <ele>2078.99</ele>
        <time>2016-10-09T09:27:10Z</time>
      </trkpt>
      <trkpt lat="44.66327" lon="6.03355">
        <ele>2078.99</ele>
        <time>2016-10-09T09:27:36Z</time>
      </trkpt>
      <trkpt lat="44.66327" lon="6.03354">
        <ele>2078.99</ele>
        <time>2016-10-09T09:28:02Z</time>
      </trkpt>
      <trkpt lat="44.66327" lon="6.03352">
        <ele>2078.99</ele>
        <time>2016-10-09T09:28:17Z</time>
      </trkpt>
      <trkpt lat="44.66327" lon="6.03353">
        <ele>2078.99</ele>
        <time>2016-10-09T09:28:31Z</time>
      </trkpt>
      <trkpt lat="44.66326" lon="6.03354">
        <ele>2080.91</ele>
        <time>2016-10-09T09:28:44Z</time>
      </trkpt>
      <trkpt lat="44.66326" lon="6.03354">
        <ele>2076.59</ele>
        <time>2016-10-09T09:28:45Z</time>
      </trkpt>
      <trkpt lat="44.66326" lon="6.03354">
        <ele>2082.83</ele>
        <time>2016-10-09T09:28:46Z</time>
      </trkpt>
      <trkpt lat="44.66326" lon="6.03354">
        <ele>2079.47</ele>
        <time>2016-10-09T09:28:47Z</time>
      </trkpt>
      <trkpt lat="44.66326" lon="6.03353">
        <ele>2078.99</ele>
        <time>2016-10-09T09:29:14Z</time>
      </trkpt>
      <trkpt lat="44.66326" lon="6.03353">
        <ele>2078.99</ele>
        <time>2016-10-09T09:29:33Z</time>
      </trkpt>
      <trkpt lat="44.66326" lon="6.03352">
        <ele>2078.51</ele>
        <time>2016-10-09T09:29:50Z</time>
      </trkpt>
      <trkpt lat="44.66326" lon="6.03358">
        <ele>2078.99</ele>
        <time>2016-10-09T09:30:03Z</time>
      </trkpt>
      <trkpt lat="44.66325" lon="6.03368">
        <ele>2078.03</ele>
        <time>2016-10-09T09:30:10Z</time>
      </trkpt>
      <trkpt lat="44.66325" lon="6.03375">
        <ele>2076.1</ele>
        <time>2016-10-09T09:30:16Z</time>
      </trkpt>
      <trkpt lat="44.66317" lon="6.03384">
        <ele>2073.22</ele>
        <time>2016-10-09T09:30:27Z</time>
      </trkpt>
      <trkpt lat="44.66314" lon="6.03394">
        <ele>2070.82</ele>
        <time>2016-10-09T09:30:37Z</time>
      </trkpt>
      <trkpt lat="44.66311" lon="6.03407">
        <ele>2068.41</ele>
        <time>2016-10-09T09:30:48Z</time>
      </trkpt>
      <trkpt lat="44.66306" lon="6.03418">
        <ele>2065.53</ele>
        <time>2016-10-09T09:30:58Z</time>
      </trkpt>
      <trkpt lat="44.66299" lon="6.03433">
        <ele>2062.65</ele>
        <time>2016-10-09T09:31:10Z</time>
      </trkpt>
      <trkpt lat="44.66297" lon="6.03441">
        <ele>2061.2</ele>
        <time>2016-10-09T09:31:16Z</time>
      </trkpt>
      <trkpt lat="44.66287" lon="6.03457">
        <ele>2059.28</ele>
        <time>2016-10-09T09:31:27Z</time>
      </trkpt>
      <trkpt lat="44.66286" lon="6.03462">
        <ele>2058.32</ele>
        <time>2016-10-09T09:31:32Z</time>
      </trkpt>
      <trkpt lat="44.66282" lon="6.03468">
        <ele>2057.36</ele>
        <time>2016-10-09T09:31:36Z</time>
      </trkpt>
      <trkpt lat="44.66273" lon="6.03486">
        <ele>2054.96</ele>
        <time>2016-10-09T09:31:48Z</time>
      </trkpt>
      <trkpt lat="44.66268" lon="6.03494">
        <ele>2053.99</ele>
        <time>2016-10-09T09:31:56Z</time>
      </trkpt>
      <trkpt lat="44.6626" lon="6.03507">
        <ele>2052.55</ele>
        <time>2016-10-09T09:32:06Z</time>
      </trkpt>
      <trkpt lat="44.66251" lon="6.03524">
        <ele>2050.63</ele>
        <time>2016-10-09T09:32:18Z</time>
      </trkpt>
      <trkpt lat="44.66249" lon="6.03529">
        <ele>2049.67</ele>
        <time>2016-10-09T09:32:22Z</time>
      </trkpt>
      <trkpt lat="44.66241" lon="6.03541">
        <ele>2048.71</ele>
        <time>2016-10-09T09:32:31Z</time>
      </trkpt>
      <trkpt lat="44.66233" lon="6.03555">
        <ele>2047.75</ele>
        <time>2016-10-09T09:32:42Z</time>
      </trkpt>
      <trkpt lat="44.6623" lon="6.03565">
        <ele>2045.82</ele>
        <time>2016-10-09T09:32:52Z</time>
      </trkpt>
      <trkpt lat="44.66224" lon="6.03575">
        <ele>2045.34</ele>
        <time>2016-10-09T09:33:01Z</time>
      </trkpt>
      <trkpt lat="44.66221" lon="6.03581">
        <ele>2044.38</ele>
        <time>2016-10-09T09:33:13Z</time>
      </trkpt>
      <trkpt lat="44.66219" lon="6.03585">
        <ele>2043.9</ele>
        <time>2016-10-09T09:33:16Z</time>
      </trkpt>
      <trkpt lat="44.6621" lon="6.03596">
        <ele>2042.94</ele>
        <time>2016-10-09T09:33:27Z</time>
      </trkpt>
      <trkpt lat="44.662" lon="6.03603">
        <ele>2041.02</ele>
        <time>2016-10-09T09:33:37Z</time>
      </trkpt>
      <trkpt lat="44.66198" lon="6.03604">
        <ele>2040.54</ele>
        <time>2016-10-09T09:33:39Z</time>
      </trkpt>
      <trkpt lat="44.66195" lon="6.03606">
        <ele>2039.57</ele>
        <time>2016-10-09T09:33:44Z</time>
      </trkpt>
      <trkpt lat="44.66186" lon="6.03609">
        <ele>2038.13</ele>
        <time>2016-10-09T09:33:53Z</time>
      </trkpt>
      <trkpt lat="44.66182" lon="6.03611">
        <ele>2037.17</ele>
        <time>2016-10-09T09:33:59Z</time>
      </trkpt>
      <trkpt lat="44.66174" lon="6.03621">
        <ele>2035.25</ele>
        <time>2016-10-09T09:34:10Z</time>
      </trkpt>
      <trkpt lat="44.66164" lon="6.03628">
        <ele>2034.29</ele>
        <time>2016-10-09T09:34:18Z</time>
      </trkpt>
      <trkpt lat="44.66156" lon="6.03641">
        <ele>2035.25</ele>
        <time>2016-10-09T09:34:30Z</time>
      </trkpt>
      <trkpt lat="44.66147" lon="6.03653">
        <ele>2034.77</ele>
        <time>2016-10-09T09:34:40Z</time>
      </trkpt>
      <trkpt lat="44.66144" lon="6.03654">
        <ele>2034.77</ele>
        <time>2016-10-09T09:34:43Z</time>
      </trkpt>
      <trkpt lat="44.66139" lon="6.03663">
        <ele>2035.25</ele>
        <time>2016-10-09T09:34:51Z</time>
      </trkpt>
      <trkpt lat="44.66129" lon="6.03673">
        <ele>2036.21</ele>
        <time>2016-10-09T09:35:01Z</time>
      </trkpt>
      <trkpt lat="44.66122" lon="6.03683">
        <ele>2036.69</ele>
        <time>2016-10-09T09:35:10Z</time>
      </trkpt>
      <trkpt lat="44.66112" lon="6.03693">
        <ele>2037.17</ele>
        <time>2016-10-09T09:35:21Z</time>
      </trkpt>
      <trkpt lat="44.66111" lon="6.03695">
        <ele>2037.17</ele>
        <time>2016-10-09T09:35:23Z</time>
      </trkpt>
      <trkpt lat="44.66104" lon="6.03699">
        <ele>2037.65</ele>
        <time>2016-10-09T09:35:29Z</time>
      </trkpt>
      <trkpt lat="44.66096" lon="6.03707">
        <ele>2038.13</ele>
        <time>2016-10-09T09:35:38Z</time>
      </trkpt>
      <trkpt lat="44.66087" lon="6.03713">
        <ele>2039.09</ele>
        <time>2016-10-09T09:35:48Z</time>
      </trkpt>
      <trkpt lat="44.66082" lon="6.03718">
        <ele>2039.09</ele>
        <time>2016-10-09T09:35:55Z</time>
      </trkpt>
      <trkpt lat="44.66079" lon="6.0372">
        <ele>2039.09</ele>
        <time>2016-10-09T09:35:58Z</time>
      </trkpt>
      <trkpt lat="44.66072" lon="6.03726">
        <ele>2040.05</ele>
        <time>2016-10-09T09:36:07Z</time>
      </trkpt>
      <trkpt lat="44.6606" lon="6.03737">
        <ele>2039.57</ele>
        <time>2016-10-09T09:36:18Z</time>
      </trkpt>
      <trkpt lat="44.66053" lon="6.03743">
        <ele>2039.57</ele>
        <time>2016-10-09T09:36:25Z</time>
      </trkpt>
      <trkpt lat="44.6604" lon="6.03748">
        <ele>2038.61</ele>
        <time>2016-10-09T09:36:38Z</time>
      </trkpt>
      <trkpt lat="44.66029" lon="6.03751">
        <ele>2037.65</ele>
        <time>2016-10-09T09:36:46Z</time>
      </trkpt>
      <trkpt lat="44.66014" lon="6.03754">
        <ele>2035.73</ele>
        <time>2016-10-09T09:36:58Z</time>
      </trkpt>
      <trkpt lat="44.66013" lon="6.03755">
        <ele>2035.73</ele>
        <time>2016-10-09T09:36:59Z</time>
      </trkpt>
      <trkpt lat="44.66009" lon="6.03755">
        <ele>2035.25</ele>
        <time>2016-10-09T09:37:03Z</time>
      </trkpt>
      <trkpt lat="44.66" lon="6.03753">
        <ele>2033.81</ele>
        <time>2016-10-09T09:37:11Z</time>
      </trkpt>
      <trkpt lat="44.65997" lon="6.03756">
        <ele>2032.84</ele>
        <time>2016-10-09T09:37:15Z</time>
      </trkpt>
      <trkpt lat="44.65985" lon="6.0376">
        <ele>2029.96</ele>
        <time>2016-10-09T09:37:25Z</time>
      </trkpt>
      <trkpt lat="44.65974" lon="6.03763">
        <ele>2027.56</ele>
        <time>2016-10-09T09:37:35Z</time>
      </trkpt>
      <trkpt lat="44.65969" lon="6.03768">
        <ele>2024.67</ele>
        <time>2016-10-09T09:37:45Z</time>
      </trkpt>
      <trkpt lat="44.65965" lon="6.0377">
        <ele>2022.75</ele>
        <time>2016-10-09T09:37:51Z</time>
      </trkpt>
      <trkpt lat="44.65957" lon="6.03773">
        <ele>2020.83</ele>
        <time>2016-10-09T09:38:00Z</time>
      </trkpt>
      <trkpt lat="44.65954" lon="6.03777">
        <ele>2019.39</ele>
        <time>2016-10-09T09:38:06Z</time>
      </trkpt>
      <trkpt lat="44.65945" lon="6.03781">
        <ele>2016.98</ele>
        <time>2016-10-09T09:38:16Z</time>
      </trkpt>
      <trkpt lat="44.65944" lon="6.03782">
        <ele>2016.02</ele>
        <time>2016-10-09T09:38:18Z</time>
      </trkpt>
      <trkpt lat="44.6594" lon="6.03784">
        <ele>2015.06</ele>
        <time>2016-10-09T09:38:34Z</time>
      </trkpt>
      <trkpt lat="44.65939" lon="6.03782">
        <ele>2014.58</ele>
        <time>2016-10-09T09:38:36Z</time>
      </trkpt>
      <trkpt lat="44.65929" lon="6.03777">
        <ele>2011.22</ele>
        <time>2016-10-09T09:38:49Z</time>
      </trkpt>
      <trkpt lat="44.65921" lon="6.0378">
        <ele>2008.33</ele>
        <time>2016-10-09T09:39:00Z</time>
      </trkpt>
      <trkpt lat="44.65914" lon="6.03779">
        <ele>2005.45</ele>
        <time>2016-10-09T09:39:09Z</time>
      </trkpt>
      <trkpt lat="44.65906" lon="6.0378">
        <ele>2002.08</ele>
        <time>2016-10-09T09:39:19Z</time>
      </trkpt>
      <trkpt lat="44.65904" lon="6.0378">
        <ele>2001.6</ele>
        <time>2016-10-09T09:39:22Z</time>
      </trkpt>
      <trkpt lat="44.65902" lon="6.03779">
        <ele>2001.12</ele>
        <time>2016-10-09T09:39:24Z</time>
      </trkpt>
      <trkpt lat="44.65896" lon="6.03777">
        <ele>1998.72</ele>
        <time>2016-10-09T09:39:33Z</time>
      </trkpt>
      <trkpt lat="44.65885" lon="6.0378">
        <ele>1996.8</ele>
        <time>2016-10-09T09:39:43Z</time>
      </trkpt>
      <trkpt lat="44.65878" lon="6.0378">
        <ele>1994.87</ele>
        <time>2016-10-09T09:39:51Z</time>
      </trkpt>
      <trkpt lat="44.65871" lon="6.03779">
        <ele>1992.95</ele>
        <time>2016-10-09T09:40:01Z</time>
      </trkpt>
      <trkpt lat="44.65863" lon="6.03781">
        <ele>1992.47</ele>
        <time>2016-10-09T09:40:06Z</time>
      </trkpt>
      <trkpt lat="44.6586" lon="6.03781">
        <ele>1991.99</ele>
        <time>2016-10-09T09:40:08Z</time>
      </trkpt>
      <trkpt lat="44.65853" lon="6.03782">
        <ele>1991.51</ele>
        <time>2016-10-09T09:40:12Z</time>
      </trkpt>
      <trkpt lat="44.65839" lon="6.03782">
        <ele>1990.55</ele>
        <time>2016-10-09T09:40:23Z</time>
      </trkpt>
      <trkpt lat="44.65829" lon="6.03783">
        <ele>1990.07</ele>
        <time>2016-10-09T09:40:33Z</time>
      </trkpt>
      <trkpt lat="44.65821" lon="6.03783">
        <ele>1989.1</ele>
        <time>2016-10-09T09:40:40Z</time>
      </trkpt>
      <trkpt lat="44.65817" lon="6.03784">
        <ele>1988.62</ele>
        <time>2016-10-09T09:40:54Z</time>
      </trkpt>
      <trkpt lat="44.65812" lon="6.03783">
        <ele>1988.14</ele>
        <time>2016-10-09T09:41:15Z</time>
      </trkpt>
      <trkpt lat="44.65801" lon="6.03782">
        <ele>1987.18</ele>
        <time>2016-10-09T09:41:25Z</time>
      </trkpt>
      <trkpt lat="44.65792" lon="6.03783">
        <ele>1987.66</ele>
        <time>2016-10-09T09:41:35Z</time>
      </trkpt>
      <trkpt lat="44.65792" lon="6.03783">
        <ele>1987.18</ele>
        <time>2016-10-09T09:41:47Z</time>
      </trkpt>
      <trkpt lat="44.65782" lon="6.03782">
        <ele>1986.7</ele>
        <time>2016-10-09T09:41:56Z</time>
      </trkpt>
      <trkpt lat="44.65776" lon="6.03788">
        <ele>1988.62</ele>
        <time>2016-10-09T09:42:03Z</time>
      </trkpt>
      <trkpt lat="44.65775" lon="6.03789">
        <ele>1988.62</ele>
        <time>2016-10-09T09:42:04Z</time>
      </trkpt>
      <trkpt lat="44.65772" lon="6.0379">
        <ele>1989.1</ele>
        <time>2016-10-09T09:42:08Z</time>
      </trkpt>
      <trkpt lat="44.65762" lon="6.03793">
        <ele>1991.51</ele>
        <time>2016-10-09T09:42:20Z</time>
      </trkpt>
      <trkpt lat="44.65755" lon="6.03795">
        <ele>1991.51</ele>
        <time>2016-10-09T09:42:30Z</time>
      </trkpt>
      <trkpt lat="44.65754" lon="6.03795">
        <ele>1991.51</ele>
        <time>2016-10-09T09:42:38Z</time>
      </trkpt>
      <trkpt lat="44.65748" lon="6.03792">
        <ele>1990.55</ele>
        <time>2016-10-09T09:42:45Z</time>
      </trkpt>
      <trkpt lat="44.65736" lon="6.03792">
        <ele>1991.03</ele>
        <time>2016-10-09T09:42:54Z</time>
      </trkpt>
      <trkpt lat="44.65731" lon="6.03792">
        <ele>1991.99</ele>
        <time>2016-10-09T09:43:02Z</time>
      </trkpt>
      <trkpt lat="44.65723" lon="6.03798">
        <ele>1993.91</ele>
        <time>2016-10-09T09:43:11Z</time>
      </trkpt>
      <trkpt lat="44.65713" lon="6.03804">
        <ele>1995.35</ele>
        <time>2016-10-09T09:43:22Z</time>
      </trkpt>
      <trkpt lat="44.65708" lon="6.03807">
        <ele>1996.32</ele>
        <time>2016-10-09T09:43:29Z</time>
      </trkpt>
      <trkpt lat="44.65707" lon="6.03809">
        <ele>1995.83</ele>
        <time>2016-10-09T09:43:31Z</time>
      </trkpt>
      <trkpt lat="44.65701" lon="6.03816">
        <ele>1997.28</ele>
        <time>2016-10-09T09:43:39Z</time>
      </trkpt>
      <trkpt lat="44.65695" lon="6.03821">
        <ele>1996.8</ele>
        <time>2016-10-09T09:43:51Z</time>
      </trkpt>
      <trkpt lat="44.65685" lon="6.03826">
        <ele>1995.35</ele>
        <time>2016-10-09T09:44:03Z</time>
      </trkpt>
      <trkpt lat="44.65671" lon="6.03834">
        <ele>1993.91</ele>
        <time>2016-10-09T09:44:13Z</time>
      </trkpt>
      <trkpt lat="44.6566" lon="6.03843">
        <ele>1991.99</ele>
        <time>2016-10-09T09:44:24Z</time>
      </trkpt>
      <trkpt lat="44.65654" lon="6.03849">
        <ele>1990.07</ele>
        <time>2016-10-09T09:44:33Z</time>
      </trkpt>
      <trkpt lat="44.65651" lon="6.03853">
        <ele>1989.59</ele>
        <time>2016-10-09T09:44:36Z</time>
      </trkpt>
      <trkpt lat="44.65641" lon="6.03866">
        <ele>1989.59</ele>
        <time>2016-10-09T09:44:47Z</time>
      </trkpt>
      <trkpt lat="44.65637" lon="6.03871">
        <ele>1989.1</ele>
        <time>2016-10-09T09:44:57Z</time>
      </trkpt>
      <trkpt lat="44.65635" lon="6.03873">
        <ele>1989.1</ele>
        <time>2016-10-09T09:44:59Z</time>
      </trkpt>
      <trkpt lat="44.65622" lon="6.0388">
        <ele>1986.7</ele>
        <time>2016-10-09T09:45:10Z</time>
      </trkpt>
      <trkpt lat="44.65616" lon="6.03884">
        <ele>1983.82</ele>
        <time>2016-10-09T09:45:20Z</time>
      </trkpt>
      <trkpt lat="44.6561" lon="6.03886">
        <ele>1983.82</ele>
        <time>2016-10-09T09:45:23Z</time>
      </trkpt>
      <trkpt lat="44.65608" lon="6.03891">
        <ele>1982.86</ele>
        <time>2016-10-09T09:45:27Z</time>
      </trkpt>
      <trkpt lat="44.65605" lon="6.03893">
        <ele>1982.38</ele>
        <time>2016-10-09T09:45:29Z</time>
      </trkpt>
      <trkpt lat="44.65594" lon="6.03905">
        <ele>1981.9</ele>
        <time>2016-10-09T09:45:40Z</time>
      </trkpt>
      <trkpt lat="44.65584" lon="6.03916">
        <ele>1980.93</ele>
        <time>2016-10-09T09:45:51Z</time>
      </trkpt>
      <trkpt lat="44.65571" lon="6.03929">
        <ele>1980.45</ele>
        <time>2016-10-09T09:46:02Z</time>
      </trkpt>
      <trkpt lat="44.65559" lon="6.03938">
        <ele>1979.01</ele>
        <time>2016-10-09T09:46:14Z</time>
      </trkpt>
      <trkpt lat="44.65547" lon="6.03945">
        <ele>1976.61</ele>
        <time>2016-10-09T09:46:26Z</time>
      </trkpt>
      <trkpt lat="44.65539" lon="6.03947">
        <ele>1974.69</ele>
        <time>2016-10-09T09:46:35Z</time>
      </trkpt>
      <trkpt lat="44.65533" lon="6.03947">
        <ele>1972.28</ele>
        <time>2016-10-09T09:46:43Z</time>
      </trkpt>
      <trkpt lat="44.65529" lon="6.03949">
        <ele>1971.8</ele>
        <time>2016-10-09T09:46:53Z</time>
      </trkpt>
      <trkpt lat="44.65528" lon="6.03951">
        <ele>1971.8</ele>
        <time>2016-10-09T09:47:10Z</time>
      </trkpt>
      <trkpt lat="44.65529" lon="6.03952">
        <ele>1971.32</ele>
        <time>2016-10-09T09:47:33Z</time>
      </trkpt>
      <trkpt lat="44.65529" lon="6.03951">
        <ele>1971.32</ele>
        <time>2016-10-09T09:47:56Z</time>
      </trkpt>
      <trkpt lat="44.65527" lon="6.03952">
        <ele>1971.32</ele>
        <time>2016-10-09T09:48:23Z</time>
      </trkpt>
      <trkpt lat="44.65524" lon="6.03954">
        <ele>1971.32</ele>
        <time>2016-10-09T09:48:26Z</time>
      </trkpt>
      <trkpt lat="44.6551" lon="6.03962">
        <ele>1969.4</ele>
        <time>2016-10-09T09:48:38Z</time>
      </trkpt>
      <trkpt lat="44.65509" lon="6.03962">
        <ele>1969.4</ele>
        <time>2016-10-09T09:48:40Z</time>
      </trkpt>
      <trkpt lat="44.65501" lon="6.03965">
        <ele>1968.92</ele>
        <time>2016-10-09T09:48:52Z</time>
      </trkpt>
      <trkpt lat="44.655" lon="6.03965">
        <ele>1968.44</ele>
        <time>2016-10-09T09:49:08Z</time>
      </trkpt>
      <trkpt lat="44.65489" lon="6.03969">
        <ele>1968.44</ele>
        <time>2016-10-09T09:49:18Z</time>
      </trkpt>
      <trkpt lat="44.65476" lon="6.03975">
        <ele>1968.92</ele>
        <time>2016-10-09T09:49:28Z</time>
      </trkpt>
      <trkpt lat="44.65475" lon="6.03975">
        <ele>1969.4</ele>
        <time>2016-10-09T09:49:30Z</time>
      </trkpt>
      <trkpt lat="44.65467" lon="6.03978">
        <ele>1969.88</ele>
        <time>2016-10-09T09:49:36Z</time>
      </trkpt>
      <trkpt lat="44.65455" lon="6.03984">
        <ele>1970.84</ele>
        <time>2016-10-09T09:49:47Z</time>
      </trkpt>
      <trkpt lat="44.65449" lon="6.03988">
        <ele>1971.32</ele>
        <time>2016-10-09T09:49:53Z</time>
      </trkpt>
      <trkpt lat="44.65432" lon="6.0399">
        <ele>1972.28</ele>
        <time>2016-10-09T09:50:07Z</time>
      </trkpt>
      <trkpt lat="44.65424" lon="6.03992">
        <ele>1972.76</ele>
        <time>2016-10-09T09:50:16Z</time>
      </trkpt>
      <trkpt lat="44.65423" lon="6.03993">
        <ele>1973.24</ele>
        <time>2016-10-09T09:50:18Z</time>
      </trkpt>
      <trkpt lat="44.65415" lon="6.03999">
        <ele>1975.17</ele>
        <time>2016-10-09T09:50:28Z</time>
      </trkpt>
      <trkpt lat="44.6541" lon="6.04003">
        <ele>1977.09</ele>
        <time>2016-10-09T09:50:37Z</time>
      </trkpt>
      <trkpt lat="44.65405" lon="6.04007">
        <ele>1979.01</ele>
        <time>2016-10-09T09:50:50Z</time>
      </trkpt>
      <trkpt lat="44.65399" lon="6.04011">
        <ele>1980.45</ele>
        <time>2016-10-09T09:50:59Z</time>
      </trkpt>
      <trkpt lat="44.65394" lon="6.04014">
        <ele>1982.38</ele>
        <time>2016-10-09T09:51:09Z</time>
      </trkpt>
      <trkpt lat="44.65386" lon="6.04016">
        <ele>1984.3</ele>
        <time>2016-10-09T09:51:21Z</time>
      </trkpt>
      <trkpt lat="44.65382" lon="6.04017">
        <ele>1984.78</ele>
        <time>2016-10-09T09:51:26Z</time>
      </trkpt>
      <trkpt lat="44.65374" lon="6.0402">
        <ele>1986.7</ele>
        <time>2016-10-09T09:51:38Z</time>
      </trkpt>
      <trkpt lat="44.65369" lon="6.04021">
        <ele>1987.66</ele>
        <time>2016-10-09T09:51:47Z</time>
      </trkpt>
      <trkpt lat="44.65362" lon="6.04022">
        <ele>1988.62</ele>
        <time>2016-10-09T09:51:57Z</time>
      </trkpt>
      <trkpt lat="44.65357" lon="6.04024">
        <ele>1990.55</ele>
        <time>2016-10-09T09:52:07Z</time>
      </trkpt>
      <trkpt lat="44.65352" lon="6.04027">
        <ele>1992.47</ele>
        <time>2016-10-09T09:52:19Z</time>
      </trkpt>
      <trkpt lat="44.65348" lon="6.04029">
        <ele>1993.43</ele>
        <time>2016-10-09T09:52:27Z</time>
      </trkpt>
      <trkpt lat="44.65342" lon="6.04031">
        <ele>1995.35</ele>
        <time>2016-10-09T09:52:40Z</time>
      </trkpt>
      <trkpt lat="44.65337" lon="6.04035">
        <ele>1996.8</ele>
        <time>2016-10-09T09:52:50Z</time>
      </trkpt>
      <trkpt lat="44.65337" lon="6.04036">
        <ele>1996.8</ele>
        <time>2016-10-09T09:52:51Z</time>
      </trkpt>
      <trkpt lat="44.65336" lon="6.04038">
        <ele>1997.28</ele>
        <time>2016-10-09T09:52:53Z</time>
      </trkpt>
      <trkpt lat="44.6533" lon="6.04044">
        <ele>1999.2</ele>
        <time>2016-10-09T09:53:04Z</time>
      </trkpt>
      <trkpt lat="44.65323" lon="6.04049">
        <ele>2000.64</ele>
        <time>2016-10-09T09:53:14Z</time>
      </trkpt>
      <trkpt lat="44.6532" lon="6.04056">
        <ele>2002.08</ele>
        <time>2016-10-09T09:53:24Z</time>
      </trkpt>
      <trkpt lat="44.65316" lon="6.04061">
        <ele>2002.56</ele>
        <time>2016-10-09T09:53:30Z</time>
      </trkpt>
      <trkpt lat="44.65316" lon="6.04065">
        <ele>2003.04</ele>
        <time>2016-10-09T09:53:37Z</time>
      </trkpt>
      <trkpt lat="44.65318" lon="6.04066">
        <ele>2003.04</ele>
        <time>2016-10-09T09:53:48Z</time>
      </trkpt>
      <trkpt lat="44.65316" lon="6.04067">
        <ele>2003.04</ele>
        <time>2016-10-09T09:54:05Z</time>
      </trkpt>
      <trkpt lat="44.65316" lon="6.04067">
        <ele>2003.04</ele>
        <time>2016-10-09T09:54:11Z</time>
      </trkpt>
      <trkpt lat="44.65317" lon="6.04064">
        <ele>2003.04</ele>
        <time>2016-10-09T09:54:14Z</time>
      </trkpt>
      <trkpt lat="44.65319" lon="6.04062">
        <ele>2003.04</ele>
        <time>2016-10-09T09:54:26Z</time>
      </trkpt>
      <trkpt lat="44.65318" lon="6.04063">
        <ele>2003.04</ele>
        <time>2016-10-09T09:54:35Z</time>
      </trkpt>
      <trkpt lat="44.65316" lon="6.04066">
        <ele>2003.04</ele>
        <time>2016-10-09T09:54:39Z</time>
      </trkpt>
      <trkpt lat="44.65317" lon="6.04068">
        <ele>2003.04</ele>
        <time>2016-10-09T09:54:51Z</time>
      </trkpt>
      <trkpt lat="44.65318" lon="6.04064">
        <ele>2003.04</ele>
        <time>2016-10-09T09:55:08Z</time>
      </trkpt>
      <trkpt lat="44.65317" lon="6.04064">
        <ele>2003.04</ele>
        <time>2016-10-09T09:55:11Z</time>
      </trkpt>
      <trkpt lat="44.65313" lon="6.04054">
        <ele>2001.12</ele>
        <time>2016-10-09T09:55:22Z</time>
      </trkpt>
      <trkpt lat="44.65313" lon="6.04053">
        <ele>2000.64</ele>
        <time>2016-10-09T09:55:39Z</time>
      </trkpt>
      <trkpt lat="44.65313" lon="6.04053">
        <ele>2001.12</ele>
        <time>2016-10-09T09:55:49Z</time>
      </trkpt>
      <trkpt lat="44.65311" lon="6.04054">
        <ele>2001.6</ele>
        <time>2016-10-09T09:55:53Z</time>
      </trkpt>
      <trkpt lat="44.65311" lon="6.04057">
        <ele>2001.6</ele>
        <time>2016-10-09T09:55:56Z</time>
      </trkpt>
      <trkpt lat="44.6531" lon="6.0406">
        <ele>2002.08</ele>
        <time>2016-10-09T09:55:58Z</time>
      </trkpt>
      <trkpt lat="44.6531" lon="6.04063">
        <ele>2002.08</ele>
        <time>2016-10-09T09:56:16Z</time>
      </trkpt>
      <trkpt lat="44.65311" lon="6.04063">
        <ele>2002.56</ele>
        <time>2016-10-09T09:56:37Z</time>
      </trkpt>
      <trkpt lat="44.65314" lon="6.04063">
        <ele>2003.04</ele>
        <time>2016-10-09T09:56:41Z</time>
      </trkpt>
      <trkpt lat="44.65315" lon="6.04065">
        <ele>2003.52</ele>
        <time>2016-10-09T09:56:52Z</time>
      </trkpt>
      <trkpt lat="44.65316" lon="6.04064">
        <ele>2003.04</ele>
        <time>2016-10-09T09:57:10Z</time>
      </trkpt>
      <trkpt lat="44.65316" lon="6.04064">
        <ele>2003.52</ele>
        <time>2016-10-09T09:57:29Z</time>
      </trkpt>
      <trkpt lat="44.65316" lon="6.04065">
        <ele>2003.52</ele>
        <time>2016-10-09T09:57:54Z</time>
      </trkpt>
      <trkpt lat="44.65316" lon="6.04065">
        <ele>2003.52</ele>
        <time>2016-10-09T09:58:14Z</time>
      </trkpt>
      <trkpt lat="44.65316" lon="6.04064">
        <ele>2003.04</ele>
        <time>2016-10-09T09:58:30Z</time>
      </trkpt>
      <trkpt lat="44.65315" lon="6.04064">
        <ele>2003.04</ele>
        <time>2016-10-09T09:58:57Z</time>
      </trkpt>
      <trkpt lat="44.65315" lon="6.04064">
        <ele>2003.04</ele>
        <time>2016-10-09T09:59:23Z</time>
      </trkpt>
      <trkpt lat="44.65315" lon="6.04064">
        <ele>2003.04</ele>
        <time>2016-10-09T09:59:39Z</time>
      </trkpt>
      <trkpt lat="44.65315" lon="6.04064">
        <ele>2003.04</ele>
        <time>2016-10-09T10:00:03Z</time>
      </trkpt>
      <trkpt lat="44.65315" lon="6.04064">
        <ele>2003.52</ele>
        <time>2016-10-09T10:00:31Z</time>
      </trkpt>
      <trkpt lat="44.65315" lon="6.04064">
        <ele>2003.04</ele>
        <time>2016-10-09T10:00:57Z</time>
      </trkpt>
      <trkpt lat="44.65315" lon="6.04064">
        <ele>2003.04</ele>
        <time>2016-10-09T10:01:23Z</time>
      </trkpt>
      <trkpt lat="44.65315" lon="6.04064">
        <ele>2003.52</ele>
        <time>2016-10-09T10:01:54Z</time>
      </trkpt>
      <trkpt lat="44.65315" lon="6.04064">
        <ele>2003.52</ele>
        <time>2016-10-09T10:02:28Z</time>
      </trkpt>
      <trkpt lat="44.65315" lon="6.04064">
        <ele>2003.52</ele>
        <time>2016-10-09T10:03:02Z</time>
      </trkpt>
      <trkpt lat="44.65315" lon="6.04064">
        <ele>2003.52</ele>
        <time>2016-10-09T10:03:36Z</time>
      </trkpt>
      <trkpt lat="44.65315" lon="6.04064">
        <ele>2003.04</ele>
        <time>2016-10-09T10:04:09Z</time>
      </trkpt>
      <trkpt lat="44.65315" lon="6.04064">
        <ele>2003.04</ele>
        <time>2016-10-09T10:04:39Z</time>
      </trkpt>
      <trkpt lat="44.65315" lon="6.04064">
        <ele>2003.04</ele>
        <time>2016-10-09T10:05:15Z</time>
      </trkpt>
      <trkpt lat="44.65315" lon="6.04064">
        <ele>2003.04</ele>
        <time>2016-10-09T10:05:52Z</time>
      </trkpt>
      <trkpt lat="44.65315" lon="6.04064">
        <ele>2003.04</ele>
        <time>2016-10-09T10:06:24Z</time>
      </trkpt>
      <trkpt lat="44.65315" lon="6.04064">
        <ele>2003.52</ele>
        <time>2016-10-09T10:06:55Z</time>
      </trkpt>
      <trkpt lat="44.65315" lon="6.04064">
        <ele>2003.04</ele>
        <time>2016-10-09T10:07:27Z</time>
      </trkpt>
      <trkpt lat="44.65315" lon="6.04064">
        <ele>2003.04</ele>
        <time>2016-10-09T10:07:49Z</time>
      </trkpt>
      <trkpt lat="44.65315" lon="6.04064">
        <ele>2003.52</ele>
        <time>2016-10-09T10:08:19Z</time>
      </trkpt>
      <trkpt lat="44.65315" lon="6.04064">
        <ele>2003.52</ele>
        <time>2016-10-09T10:08:50Z</time>
      </trkpt>
      <trkpt lat="44.65315" lon="6.04064">
        <ele>2003.52</ele>
        <time>2016-10-09T10:09:19Z</time>
      </trkpt>
      <trkpt lat="44.65314" lon="6.04064">
        <ele>2003.52</ele>
        <time>2016-10-09T10:09:51Z</time>
      </trkpt>
      <trkpt lat="44.65314" lon="6.04064">
        <ele>2003.52</ele>
        <time>2016-10-09T10:10:20Z</time>
      </trkpt>
      <trkpt lat="44.65314" lon="6.04064">
        <ele>2003.52</ele>
        <time>2016-10-09T10:10:48Z</time>
      </trkpt>
      <trkpt lat="44.65314" lon="6.04064">
        <ele>2003.52</ele>
        <time>2016-10-09T10:11:22Z</time>
      </trkpt>
      <trkpt lat="44.65314" lon="6.04064">
        <ele>2003.52</ele>
        <time>2016-10-09T10:11:47Z</time>
      </trkpt>
      <trkpt lat="44.65315" lon="6.04064">
        <ele>2003.52</ele>
        <time>2016-10-09T10:12:19Z</time>
      </trkpt>
      <trkpt lat="44.65314" lon="6.04064">
        <ele>2003.04</ele>
        <time>2016-10-09T10:12:43Z</time>
      </trkpt>
      <trkpt lat="44.65315" lon="6.04065">
        <ele>2003.04</ele>
        <time>2016-10-09T10:13:18Z</time>
      </trkpt>
      <trkpt lat="44.65315" lon="6.04066">
        <ele>2003.04</ele>
        <time>2016-10-09T10:13:40Z</time>
      </trkpt>
      <trkpt lat="44.65315" lon="6.04065">
        <ele>2003.04</ele>
        <time>2016-10-09T10:14:03Z</time>
      </trkpt>
      <trkpt lat="44.65315" lon="6.04065">
        <ele>2003.52</ele>
        <time>2016-10-09T10:14:35Z</time>
      </trkpt>
      <trkpt lat="44.65315" lon="6.04065">
        <ele>2003.04</ele>
        <time>2016-10-09T10:15:05Z</time>
      </trkpt>
      <trkpt lat="44.65315" lon="6.04064">
        <ele>2003.04</ele>
        <time>2016-10-09T10:15:37Z</time>
      </trkpt>
      <trkpt lat="44.65315" lon="6.04064">
        <ele>2002.56</ele>
        <time>2016-10-09T10:16:07Z</time>
      </trkpt>
      <trkpt lat="44.65315" lon="6.04065">
        <ele>2002.56</ele>
        <time>2016-10-09T10:16:37Z</time>
      </trkpt>
      <trkpt lat="44.65315" lon="6.04065">
        <ele>2002.56</ele>
        <time>2016-10-09T10:17:07Z</time>
      </trkpt>
      <trkpt lat="44.65314" lon="6.04065">
        <ele>2002.56</ele>
        <time>2016-10-09T10:17:35Z</time>
      </trkpt>
      <trkpt lat="44.65315" lon="6.04066">
        <ele>2002.56</ele>
        <time>2016-10-09T10:18:07Z</time>
      </trkpt>
      <trkpt lat="44.65315" lon="6.04066">
        <ele>2002.56</ele>
        <time>2016-10-09T10:18:38Z</time>
      </trkpt>
      <trkpt lat="44.65315" lon="6.04066">
        <ele>2003.04</ele>
        <time>2016-10-09T10:19:07Z</time>
      </trkpt>
      <trkpt lat="44.65315" lon="6.04066">
        <ele>2002.56</ele>
        <time>2016-10-09T10:19:31Z</time>
      </trkpt>
      <trkpt lat="44.65315" lon="6.04066">
        <ele>2002.56</ele>
        <time>2016-10-09T10:20:06Z</time>
      </trkpt>
      <trkpt lat="44.65314" lon="6.04065">
        <ele>2003.04</ele>
        <time>2016-10-09T10:20:39Z</time>
      </trkpt>
      <trkpt lat="44.65314" lon="6.04065">
        <ele>2003.04</ele>
        <time>2016-10-09T10:21:04Z</time>
      </trkpt>
      <trkpt lat="44.65314" lon="6.04065">
        <ele>2003.04</ele>
        <time>2016-10-09T10:21:34Z</time>
      </trkpt>
      <trkpt lat="44.65314" lon="6.04065">
        <ele>2003.04</ele>
        <time>2016-10-09T10:22:01Z</time>
      </trkpt>
      <trkpt lat="44.65314" lon="6.04065">
        <ele>2003.04</ele>
        <time>2016-10-09T10:22:21Z</time>
      </trkpt>
      <trkpt lat="44.65314" lon="6.04065">
        <ele>2003.04</ele>
        <time>2016-10-09T10:22:54Z</time>
      </trkpt>
      <trkpt lat="44.65314" lon="6.04065">
        <ele>2003.04</ele>
        <time>2016-10-09T10:23:19Z</time>
      </trkpt>
      <trkpt lat="44.65314" lon="6.04065">
        <ele>2003.04</ele>
        <time>2016-10-09T10:23:51Z</time>
      </trkpt>
      <trkpt lat="44.65314" lon="6.04065">
        <ele>2003.04</ele>
        <time>2016-10-09T10:24:16Z</time>
      </trkpt>
      <trkpt lat="44.65314" lon="6.04066">
        <ele>2003.04</ele>
        <time>2016-10-09T10:24:45Z</time>
      </trkpt>
      <trkpt lat="44.65313" lon="6.04066">
        <ele>2003.04</ele>
        <time>2016-10-09T10:25:15Z</time>
      </trkpt>
      <trkpt lat="44.65313" lon="6.04066">
        <ele>2003.04</ele>
        <time>2016-10-09T10:25:45Z</time>
      </trkpt>
      <trkpt lat="44.65314" lon="6.04066">
        <ele>2004.01</ele>
        <time>2016-10-09T10:26:09Z</time>
      </trkpt>
      <trkpt lat="44.65314" lon="6.04066">
        <ele>2004.01</ele>
        <time>2016-10-09T10:26:39Z</time>
      </trkpt>
      <trkpt lat="44.65314" lon="6.04066">
        <ele>2004.01</ele>
        <time>2016-10-09T10:27:09Z</time>
      </trkpt>
      <trkpt lat="44.65314" lon="6.04066">
        <ele>2004.97</ele>
        <time>2016-10-09T10:27:27Z</time>
      </trkpt>
      <trkpt lat="44.65314" lon="6.04067">
        <ele>2004.49</ele>
        <time>2016-10-09T10:27:57Z</time>
      </trkpt>
      <trkpt lat="44.65314" lon="6.04066">
        <ele>2003.52</ele>
        <time>2016-10-09T10:28:16Z</time>
      </trkpt>
      <trkpt lat="44.65314" lon="6.04066">
        <ele>2003.52</ele>
        <time>2016-10-09T10:28:39Z</time>
      </trkpt>
      <trkpt lat="44.65314" lon="6.04066">
        <ele>2003.52</ele>
        <time>2016-10-09T10:29:08Z</time>
      </trkpt>
      <trkpt lat="44.65314" lon="6.04065">
        <ele>2003.04</ele>
        <time>2016-10-09T10:29:43Z</time>
      </trkpt>
      <trkpt lat="44.65314" lon="6.04065">
        <ele>2003.52</ele>
        <time>2016-10-09T10:30:12Z</time>
      </trkpt>
      <trkpt lat="44.65314" lon="6.04065">
        <ele>2003.52</ele>
        <time>2016-10-09T10:30:43Z</time>
      </trkpt>
      <trkpt lat="44.65314" lon="6.04065">
        <ele>2003.04</ele>
        <time>2016-10-09T10:31:19Z</time>
      </trkpt>
      <trkpt lat="44.65314" lon="6.04065">
        <ele>2003.04</ele>
        <time>2016-10-09T10:31:55Z</time>
      </trkpt>
      <trkpt lat="44.65314" lon="6.04064">
        <ele>2003.04</ele>
        <time>2016-10-09T10:32:27Z</time>
      </trkpt>
      <trkpt lat="44.65314" lon="6.04064">
        <ele>2003.04</ele>
        <time>2016-10-09T10:32:59Z</time>
      </trkpt>
      <trkpt lat="44.65314" lon="6.04064">
        <ele>2003.04</ele>
        <time>2016-10-09T10:33:19Z</time>
      </trkpt>
      <trkpt lat="44.65314" lon="6.04064">
        <ele>2003.04</ele>
        <time>2016-10-09T10:33:45Z</time>
      </trkpt>
      <trkpt lat="44.65314" lon="6.04065">
        <ele>2003.04</ele>
        <time>2016-10-09T10:34:10Z</time>
      </trkpt>
      <trkpt lat="44.65314" lon="6.04066">
        <ele>2003.04</ele>
        <time>2016-10-09T10:34:40Z</time>
      </trkpt>
      <trkpt lat="44.65314" lon="6.04066">
        <ele>2003.04</ele>
        <time>2016-10-09T10:35:12Z</time>
      </trkpt>
      <trkpt lat="44.65314" lon="6.04066">
        <ele>2003.04</ele>
        <time>2016-10-09T10:35:37Z</time>
      </trkpt>
      <trkpt lat="44.65314" lon="6.04066">
        <ele>2003.04</ele>
        <time>2016-10-09T10:36:04Z</time>
      </trkpt>
      <trkpt lat="44.65314" lon="6.04066">
        <ele>2003.04</ele>
        <time>2016-10-09T10:36:38Z</time>
      </trkpt>
      <trkpt lat="44.65314" lon="6.04066">
        <ele>2003.52</ele>
        <time>2016-10-09T10:37:10Z</time>
      </trkpt>
      <trkpt lat="44.65314" lon="6.04066">
        <ele>2002.56</ele>
        <time>2016-10-09T10:37:41Z</time>
      </trkpt>
      <trkpt lat="44.65314" lon="6.04066">
        <ele>2002.56</ele>
        <time>2016-10-09T10:38:11Z</time>
      </trkpt>
      <trkpt lat="44.65313" lon="6.04066">
        <ele>2002.56</ele>
        <time>2016-10-09T10:38:40Z</time>
      </trkpt>
      <trkpt lat="44.65314" lon="6.04066">
        <ele>2003.04</ele>
        <time>2016-10-09T10:39:18Z</time>
      </trkpt>
      <trkpt lat="44.65313" lon="6.04066">
        <ele>2002.56</ele>
        <time>2016-10-09T10:39:47Z</time>
      </trkpt>
      <trkpt lat="44.65313" lon="6.04066">
        <ele>2003.04</ele>
        <time>2016-10-09T10:40:20Z</time>
      </trkpt>
      <trkpt lat="44.65313" lon="6.04066">
        <ele>2002.56</ele>
        <time>2016-10-09T10:40:52Z</time>
      </trkpt>
      <trkpt lat="44.65314" lon="6.04066">
        <ele>2002.56</ele>
        <time>2016-10-09T10:41:23Z</time>
      </trkpt>
      <trkpt lat="44.65314" lon="6.04066">
        <ele>2002.56</ele>
        <time>2016-10-09T10:41:49Z</time>
      </trkpt>
      <trkpt lat="44.65314" lon="6.04066">
        <ele>2002.56</ele>
        <time>2016-10-09T10:42:23Z</time>
      </trkpt>
      <trkpt lat="44.65314" lon="6.04067">
        <ele>2002.56</ele>
        <time>2016-10-09T10:42:45Z</time>
      </trkpt>
      <trkpt lat="44.65314" lon="6.04067">
        <ele>2002.56</ele>
        <time>2016-10-09T10:43:13Z</time>
      </trkpt>
      <trkpt lat="44.65314" lon="6.04067">
        <ele>2003.04</ele>
        <time>2016-10-09T10:43:40Z</time>
      </trkpt>
      <trkpt lat="44.65314" lon="6.04066">
        <ele>2002.56</ele>
        <time>2016-10-09T10:44:01Z</time>
      </trkpt>
      <trkpt lat="44.65314" lon="6.04066">
        <ele>2002.56</ele>
        <time>2016-10-09T10:44:26Z</time>
      </trkpt>
      <trkpt lat="44.65314" lon="6.04066">
        <ele>2002.56</ele>
        <time>2016-10-09T10:45:00Z</time>
      </trkpt>
      <trkpt lat="44.65314" lon="6.04066">
        <ele>2003.04</ele>
        <time>2016-10-09T10:45:30Z</time>
      </trkpt>
      <trkpt lat="44.65314" lon="6.04066">
        <ele>2003.04</ele>
        <time>2016-10-09T10:46:01Z</time>
      </trkpt>
      <trkpt lat="44.65314" lon="6.04066">
        <ele>2003.04</ele>
        <time>2016-10-09T10:46:30Z</time>
      </trkpt>
      <trkpt lat="44.65314" lon="6.04066">
        <ele>2003.04</ele>
        <time>2016-10-09T10:47:01Z</time>
      </trkpt>
      <trkpt lat="44.65314" lon="6.04066">
        <ele>2003.04</ele>
        <time>2016-10-09T10:47:32Z</time>
      </trkpt>
      <trkpt lat="44.65314" lon="6.04066">
        <ele>2003.04</ele>
        <time>2016-10-09T10:48:03Z</time>
      </trkpt>
      <trkpt lat="44.65314" lon="6.04066">
        <ele>2003.04</ele>
        <time>2016-10-09T10:48:32Z</time>
      </trkpt>
      <trkpt lat="44.65314" lon="6.04066">
        <ele>2003.04</ele>
        <time>2016-10-09T10:49:04Z</time>
      </trkpt>
      <trkpt lat="44.65314" lon="6.04065">
        <ele>2003.04</ele>
        <time>2016-10-09T10:49:36Z</time>
      </trkpt>
      <trkpt lat="44.65314" lon="6.04065">
        <ele>2003.04</ele>
        <time>2016-10-09T10:50:00Z</time>
      </trkpt>
      <trkpt lat="44.65314" lon="6.04065">
        <ele>2003.52</ele>
        <time>2016-10-09T10:50:22Z</time>
      </trkpt>
      <trkpt lat="44.65314" lon="6.04065">
        <ele>2003.04</ele>
        <time>2016-10-09T10:50:53Z</time>
      </trkpt>
      <trkpt lat="44.65314" lon="6.04065">
        <ele>2003.52</ele>
        <time>2016-10-09T10:51:18Z</time>
      </trkpt>
      <trkpt lat="44.65314" lon="6.04064">
        <ele>2003.52</ele>
        <time>2016-10-09T10:51:38Z</time>
      </trkpt>
      <trkpt lat="44.65314" lon="6.04064">
        <ele>2003.04</ele>
        <time>2016-10-09T10:51:51Z</time>
      </trkpt>
      <trkpt lat="44.65314" lon="6.04065">
        <ele>2003.52</ele>
        <time>2016-10-09T10:52:14Z</time>
      </trkpt>
      <trkpt lat="44.65314" lon="6.04065">
        <ele>2003.04</ele>
        <time>2016-10-09T10:52:34Z</time>
      </trkpt>
      <trkpt lat="44.65314" lon="6.04064">
        <ele>2003.52</ele>
        <time>2016-10-09T10:53:04Z</time>
      </trkpt>
      <trkpt lat="44.65314" lon="6.04065">
        <ele>2003.52</ele>
        <time>2016-10-09T10:53:24Z</time>
      </trkpt>
      <trkpt lat="44.65314" lon="6.04065">
        <ele>2003.52</ele>
        <time>2016-10-09T10:53:53Z</time>
      </trkpt>
      <trkpt lat="44.65314" lon="6.04065">
        <ele>2003.52</ele>
        <time>2016-10-09T10:54:27Z</time>
      </trkpt>
      <trkpt lat="44.65314" lon="6.04066">
        <ele>2003.04</ele>
        <time>2016-10-09T10:54:58Z</time>
      </trkpt>
      <trkpt lat="44.65314" lon="6.04066">
        <ele>2003.52</ele>
        <time>2016-10-09T10:55:28Z</time>
      </trkpt>
      <trkpt lat="44.65315" lon="6.04066">
        <ele>2004.01</ele>
        <time>2016-10-09T10:55:44Z</time>
      </trkpt>
      <trkpt lat="44.65315" lon="6.04066">
        <ele>2003.52</ele>
        <time>2016-10-09T10:56:06Z</time>
      </trkpt>
      <trkpt lat="44.65315" lon="6.04066">
        <ele>2003.52</ele>
        <time>2016-10-09T10:56:33Z</time>
      </trkpt>
      <trkpt lat="44.65315" lon="6.04066">
        <ele>2004.01</ele>
        <time>2016-10-09T10:56:56Z</time>
      </trkpt>
      <trkpt lat="44.65315" lon="6.04066">
        <ele>2003.52</ele>
        <time>2016-10-09T10:57:23Z</time>
      </trkpt>
      <trkpt lat="44.65315" lon="6.04066">
        <ele>2004.01</ele>
        <time>2016-10-09T10:57:53Z</time>
      </trkpt>
      <trkpt lat="44.65315" lon="6.04066">
        <ele>2004.01</ele>
        <time>2016-10-09T10:58:09Z</time>
      </trkpt>
      <trkpt lat="44.65315" lon="6.04065">
        <ele>2004.01</ele>
        <time>2016-10-09T10:58:32Z</time>
      </trkpt>
      <trkpt lat="44.65315" lon="6.04066">
        <ele>2004.01</ele>
        <time>2016-10-09T10:58:50Z</time>
      </trkpt>
      <trkpt lat="44.65318" lon="6.04063">
        <ele>2004.01</ele>
        <time>2016-10-09T10:59:02Z</time>
      </trkpt>
      <trkpt lat="44.65318" lon="6.04063">
        <ele>2004.01</ele>
        <time>2016-10-09T10:59:06Z</time>
      </trkpt>
      <trkpt lat="44.65317" lon="6.04068">
        <ele>2004.97</ele>
        <time>2016-10-09T10:59:15Z</time>
      </trkpt>
      <trkpt lat="44.65313" lon="6.04077">
        <ele>2003.52</ele>
        <time>2016-10-09T10:59:23Z</time>
      </trkpt>
      <trkpt lat="44.65308" lon="6.0409">
        <ele>2001.6</ele>
        <time>2016-10-09T10:59:32Z</time>
      </trkpt>
      <trkpt lat="44.653" lon="6.04105">
        <ele>2000.16</ele>
        <time>2016-10-09T10:59:44Z</time>
      </trkpt>
      <trkpt lat="44.65293" lon="6.04116">
        <ele>1998.72</ele>
        <time>2016-10-09T10:59:53Z</time>
      </trkpt>
      <trkpt lat="44.65292" lon="6.04118">
        <ele>1998.24</ele>
        <time>2016-10-09T10:59:55Z</time>
      </trkpt>
      <trkpt lat="44.65289" lon="6.04123">
        <ele>1996.8</ele>
        <time>2016-10-09T11:00:06Z</time>
      </trkpt>
      <trkpt lat="44.65289" lon="6.04124">
        <ele>1996.8</ele>
        <time>2016-10-09T11:00:07Z</time>
      </trkpt>
      <trkpt lat="44.6528" lon="6.04135">
        <ele>1993.91</ele>
        <time>2016-10-09T11:00:20Z</time>
      </trkpt>
      <trkpt lat="44.65274" lon="6.04141">
        <ele>1991.51</ele>
        <time>2016-10-09T11:00:33Z</time>
      </trkpt>
      <trkpt lat="44.65271" lon="6.04142">
        <ele>1990.55</ele>
        <time>2016-10-09T11:00:38Z</time>
      </trkpt>
      <trkpt lat="44.65269" lon="6.04144">
        <ele>1989.59</ele>
        <time>2016-10-09T11:00:40Z</time>
      </trkpt>
      <trkpt lat="44.6526" lon="6.04153">
        <ele>1987.66</ele>
        <time>2016-10-09T11:00:51Z</time>
      </trkpt>
      <trkpt lat="44.65254" lon="6.04164">
        <ele>1986.22</ele>
        <time>2016-10-09T11:01:01Z</time>
      </trkpt>
      <trkpt lat="44.65253" lon="6.04166">
        <ele>1986.22</ele>
        <time>2016-10-09T11:01:02Z</time>
      </trkpt>
      <trkpt lat="44.65246" lon="6.04184">
        <ele>1986.22</ele>
        <time>2016-10-09T11:01:14Z</time>
      </trkpt>
      <trkpt lat="44.65245" lon="6.04188">
        <ele>1986.22</ele>
        <time>2016-10-09T11:01:29Z</time>
      </trkpt>
      <trkpt lat="44.65244" lon="6.04188">
        <ele>1986.7</ele>
        <time>2016-10-09T11:01:30Z</time>
      </trkpt>
      <trkpt lat="44.65243" lon="6.0419">
        <ele>1986.7</ele>
        <time>2016-10-09T11:01:32Z</time>
      </trkpt>
      <trkpt lat="44.65235" lon="6.04203">
        <ele>1987.18</ele>
        <time>2016-10-09T11:01:42Z</time>
      </trkpt>
      <trkpt lat="44.65231" lon="6.04212">
        <ele>1987.66</ele>
        <time>2016-10-09T11:01:50Z</time>
      </trkpt>
      <trkpt lat="44.65227" lon="6.0422">
        <ele>1988.14</ele>
        <time>2016-10-09T11:01:57Z</time>
      </trkpt>
      <trkpt lat="44.65226" lon="6.04224">
        <ele>1988.62</ele>
        <time>2016-10-09T11:02:01Z</time>
      </trkpt>
      <trkpt lat="44.6522" lon="6.04236">
        <ele>1989.1</ele>
        <time>2016-10-09T11:02:10Z</time>
      </trkpt>
      <trkpt lat="44.65215" lon="6.0425">
        <ele>1990.07</ele>
        <time>2016-10-09T11:02:21Z</time>
      </trkpt>
      <trkpt lat="44.65215" lon="6.04252">
        <ele>1990.07</ele>
        <time>2016-10-09T11:02:22Z</time>
      </trkpt>
      <trkpt lat="44.6521" lon="6.0426">
        <ele>1990.07</ele>
        <time>2016-10-09T11:02:29Z</time>
      </trkpt>
      <trkpt lat="44.65203" lon="6.04275">
        <ele>1990.55</ele>
        <time>2016-10-09T11:02:40Z</time>
      </trkpt>
      <trkpt lat="44.65201" lon="6.04278">
        <ele>1990.55</ele>
        <time>2016-10-09T11:02:43Z</time>
      </trkpt>
      <trkpt lat="44.65197" lon="6.04289">
        <ele>1991.51</ele>
        <time>2016-10-09T11:02:53Z</time>
      </trkpt>
      <trkpt lat="44.65191" lon="6.04298">
        <ele>1991.99</ele>
        <time>2016-10-09T11:03:03Z</time>
      </trkpt>
      <trkpt lat="44.65187" lon="6.04304">
        <ele>1992.47</ele>
        <time>2016-10-09T11:03:08Z</time>
      </trkpt>
      <trkpt lat="44.65182" lon="6.04315">
        <ele>1993.43</ele>
        <time>2016-10-09T11:03:18Z</time>
      </trkpt>
      <trkpt lat="44.65175" lon="6.04325">
        <ele>1994.39</ele>
        <time>2016-10-09T11:03:27Z</time>
      </trkpt>
      <trkpt lat="44.65175" lon="6.04326">
        <ele>1994.39</ele>
        <time>2016-10-09T11:03:28Z</time>
      </trkpt>
      <trkpt lat="44.65172" lon="6.0434">
        <ele>1995.83</ele>
        <time>2016-10-09T11:03:39Z</time>
      </trkpt>
      <trkpt lat="44.65166" lon="6.04351">
        <ele>1996.32</ele>
        <time>2016-10-09T11:03:49Z</time>
      </trkpt>
      <trkpt lat="44.65162" lon="6.04361">
        <ele>1997.28</ele>
        <time>2016-10-09T11:03:57Z</time>
      </trkpt>
      <trkpt lat="44.65159" lon="6.04369">
        <ele>1998.24</ele>
        <time>2016-10-09T11:04:05Z</time>
      </trkpt>
      <trkpt lat="44.65154" lon="6.04383">
        <ele>1999.2</ele>
        <time>2016-10-09T11:04:16Z</time>
      </trkpt>
      <trkpt lat="44.65153" lon="6.04387">
        <ele>1999.68</ele>
        <time>2016-10-09T11:04:20Z</time>
      </trkpt>
      <trkpt lat="44.65152" lon="6.04394">
        <ele>2000.16</ele>
        <time>2016-10-09T11:04:26Z</time>
      </trkpt>
      <trkpt lat="44.65146" lon="6.04404">
        <ele>2000.64</ele>
        <time>2016-10-09T11:04:37Z</time>
      </trkpt>
      <trkpt lat="44.65144" lon="6.04411">
        <ele>2001.6</ele>
        <time>2016-10-09T11:04:43Z</time>
      </trkpt>
      <trkpt lat="44.65139" lon="6.04422">
        <ele>2002.08</ele>
        <time>2016-10-09T11:04:54Z</time>
      </trkpt>
      <trkpt lat="44.65133" lon="6.04434">
        <ele>2002.08</ele>
        <time>2016-10-09T11:05:04Z</time>
      </trkpt>
      <trkpt lat="44.65132" lon="6.04435">
        <ele>2002.08</ele>
        <time>2016-10-09T11:05:05Z</time>
      </trkpt>
      <trkpt lat="44.65128" lon="6.04445">
        <ele>2002.08</ele>
        <time>2016-10-09T11:05:15Z</time>
      </trkpt>
      <trkpt lat="44.65127" lon="6.04445">
        <ele>2003.04</ele>
        <time>2016-10-09T11:05:29Z</time>
      </trkpt>
      <trkpt lat="44.65126" lon="6.04445">
        <ele>2003.04</ele>
        <time>2016-10-09T11:05:51Z</time>
      </trkpt>
      <trkpt lat="44.65126" lon="6.04445">
        <ele>2003.04</ele>
        <time>2016-10-09T11:06:26Z</time>
      </trkpt>
      <trkpt lat="44.65126" lon="6.04445">
        <ele>2003.04</ele>
        <time>2016-10-09T11:06:51Z</time>
      </trkpt>
      <trkpt lat="44.65125" lon="6.04447">
        <ele>2003.04</ele>
        <time>2016-10-09T11:07:14Z</time>
      </trkpt>
      <trkpt lat="44.65125" lon="6.04454">
        <ele>2002.56</ele>
        <time>2016-10-09T11:07:23Z</time>
      </trkpt>
      <trkpt lat="44.65125" lon="6.04457">
        <ele>2002.08</ele>
        <time>2016-10-09T11:07:26Z</time>
      </trkpt>
      <trkpt lat="44.65124" lon="6.04463">
        <ele>2001.12</ele>
        <time>2016-10-09T11:07:32Z</time>
      </trkpt>
      <trkpt lat="44.65122" lon="6.0447">
        <ele>2000.64</ele>
        <time>2016-10-09T11:07:40Z</time>
      </trkpt>
      <trkpt lat="44.6512" lon="6.04478">
        <ele>1999.68</ele>
        <time>2016-10-09T11:07:49Z</time>
      </trkpt>
      <trkpt lat="44.65119" lon="6.04483">
        <ele>1999.2</ele>
        <time>2016-10-09T11:07:54Z</time>
      </trkpt>
      <trkpt lat="44.65116" lon="6.04488">
        <ele>1999.68</ele>
        <time>2016-10-09T11:07:59Z</time>
      </trkpt>
      <trkpt lat="44.65111" lon="6.04502">
        <ele>1999.68</ele>
        <time>2016-10-09T11:08:12Z</time>
      </trkpt>
      <trkpt lat="44.65107" lon="6.04508">
        <ele>1998.72</ele>
        <time>2016-10-09T11:08:18Z</time>
      </trkpt>
      <trkpt lat="44.65097" lon="6.04515">
        <ele>1996.32</ele>
        <time>2016-10-09T11:08:28Z</time>
      </trkpt>
      <trkpt lat="44.65087" lon="6.04523">
        <ele>1994.87</ele>
        <time>2016-10-09T11:08:38Z</time>
      </trkpt>
      <trkpt lat="44.65082" lon="6.04527">
        <ele>1994.39</ele>
        <time>2016-10-09T11:08:44Z</time>
      </trkpt>
      <trkpt lat="44.65072" lon="6.04538">
        <ele>1992.95</ele>
        <time>2016-10-09T11:08:55Z</time>
      </trkpt>
      <trkpt lat="44.65064" lon="6.0455">
        <ele>1991.51</ele>
        <time>2016-10-09T11:09:06Z</time>
      </trkpt>
      <trkpt lat="44.65062" lon="6.04552">
        <ele>1990.55</ele>
        <time>2016-10-09T11:09:09Z</time>
      </trkpt>
      <trkpt lat="44.65059" lon="6.04557">
        <ele>1990.07</ele>
        <time>2016-10-09T11:09:13Z</time>
      </trkpt>
      <trkpt lat="44.65054" lon="6.04565">
        <ele>1989.1</ele>
        <time>2016-10-09T11:09:21Z</time>
      </trkpt>
      <trkpt lat="44.65048" lon="6.04575">
        <ele>1987.18</ele>
        <time>2016-10-09T11:09:32Z</time>
      </trkpt>
      <trkpt lat="44.65046" lon="6.04577">
        <ele>1987.18</ele>
        <time>2016-10-09T11:09:35Z</time>
      </trkpt>
      <trkpt lat="44.65035" lon="6.04588">
        <ele>1986.22</ele>
        <time>2016-10-09T11:09:46Z</time>
      </trkpt>
      <trkpt lat="44.65027" lon="6.04596">
        <ele>1985.74</ele>
        <time>2016-10-09T11:09:56Z</time>
      </trkpt>
      <trkpt lat="44.65025" lon="6.04599">
        <ele>1984.3</ele>
        <time>2016-10-09T11:10:19Z</time>
      </trkpt>
      <trkpt lat="44.65023" lon="6.04601">
        <ele>1984.3</ele>
        <time>2016-10-09T11:10:21Z</time>
      </trkpt>
      <trkpt lat="44.65017" lon="6.04603">
        <ele>1981.41</ele>
        <time>2016-10-09T11:10:31Z</time>
      </trkpt>
      <trkpt lat="44.65012" lon="6.04603">
        <ele>1978.53</ele>
        <time>2016-10-09T11:10:42Z</time>
      </trkpt>
      <trkpt lat="44.65009" lon="6.04604">
        <ele>1977.57</ele>
        <time>2016-10-09T11:10:46Z</time>
      </trkpt>
      <trkpt lat="44.65002" lon="6.04601">
        <ele>1974.2</ele>
        <time>2016-10-09T11:10:56Z</time>
      </trkpt>
      <trkpt lat="44.64999" lon="6.046">
        <ele>1972.76</ele>
        <time>2016-10-09T11:11:02Z</time>
      </trkpt>
      <trkpt lat="44.64994" lon="6.04603">
        <ele>1969.88</ele>
        <time>2016-10-09T11:11:11Z</time>
      </trkpt>
      <trkpt lat="44.64991" lon="6.04606">
        <ele>1966.51</ele>
        <time>2016-10-09T11:11:19Z</time>
      </trkpt>
      <trkpt lat="44.64982" lon="6.04603">
        <ele>1962.67</ele>
        <time>2016-10-09T11:11:31Z</time>
      </trkpt>
      <trkpt lat="44.64982" lon="6.04603">
        <ele>1962.19</ele>
        <time>2016-10-09T11:11:34Z</time>
      </trkpt>
      <trkpt lat="44.64976" lon="6.04606">
        <ele>1960.27</ele>
        <time>2016-10-09T11:11:40Z</time>
      </trkpt>
      <trkpt lat="44.64972" lon="6.04606">
        <ele>1957.86</ele>
        <time>2016-10-09T11:11:51Z</time>
      </trkpt>
      <trkpt lat="44.64968" lon="6.04607">
        <ele>1955.46</ele>
        <time>2016-10-09T11:12:00Z</time>
      </trkpt>
      <trkpt lat="44.64966" lon="6.04609">
        <ele>1954.98</ele>
        <time>2016-10-09T11:12:03Z</time>
      </trkpt>
      <trkpt lat="44.6496" lon="6.04605">
        <ele>1951.61</ele>
        <time>2016-10-09T11:12:09Z</time>
      </trkpt>
      <trkpt lat="44.64953" lon="6.04603">
        <ele>1948.73</ele>
        <time>2016-10-09T11:12:19Z</time>
      </trkpt>
      <trkpt lat="44.64952" lon="6.04603">
        <ele>1948.25</ele>
        <time>2016-10-09T11:12:20Z</time>
      </trkpt>
      <trkpt lat="44.64945" lon="6.04605">
        <ele>1945.85</ele>
        <time>2016-10-09T11:12:27Z</time>
      </trkpt>
      <trkpt lat="44.64937" lon="6.04607">
        <ele>1943.92</ele>
        <time>2016-10-09T11:12:38Z</time>
      </trkpt>
      <trkpt lat="44.64929" lon="6.04611">
        <ele>1943.44</ele>
        <time>2016-10-09T11:12:44Z</time>
      </trkpt>
      <trkpt lat="44.64918" lon="6.04617">
        <ele>1942</ele>
        <time>2016-10-09T11:12:53Z</time>
      </trkpt>
      <trkpt lat="44.64906" lon="6.04621">
        <ele>1940.56</ele>
        <time>2016-10-09T11:13:02Z</time>
      </trkpt>
      <trkpt lat="44.649" lon="6.04623">
        <ele>1938.64</ele>
        <time>2016-10-09T11:13:10Z</time>
      </trkpt>
      <trkpt lat="44.64896" lon="6.04625">
        <ele>1937.19</ele>
        <time>2016-10-09T11:13:25Z</time>
      </trkpt>
      <trkpt lat="44.64891" lon="6.04625">
        <ele>1935.27</ele>
        <time>2016-10-09T11:13:33Z</time>
      </trkpt>
      <trkpt lat="44.64878" lon="6.04626">
        <ele>1931.91</ele>
        <time>2016-10-09T11:13:44Z</time>
      </trkpt>
      <trkpt lat="44.64873" lon="6.04628">
        <ele>1929.98</ele>
        <time>2016-10-09T11:13:49Z</time>
      </trkpt>
      <trkpt lat="44.64862" lon="6.04629">
        <ele>1927.1</ele>
        <time>2016-10-09T11:14:00Z</time>
      </trkpt>
      <trkpt lat="44.64851" lon="6.0463">
        <ele>1923.74</ele>
        <time>2016-10-09T11:14:10Z</time>
      </trkpt>
      <trkpt lat="44.64846" lon="6.04631">
        <ele>1922.77</ele>
        <time>2016-10-09T11:14:13Z</time>
      </trkpt>
      <trkpt lat="44.64826" lon="6.04636">
        <ele>1920.37</ele>
        <time>2016-10-09T11:14:26Z</time>
      </trkpt>
      <trkpt lat="44.64822" lon="6.04637">
        <ele>1920.37</ele>
        <time>2016-10-09T11:14:30Z</time>
      </trkpt>
      <trkpt lat="44.64815" lon="6.04639">
        <ele>1919.89</ele>
        <time>2016-10-09T11:14:35Z</time>
      </trkpt>
      <trkpt lat="44.64798" lon="6.04645">
        <ele>1920.37</ele>
        <time>2016-10-09T11:14:48Z</time>
      </trkpt>
      <trkpt lat="44.64794" lon="6.04648">
        <ele>1919.89</ele>
        <time>2016-10-09T11:14:52Z</time>
      </trkpt>
      <trkpt lat="44.64779" lon="6.04652">
        <ele>1919.41</ele>
        <time>2016-10-09T11:15:04Z</time>
      </trkpt>
      <trkpt lat="44.64769" lon="6.04655">
        <ele>1918.45</ele>
        <time>2016-10-09T11:15:11Z</time>
      </trkpt>
      <trkpt lat="44.64765" lon="6.04657">
        <ele>1918.45</ele>
        <time>2016-10-09T11:15:16Z</time>
      </trkpt>
      <trkpt lat="44.64756" lon="6.0466">
        <ele>1917.01</ele>
        <time>2016-10-09T11:15:27Z</time>
      </trkpt>
      <trkpt lat="44.64751" lon="6.04661">
        <ele>1917.01</ele>
        <time>2016-10-09T11:15:38Z</time>
      </trkpt>
      <trkpt lat="44.64751" lon="6.04662">
        <ele>1917.01</ele>
        <time>2016-10-09T11:15:54Z</time>
      </trkpt>
      <trkpt lat="44.6475" lon="6.04662">
        <ele>1917.01</ele>
        <time>2016-10-09T11:16:17Z</time>
      </trkpt>
      <trkpt lat="44.6475" lon="6.04662">
        <ele>1917.49</ele>
        <time>2016-10-09T11:16:50Z</time>
      </trkpt>
      <trkpt lat="44.6475" lon="6.04662">
        <ele>1917.49</ele>
        <time>2016-10-09T11:17:07Z</time>
      </trkpt>
      <trkpt lat="44.6475" lon="6.04664">
        <ele>1917.49</ele>
        <time>2016-10-09T11:17:21Z</time>
      </trkpt>
      <trkpt lat="44.64749" lon="6.04662">
        <ele>1917.49</ele>
        <time>2016-10-09T11:17:43Z</time>
      </trkpt>
      <trkpt lat="44.64749" lon="6.04662">
        <ele>1916.53</ele>
        <time>2016-10-09T11:18:02Z</time>
      </trkpt>
      <trkpt lat="44.6475" lon="6.04662">
        <ele>1917.49</ele>
        <time>2016-10-09T11:18:08Z</time>
      </trkpt>
      <trkpt lat="44.64759" lon="6.0466">
        <ele>1918.45</ele>
        <time>2016-10-09T11:18:17Z</time>
      </trkpt>
      <trkpt lat="44.64764" lon="6.04662">
        <ele>1917.49</ele>
        <time>2016-10-09T11:18:21Z</time>
      </trkpt>
      <trkpt lat="44.64777" lon="6.04662">
        <ele>1915.56</ele>
        <time>2016-10-09T11:18:32Z</time>
      </trkpt>
      <trkpt lat="44.64789" lon="6.04662">
        <ele>1914.12</ele>
        <time>2016-10-09T11:18:42Z</time>
      </trkpt>
      <trkpt lat="44.6479" lon="6.04662">
        <ele>1914.12</ele>
        <time>2016-10-09T11:18:43Z</time>
      </trkpt>
      <trkpt lat="44.64801" lon="6.04663">
        <ele>1912.2</ele>
        <time>2016-10-09T11:18:54Z</time>
      </trkpt>
      <trkpt lat="44.64815" lon="6.04664">
        <ele>1909.8</ele>
        <time>2016-10-09T11:19:06Z</time>
      </trkpt>
      <trkpt lat="44.64823" lon="6.04666">
        <ele>1908.35</ele>
        <time>2016-10-09T11:19:12Z</time>
      </trkpt>
      <trkpt lat="44.64829" lon="6.0467">
        <ele>1907.39</ele>
        <time>2016-10-09T11:19:16Z</time>
      </trkpt>
      <trkpt lat="44.6484" lon="6.04676">
        <ele>1905.95</ele>
        <time>2016-10-09T11:19:27Z</time>
      </trkpt>
      <trkpt lat="44.64846" lon="6.04679">
        <ele>1905.47</ele>
        <time>2016-10-09T11:19:32Z</time>
      </trkpt>
      <trkpt lat="44.64851" lon="6.04683">
        <ele>1904.99</ele>
        <time>2016-10-09T11:19:35Z</time>
      </trkpt>
      <trkpt lat="44.6486" lon="6.04689">
        <ele>1902.59</ele>
        <time>2016-10-09T11:19:45Z</time>
      </trkpt>
      <trkpt lat="44.64867" lon="6.04693">
        <ele>1901.14</ele>
        <time>2016-10-09T11:19:53Z</time>
      </trkpt>
      <trkpt lat="44.64878" lon="6.04697">
        <ele>1900.66</ele>
        <time>2016-10-09T11:20:02Z</time>
      </trkpt>
      <trkpt lat="44.6488" lon="6.04698">
        <ele>1900.66</ele>
        <time>2016-10-09T11:20:04Z</time>
      </trkpt>
      <trkpt lat="44.6489" lon="6.04705">
        <ele>1899.7</ele>
        <time>2016-10-09T11:20:15Z</time>
      </trkpt>
      <trkpt lat="44.64894" lon="6.04709">
        <ele>1898.74</ele>
        <time>2016-10-09T11:20:18Z</time>
      </trkpt>
      <trkpt lat="44.64899" lon="6.04713">
        <ele>1897.78</ele>
        <time>2016-10-09T11:20:24Z</time>
      </trkpt>
      <trkpt lat="44.64901" lon="6.04715">
        <ele>1896.82</ele>
        <time>2016-10-09T11:20:27Z</time>
      </trkpt>
      <trkpt lat="44.64909" lon="6.04719">
        <ele>1895.86</ele>
        <time>2016-10-09T11:20:33Z</time>
      </trkpt>
      <trkpt lat="44.64917" lon="6.04731">
        <ele>1893.45</ele>
        <time>2016-10-09T11:20:45Z</time>
      </trkpt>
      <trkpt lat="44.64918" lon="6.04733">
        <ele>1892.97</ele>
        <time>2016-10-09T11:20:46Z</time>
      </trkpt>
      <trkpt lat="44.64923" lon="6.04743">
        <ele>1891.53</ele>
        <time>2016-10-09T11:20:57Z</time>
      </trkpt>
      <trkpt lat="44.64925" lon="6.04748">
        <ele>1890.57</ele>
        <time>2016-10-09T11:21:02Z</time>
      </trkpt>
      <trkpt lat="44.64927" lon="6.04751">
        <ele>1890.09</ele>
        <time>2016-10-09T11:21:04Z</time>
      </trkpt>
      <trkpt lat="44.64929" lon="6.04757">
        <ele>1889.61</ele>
        <time>2016-10-09T11:21:08Z</time>
      </trkpt>
      <trkpt lat="44.64935" lon="6.04771">
        <ele>1888.17</ele>
        <time>2016-10-09T11:21:17Z</time>
      </trkpt>
      <trkpt lat="44.64939" lon="6.0478">
        <ele>1885.76</ele>
        <time>2016-10-09T11:21:25Z</time>
      </trkpt>
      <trkpt lat="44.64946" lon="6.04794">
        <ele>1883.84</ele>
        <time>2016-10-09T11:21:37Z</time>
      </trkpt>
      <trkpt lat="44.64949" lon="6.04797">
        <ele>1882.88</ele>
        <time>2016-10-09T11:21:40Z</time>
      </trkpt>
      <trkpt lat="44.64952" lon="6.04808">
        <ele>1880.96</ele>
        <time>2016-10-09T11:21:50Z</time>
      </trkpt>
      <trkpt lat="44.64956" lon="6.04815">
        <ele>1879.03</ele>
        <time>2016-10-09T11:22:01Z</time>
      </trkpt>
      <trkpt lat="44.64955" lon="6.04815">
        <ele>1879.03</ele>
        <time>2016-10-09T11:22:02Z</time>
      </trkpt>
      <trkpt lat="44.64952" lon="6.04813">
        <ele>1878.07</ele>
        <time>2016-10-09T11:22:05Z</time>
      </trkpt>
      <trkpt lat="44.64946" lon="6.04814">
        <ele>1875.67</ele>
        <time>2016-10-09T11:22:11Z</time>
      </trkpt>
      <trkpt lat="44.64938" lon="6.04813">
        <ele>1872.79</ele>
        <time>2016-10-09T11:22:24Z</time>
      </trkpt>
      <trkpt lat="44.64941" lon="6.04815">
        <ele>1872.3</ele>
        <time>2016-10-09T11:22:27Z</time>
      </trkpt>
      <trkpt lat="44.64942" lon="6.04821">
        <ele>1870.38</ele>
        <time>2016-10-09T11:22:32Z</time>
      </trkpt>
      <trkpt lat="44.64947" lon="6.04829">
        <ele>1867.98</ele>
        <time>2016-10-09T11:22:42Z</time>
      </trkpt>
      <trkpt lat="44.64953" lon="6.04842">
        <ele>1864.61</ele>
        <time>2016-10-09T11:22:53Z</time>
      </trkpt>
      <trkpt lat="44.64953" lon="6.04845">
        <ele>1863.17</ele>
        <time>2016-10-09T11:22:56Z</time>
      </trkpt>
      <trkpt lat="44.64951" lon="6.04847">
        <ele>1861.73</ele>
        <time>2016-10-09T11:23:02Z</time>
      </trkpt>
      <trkpt lat="44.64953" lon="6.0485">
        <ele>1861.73</ele>
        <time>2016-10-09T11:23:07Z</time>
      </trkpt>
      <trkpt lat="44.64954" lon="6.04853">
        <ele>1859.81</ele>
        <time>2016-10-09T11:23:16Z</time>
      </trkpt>
      <trkpt lat="44.64956" lon="6.04856">
        <ele>1858.85</ele>
        <time>2016-10-09T11:23:18Z</time>
      </trkpt>
      <trkpt lat="44.64958" lon="6.04867">
        <ele>1856.44</ele>
        <time>2016-10-09T11:23:26Z</time>
      </trkpt>
      <trkpt lat="44.64961" lon="6.04882">
        <ele>1853.08</ele>
        <time>2016-10-09T11:23:38Z</time>
      </trkpt>
      <trkpt lat="44.64965" lon="6.04888">
        <ele>1850.19</ele>
        <time>2016-10-09T11:23:49Z</time>
      </trkpt>
      <trkpt lat="44.64963" lon="6.04894">
        <ele>1848.27</ele>
        <time>2016-10-09T11:23:57Z</time>
      </trkpt>
      <trkpt lat="44.64959" lon="6.04896">
        <ele>1846.83</ele>
        <time>2016-10-09T11:24:02Z</time>
      </trkpt>
      <trkpt lat="44.64966" lon="6.04904">
        <ele>1844.43</ele>
        <time>2016-10-09T11:24:13Z</time>
      </trkpt>
      <trkpt lat="44.64966" lon="6.04907">
        <ele>1843.95</ele>
        <time>2016-10-09T11:24:15Z</time>
      </trkpt>
      <trkpt lat="44.64961" lon="6.04914">
        <ele>1842.98</ele>
        <time>2016-10-09T11:24:22Z</time>
      </trkpt>
      <trkpt lat="44.64957" lon="6.04919">
        <ele>1840.58</ele>
        <time>2016-10-09T11:24:32Z</time>
      </trkpt>
      <trkpt lat="44.64964" lon="6.04931">
        <ele>1837.7</ele>
        <time>2016-10-09T11:24:45Z</time>
      </trkpt>
      <trkpt lat="44.64965" lon="6.04936">
        <ele>1836.74</ele>
        <time>2016-10-09T11:24:48Z</time>
      </trkpt>
      <trkpt lat="44.6496" lon="6.04946">
        <ele>1835.77</ele>
        <time>2016-10-09T11:24:54Z</time>
      </trkpt>
      <trkpt lat="44.64954" lon="6.04961">
        <ele>1832.41</ele>
        <time>2016-10-09T11:25:07Z</time>
      </trkpt>
      <trkpt lat="44.64954" lon="6.04962">
        <ele>1831.93</ele>
        <time>2016-10-09T11:25:08Z</time>
      </trkpt>
      <trkpt lat="44.64956" lon="6.04967">
        <ele>1830.97</ele>
        <time>2016-10-09T11:25:12Z</time>
      </trkpt>
      <trkpt lat="44.64954" lon="6.0497">
        <ele>1830.01</ele>
        <time>2016-10-09T11:25:16Z</time>
      </trkpt>
      <trkpt lat="44.64943" lon="6.04967">
        <ele>1828.08</ele>
        <time>2016-10-09T11:25:26Z</time>
      </trkpt>
      <trkpt lat="44.64939" lon="6.04959">
        <ele>1826.16</ele>
        <time>2016-10-09T11:25:33Z</time>
      </trkpt>
      <trkpt lat="44.64934" lon="6.04955">
        <ele>1825.2</ele>
        <time>2016-10-09T11:25:42Z</time>
      </trkpt>
      <trkpt lat="44.64927" lon="6.04944">
        <ele>1821.35</ele>
        <time>2016-10-09T11:25:53Z</time>
      </trkpt>
      <trkpt lat="44.64927" lon="6.04943">
        <ele>1821.35</ele>
        <time>2016-10-09T11:25:54Z</time>
      </trkpt>
      <trkpt lat="44.64923" lon="6.04936">
        <ele>1819.43</ele>
        <time>2016-10-09T11:26:01Z</time>
      </trkpt>
      <trkpt lat="44.64913" lon="6.04927">
        <ele>1817.51</ele>
        <time>2016-10-09T11:26:11Z</time>
      </trkpt>
      <trkpt lat="44.64912" lon="6.04927">
        <ele>1817.51</ele>
        <time>2016-10-09T11:26:12Z</time>
      </trkpt>
      <trkpt lat="44.64901" lon="6.04916">
        <ele>1814.63</ele>
        <time>2016-10-09T11:26:25Z</time>
      </trkpt>
      <trkpt lat="44.64906" lon="6.04922">
        <ele>1814.15</ele>
        <time>2016-10-09T11:26:32Z</time>
      </trkpt>
      <trkpt lat="44.64909" lon="6.04939">
        <ele>1811.26</ele>
        <time>2016-10-09T11:26:42Z</time>
      </trkpt>
      <trkpt lat="44.6491" lon="6.04953">
        <ele>1809.34</ele>
        <time>2016-10-09T11:26:53Z</time>
      </trkpt>
      <trkpt lat="44.6491" lon="6.04955">
        <ele>1808.86</ele>
        <time>2016-10-09T11:26:55Z</time>
      </trkpt>
      <trkpt lat="44.6491" lon="6.04967">
        <ele>1806.94</ele>
        <time>2016-10-09T11:27:04Z</time>
      </trkpt>
      <trkpt lat="44.64909" lon="6.04979">
        <ele>1805.01</ele>
        <time>2016-10-09T11:27:14Z</time>
      </trkpt>
      <trkpt lat="44.64909" lon="6.04991">
        <ele>1803.57</ele>
        <time>2016-10-09T11:27:22Z</time>
      </trkpt>
      <trkpt lat="44.64908" lon="6.0499">
        <ele>1803.09</ele>
        <time>2016-10-09T11:27:28Z</time>
      </trkpt>
      <trkpt lat="44.64901" lon="6.04982">
        <ele>1801.17</ele>
        <time>2016-10-09T11:27:36Z</time>
      </trkpt>
      <trkpt lat="44.64897" lon="6.04977">
        <ele>1800.21</ele>
        <time>2016-10-09T11:27:41Z</time>
      </trkpt>
      <trkpt lat="44.64888" lon="6.04965">
        <ele>1797.8</ele>
        <time>2016-10-09T11:27:53Z</time>
      </trkpt>
      <trkpt lat="44.64877" lon="6.04957">
        <ele>1795.88</ele>
        <time>2016-10-09T11:28:02Z</time>
      </trkpt>
      <trkpt lat="44.64876" lon="6.04956">
        <ele>1795.4</ele>
        <time>2016-10-09T11:28:06Z</time>
      </trkpt>
      <trkpt lat="44.64879" lon="6.04959">
        <ele>1794.44</ele>
        <time>2016-10-09T11:28:10Z</time>
      </trkpt>
      <trkpt lat="44.64879" lon="6.04962">
        <ele>1793.96</ele>
        <time>2016-10-09T11:28:13Z</time>
      </trkpt>
      <trkpt lat="44.64883" lon="6.0497">
        <ele>1793</ele>
        <time>2016-10-09T11:28:17Z</time>
      </trkpt>
      <trkpt lat="44.64883" lon="6.04976">
        <ele>1792.03</ele>
        <time>2016-10-09T11:28:21Z</time>
      </trkpt>
      <trkpt lat="44.64883" lon="6.04988">
        <ele>1789.63</ele>
        <time>2016-10-09T11:28:30Z</time>
      </trkpt>
      <trkpt lat="44.64885" lon="6.05002">
        <ele>1787.71</ele>
        <time>2016-10-09T11:28:40Z</time>
      </trkpt>
      <trkpt lat="44.64884" lon="6.05009">
        <ele>1786.27</ele>
        <time>2016-10-09T11:28:46Z</time>
      </trkpt>
      <trkpt lat="44.64886" lon="6.05022">
        <ele>1784.34</ele>
        <time>2016-10-09T11:28:54Z</time>
      </trkpt>
      <trkpt lat="44.64887" lon="6.05033">
        <ele>1782.9</ele>
        <time>2016-10-09T11:29:02Z</time>
      </trkpt>
      <trkpt lat="44.64887" lon="6.05047">
        <ele>1780.5</ele>
        <time>2016-10-09T11:29:12Z</time>
      </trkpt>
      <trkpt lat="44.64889" lon="6.05062">
        <ele>1779.06</ele>
        <time>2016-10-09T11:29:22Z</time>
      </trkpt>
      <trkpt lat="44.6489" lon="6.05066">
        <ele>1778.1</ele>
        <time>2016-10-09T11:29:25Z</time>
      </trkpt>
      <trkpt lat="44.64894" lon="6.05083">
        <ele>1776.65</ele>
        <time>2016-10-09T11:29:35Z</time>
      </trkpt>
      <trkpt lat="44.64894" lon="6.05086">
        <ele>1776.17</ele>
        <time>2016-10-09T11:29:37Z</time>
      </trkpt>
      <trkpt lat="44.64889" lon="6.05082">
        <ele>1775.21</ele>
        <time>2016-10-09T11:29:45Z</time>
      </trkpt>
      <trkpt lat="44.64879" lon="6.05072">
        <ele>1771.37</ele>
        <time>2016-10-09T11:29:57Z</time>
      </trkpt>
      <trkpt lat="44.64871" lon="6.05064">
        <ele>1768</ele>
        <time>2016-10-09T11:30:07Z</time>
      </trkpt>
      <trkpt lat="44.64866" lon="6.05054">
        <ele>1767.04</ele>
        <time>2016-10-09T11:30:14Z</time>
      </trkpt>
      <trkpt lat="44.64856" lon="6.05044">
        <ele>1764.16</ele>
        <time>2016-10-09T11:30:26Z</time>
      </trkpt>
      <trkpt lat="44.64849" lon="6.05038">
        <ele>1762.23</ele>
        <time>2016-10-09T11:30:36Z</time>
      </trkpt>
      <trkpt lat="44.64852" lon="6.05044">
        <ele>1761.27</ele>
        <time>2016-10-09T11:30:40Z</time>
      </trkpt>
      <trkpt lat="44.64854" lon="6.05048">
        <ele>1760.79</ele>
        <time>2016-10-09T11:30:42Z</time>
      </trkpt>
      <trkpt lat="44.64853" lon="6.05056">
        <ele>1758.87</ele>
        <time>2016-10-09T11:30:50Z</time>
      </trkpt>
      <trkpt lat="44.64854" lon="6.05059">
        <ele>1757.91</ele>
        <time>2016-10-09T11:30:52Z</time>
      </trkpt>
      <trkpt lat="44.64854" lon="6.05064">
        <ele>1756.95</ele>
        <time>2016-10-09T11:30:56Z</time>
      </trkpt>
      <trkpt lat="44.64852" lon="6.05075">
        <ele>1754.54</ele>
        <time>2016-10-09T11:31:06Z</time>
      </trkpt>
      <trkpt lat="44.64851" lon="6.0508">
        <ele>1753.58</ele>
        <time>2016-10-09T11:31:10Z</time>
      </trkpt>
      <trkpt lat="44.64851" lon="6.05094">
        <ele>1751.66</ele>
        <time>2016-10-09T11:31:18Z</time>
      </trkpt>
      <trkpt lat="44.64853" lon="6.051">
        <ele>1751.18</ele>
        <time>2016-10-09T11:31:22Z</time>
      </trkpt>
      <trkpt lat="44.64854" lon="6.05114">
        <ele>1748.78</ele>
        <time>2016-10-09T11:31:33Z</time>
      </trkpt>
      <trkpt lat="44.64851" lon="6.05114">
        <ele>1747.81</ele>
        <time>2016-10-09T11:31:43Z</time>
      </trkpt>
      <trkpt lat="44.64851" lon="6.05114">
        <ele>1747.81</ele>
        <time>2016-10-09T11:31:45Z</time>
      </trkpt>
      <trkpt lat="44.64848" lon="6.05111">
        <ele>1747.33</ele>
        <time>2016-10-09T11:31:57Z</time>
      </trkpt>
      <trkpt lat="44.64847" lon="6.05102">
        <ele>1746.85</ele>
        <time>2016-10-09T11:32:06Z</time>
      </trkpt>
      <trkpt lat="44.6484" lon="6.05087">
        <ele>1745.41</ele>
        <time>2016-10-09T11:32:15Z</time>
      </trkpt>
      <trkpt lat="44.6483" lon="6.0507">
        <ele>1744.45</ele>
        <time>2016-10-09T11:32:27Z</time>
      </trkpt>
      <trkpt lat="44.64822" lon="6.05057">
        <ele>1743.01</ele>
        <time>2016-10-09T11:32:38Z</time>
      </trkpt>
      <trkpt lat="44.64821" lon="6.05053">
        <ele>1743.01</ele>
        <time>2016-10-09T11:32:43Z</time>
      </trkpt>
      <trkpt lat="44.6482" lon="6.0505">
        <ele>1743.01</ele>
        <time>2016-10-09T11:32:45Z</time>
      </trkpt>
      <trkpt lat="44.64811" lon="6.05048">
        <ele>1742.05</ele>
        <time>2016-10-09T11:32:53Z</time>
      </trkpt>
      <trkpt lat="44.64798" lon="6.05044">
        <ele>1740.6</ele>
        <time>2016-10-09T11:33:05Z</time>
      </trkpt>
      <trkpt lat="44.64794" lon="6.0504">
        <ele>1740.12</ele>
        <time>2016-10-09T11:33:10Z</time>
      </trkpt>
      <trkpt lat="44.6479" lon="6.05024">
        <ele>1740.12</ele>
        <time>2016-10-09T11:33:20Z</time>
      </trkpt>
      <trkpt lat="44.64786" lon="6.05018">
        <ele>1738.2</ele>
        <time>2016-10-09T11:33:29Z</time>
      </trkpt>
      <trkpt lat="44.64782" lon="6.05023">
        <ele>1737.72</ele>
        <time>2016-10-09T11:33:35Z</time>
      </trkpt>
      <trkpt lat="44.64782" lon="6.05026">
        <ele>1737.72</ele>
        <time>2016-10-09T11:33:38Z</time>
      </trkpt>
      <trkpt lat="44.64772" lon="6.05029">
        <ele>1736.76</ele>
        <time>2016-10-09T11:33:50Z</time>
      </trkpt>
      <trkpt lat="44.64767" lon="6.05033">
        <ele>1735.8</ele>
        <time>2016-10-09T11:33:55Z</time>
      </trkpt>
      <trkpt lat="44.6476" lon="6.05036">
        <ele>1734.84</ele>
        <time>2016-10-09T11:34:00Z</time>
      </trkpt>
      <trkpt lat="44.64748" lon="6.05041">
        <ele>1732.91</ele>
        <time>2016-10-09T11:34:12Z</time>
      </trkpt>
      <trkpt lat="44.64743" lon="6.05037">
        <ele>1732.43</ele>
        <time>2016-10-09T11:34:17Z</time>
      </trkpt>
      <trkpt lat="44.64741" lon="6.05036">
        <ele>1731.95</ele>
        <time>2016-10-09T11:34:19Z</time>
      </trkpt>
      <trkpt lat="44.64737" lon="6.05036">
        <ele>1731.47</ele>
        <time>2016-10-09T11:34:29Z</time>
      </trkpt>
      <trkpt lat="44.64736" lon="6.05038">
        <ele>1731.47</ele>
        <time>2016-10-09T11:34:41Z</time>
      </trkpt>
      <trkpt lat="44.64734" lon="6.05039">
        <ele>1730.99</ele>
        <time>2016-10-09T11:34:43Z</time>
      </trkpt>
      <trkpt lat="44.64729" lon="6.05037">
        <ele>1730.99</ele>
        <time>2016-10-09T11:34:46Z</time>
      </trkpt>
      <trkpt lat="44.64725" lon="6.05035">
        <ele>1730.03</ele>
        <time>2016-10-09T11:34:58Z</time>
      </trkpt>
      <trkpt lat="44.64724" lon="6.05037">
        <ele>1730.03</ele>
        <time>2016-10-09T11:35:00Z</time>
      </trkpt>
      <trkpt lat="44.64714" lon="6.05048">
        <ele>1728.11</ele>
        <time>2016-10-09T11:35:11Z</time>
      </trkpt>
      <trkpt lat="44.64705" lon="6.05054">
        <ele>1727.15</ele>
        <time>2016-10-09T11:35:16Z</time>
      </trkpt>
      <trkpt lat="44.64702" lon="6.05052">
        <ele>1726.67</ele>
        <time>2016-10-09T11:35:22Z</time>
      </trkpt>
      <trkpt lat="44.64698" lon="6.05049">
        <ele>1725.7</ele>
        <time>2016-10-09T11:35:35Z</time>
      </trkpt>
      <trkpt lat="44.64695" lon="6.05043">
        <ele>1722.34</ele>
        <time>2016-10-09T11:35:46Z</time>
      </trkpt>
      <trkpt lat="44.64694" lon="6.05047">
        <ele>1723.78</ele>
        <time>2016-10-09T11:35:57Z</time>
      </trkpt>
      <trkpt lat="44.64696" lon="6.05057">
        <ele>1724.26</ele>
        <time>2016-10-09T11:36:08Z</time>
      </trkpt>
      <trkpt lat="44.64693" lon="6.05064">
        <ele>1723.3</ele>
        <time>2016-10-09T11:36:12Z</time>
      </trkpt>
      <trkpt lat="44.64686" lon="6.05081">
        <ele>1720.9</ele>
        <time>2016-10-09T11:36:23Z</time>
      </trkpt>
      <trkpt lat="44.64684" lon="6.05083">
        <ele>1720.9</ele>
        <time>2016-10-09T11:36:24Z</time>
      </trkpt>
      <trkpt lat="44.64678" lon="6.05095">
        <ele>1718.97</ele>
        <time>2016-10-09T11:36:36Z</time>
      </trkpt>
      <trkpt lat="44.6467" lon="6.05103">
        <ele>1716.57</ele>
        <time>2016-10-09T11:36:46Z</time>
      </trkpt>
      <trkpt lat="44.64668" lon="6.05104">
        <ele>1715.61</ele>
        <time>2016-10-09T11:36:49Z</time>
      </trkpt>
      <trkpt lat="44.64672" lon="6.05104">
        <ele>1714.65</ele>
        <time>2016-10-09T11:36:54Z</time>
      </trkpt>
      <trkpt lat="44.64677" lon="6.05101">
        <ele>1713.21</ele>
        <time>2016-10-09T11:37:06Z</time>
      </trkpt>
      <trkpt lat="44.64678" lon="6.05101">
        <ele>1713.21</ele>
        <time>2016-10-09T11:37:07Z</time>
      </trkpt>
      <trkpt lat="44.64684" lon="6.05097">
        <ele>1710.8</ele>
        <time>2016-10-09T11:37:17Z</time>
      </trkpt>
      <trkpt lat="44.64679" lon="6.05108">
        <ele>1708.4</ele>
        <time>2016-10-09T11:37:28Z</time>
      </trkpt>
      <trkpt lat="44.64673" lon="6.05116">
        <ele>1706.96</ele>
        <time>2016-10-09T11:37:34Z</time>
      </trkpt>
      <trkpt lat="44.64661" lon="6.05115">
        <ele>1705.52</ele>
        <time>2016-10-09T11:37:43Z</time>
      </trkpt>
      <trkpt lat="44.64661" lon="6.05115">
        <ele>1705.52</ele>
        <time>2016-10-09T11:37:45Z</time>
      </trkpt>
      <trkpt lat="44.64656" lon="6.05114">
        <ele>1705.04</ele>
        <time>2016-10-09T11:37:49Z</time>
      </trkpt>
      <trkpt lat="44.64648" lon="6.05112">
        <ele>1703.59</ele>
        <time>2016-10-09T11:38:00Z</time>
      </trkpt>
      <trkpt lat="44.64646" lon="6.05114">
        <ele>1703.59</ele>
        <time>2016-10-09T11:38:03Z</time>
      </trkpt>
      <trkpt lat="44.64641" lon="6.05114">
        <ele>1702.63</ele>
        <time>2016-10-09T11:38:14Z</time>
      </trkpt>
      <trkpt lat="44.64639" lon="6.05115">
        <ele>1702.15</ele>
        <time>2016-10-09T11:38:17Z</time>
      </trkpt>
      <trkpt lat="44.64633" lon="6.05108">
        <ele>1700.23</ele>
        <time>2016-10-09T11:38:29Z</time>
      </trkpt>
      <trkpt lat="44.64631" lon="6.05114">
        <ele>1700.71</ele>
        <time>2016-10-09T11:38:34Z</time>
      </trkpt>
      <trkpt lat="44.64639" lon="6.05125">
        <ele>1699.75</ele>
        <time>2016-10-09T11:38:44Z</time>
      </trkpt>
      <trkpt lat="44.64642" lon="6.05126">
        <ele>1699.27</ele>
        <time>2016-10-09T11:38:48Z</time>
      </trkpt>
      <trkpt lat="44.64645" lon="6.05127">
        <ele>1698.79</ele>
        <time>2016-10-09T11:38:51Z</time>
      </trkpt>
      <trkpt lat="44.64653" lon="6.05136">
        <ele>1697.83</ele>
        <time>2016-10-09T11:39:03Z</time>
      </trkpt>
      <trkpt lat="44.64656" lon="6.05143">
        <ele>1696.86</ele>
        <time>2016-10-09T11:39:11Z</time>
      </trkpt>
      <trkpt lat="44.64653" lon="6.05158">
        <ele>1695.9</ele>
        <time>2016-10-09T11:39:20Z</time>
      </trkpt>
      <trkpt lat="44.64649" lon="6.05171">
        <ele>1693.5</ele>
        <time>2016-10-09T11:39:29Z</time>
      </trkpt>
      <trkpt lat="44.64632" lon="6.05183">
        <ele>1692.54</ele>
        <time>2016-10-09T11:39:33Z</time>
      </trkpt>
      <trkpt lat="44.64622" lon="6.05195">
        <ele>1689.65</ele>
        <time>2016-10-09T11:39:45Z</time>
      </trkpt>
      <trkpt lat="44.6462" lon="6.05199">
        <ele>1689.17</ele>
        <time>2016-10-09T11:39:49Z</time>
      </trkpt>
      <trkpt lat="44.64617" lon="6.05202">
        <ele>1688.21</ele>
        <time>2016-10-09T11:39:53Z</time>
      </trkpt>
      <trkpt lat="44.64622" lon="6.05199">
        <ele>1686.29</ele>
        <time>2016-10-09T11:40:02Z</time>
      </trkpt>
      <trkpt lat="44.64633" lon="6.0519">
        <ele>1683.89</ele>
        <time>2016-10-09T11:40:13Z</time>
      </trkpt>
      <trkpt lat="44.64636" lon="6.05191">
        <ele>1681.48</ele>
        <time>2016-10-09T11:40:23Z</time>
      </trkpt>
      <trkpt lat="44.64632" lon="6.05205">
        <ele>1679.08</ele>
        <time>2016-10-09T11:40:33Z</time>
      </trkpt>
      <trkpt lat="44.64625" lon="6.05212">
        <ele>1677.16</ele>
        <time>2016-10-09T11:40:44Z</time>
      </trkpt>
      <trkpt lat="44.64622" lon="6.05212">
        <ele>1676.68</ele>
        <time>2016-10-09T11:40:47Z</time>
      </trkpt>
      <trkpt lat="44.64619" lon="6.05216">
        <ele>1676.2</ele>
        <time>2016-10-09T11:40:51Z</time>
      </trkpt>
      <trkpt lat="44.64618" lon="6.05223">
        <ele>1675.72</ele>
        <time>2016-10-09T11:40:55Z</time>
      </trkpt>
      <trkpt lat="44.64618" lon="6.05229">
        <ele>1673.79</ele>
        <time>2016-10-09T11:41:04Z</time>
      </trkpt>
      <trkpt lat="44.64615" lon="6.05232">
        <ele>1673.31</ele>
        <time>2016-10-09T11:41:19Z</time>
      </trkpt>
      <trkpt lat="44.64614" lon="6.05233">
        <ele>1673.31</ele>
        <time>2016-10-09T11:41:26Z</time>
      </trkpt>
      <trkpt lat="44.64614" lon="6.05244">
        <ele>1671.87</ele>
        <time>2016-10-09T11:41:38Z</time>
      </trkpt>
      <trkpt lat="44.6461" lon="6.05254">
        <ele>1669.95</ele>
        <time>2016-10-09T11:41:45Z</time>
      </trkpt>
      <trkpt lat="44.64607" lon="6.05259">
        <ele>1669.95</ele>
        <time>2016-10-09T11:41:49Z</time>
      </trkpt>
      <trkpt lat="44.64598" lon="6.05274">
        <ele>1667.06</ele>
        <time>2016-10-09T11:42:01Z</time>
      </trkpt>
      <trkpt lat="44.64592" lon="6.05286">
        <ele>1665.62</ele>
        <time>2016-10-09T11:42:10Z</time>
      </trkpt>
      <trkpt lat="44.64591" lon="6.05288">
        <ele>1665.62</ele>
        <time>2016-10-09T11:42:12Z</time>
      </trkpt>
      <trkpt lat="44.64583" lon="6.05297">
        <ele>1664.66</ele>
        <time>2016-10-09T11:42:22Z</time>
      </trkpt>
      <trkpt lat="44.6458" lon="6.05301">
        <ele>1663.7</ele>
        <time>2016-10-09T11:42:27Z</time>
      </trkpt>
      <trkpt lat="44.64577" lon="6.05307">
        <ele>1663.22</ele>
        <time>2016-10-09T11:42:40Z</time>
      </trkpt>
      <trkpt lat="44.64577" lon="6.05307">
        <ele>1663.22</ele>
        <time>2016-10-09T11:42:43Z</time>
      </trkpt>
      <trkpt lat="44.64574" lon="6.0532">
        <ele>1661.3</ele>
        <time>2016-10-09T11:42:54Z</time>
      </trkpt>
      <trkpt lat="44.64574" lon="6.05325">
        <ele>1660.33</ele>
        <time>2016-10-09T11:42:58Z</time>
      </trkpt>
      <trkpt lat="44.64567" lon="6.05332">
        <ele>1658.89</ele>
        <time>2016-10-09T11:43:05Z</time>
      </trkpt>
      <trkpt lat="44.64565" lon="6.05337">
        <ele>1657.93</ele>
        <time>2016-10-09T11:43:09Z</time>
      </trkpt>
      <trkpt lat="44.6456" lon="6.05354">
        <ele>1656.49</ele>
        <time>2016-10-09T11:43:21Z</time>
      </trkpt>
      <trkpt lat="44.64551" lon="6.05371">
        <ele>1653.6</ele>
        <time>2016-10-09T11:43:32Z</time>
      </trkpt>
      <trkpt lat="44.64545" lon="6.05376">
        <ele>1652.16</ele>
        <time>2016-10-09T11:43:39Z</time>
      </trkpt>
      <trkpt lat="44.64534" lon="6.05383">
        <ele>1650.72</ele>
        <time>2016-10-09T11:43:48Z</time>
      </trkpt>
      <trkpt lat="44.64533" lon="6.05384">
        <ele>1650.72</ele>
        <time>2016-10-09T11:43:49Z</time>
      </trkpt>
      <trkpt lat="44.64524" lon="6.05386">
        <ele>1648.8</ele>
        <time>2016-10-09T11:43:58Z</time>
      </trkpt>
      <trkpt lat="44.64523" lon="6.05386">
        <ele>1648.8</ele>
        <time>2016-10-09T11:43:59Z</time>
      </trkpt>
      <trkpt lat="44.64517" lon="6.05376">
        <ele>1647.84</ele>
        <time>2016-10-09T11:44:06Z</time>
      </trkpt>
      <trkpt lat="44.64512" lon="6.0539">
        <ele>1647.36</ele>
        <time>2016-10-09T11:44:16Z</time>
      </trkpt>
      <trkpt lat="44.64508" lon="6.05397">
        <ele>1646.4</ele>
        <time>2016-10-09T11:44:22Z</time>
      </trkpt>
      <trkpt lat="44.64499" lon="6.05403">
        <ele>1644.47</ele>
        <time>2016-10-09T11:44:32Z</time>
      </trkpt>
      <trkpt lat="44.64492" lon="6.05409">
        <ele>1643.51</ele>
        <time>2016-10-09T11:44:37Z</time>
      </trkpt>
      <trkpt lat="44.64486" lon="6.05413">
        <ele>1642.07</ele>
        <time>2016-10-09T11:44:45Z</time>
      </trkpt>
      <trkpt lat="44.64485" lon="6.05415">
        <ele>1641.59</ele>
        <time>2016-10-09T11:44:47Z</time>
      </trkpt>
      <trkpt lat="44.64476" lon="6.05425">
        <ele>1640.15</ele>
        <time>2016-10-09T11:44:56Z</time>
      </trkpt>
      <trkpt lat="44.64473" lon="6.05427">
        <ele>1639.67</ele>
        <time>2016-10-09T11:45:00Z</time>
      </trkpt>
      <trkpt lat="44.64464" lon="6.05432">
        <ele>1637.74</ele>
        <time>2016-10-09T11:45:09Z</time>
      </trkpt>
      <trkpt lat="44.64459" lon="6.05435">
        <ele>1636.78</ele>
        <time>2016-10-09T11:45:14Z</time>
      </trkpt>
      <trkpt lat="44.6445" lon="6.05437">
        <ele>1636.3</ele>
        <time>2016-10-09T11:45:24Z</time>
      </trkpt>
      <trkpt lat="44.64445" lon="6.05448">
        <ele>1634.86</ele>
        <time>2016-10-09T11:45:33Z</time>
      </trkpt>
      <trkpt lat="44.64437" lon="6.05457">
        <ele>1633.42</ele>
        <time>2016-10-09T11:45:43Z</time>
      </trkpt>
      <trkpt lat="44.64436" lon="6.05457">
        <ele>1632.94</ele>
        <time>2016-10-09T11:45:44Z</time>
      </trkpt>
      <trkpt lat="44.64425" lon="6.05466">
        <ele>1631.49</ele>
        <time>2016-10-09T11:45:54Z</time>
      </trkpt>
      <trkpt lat="44.64422" lon="6.05467">
        <ele>1630.05</ele>
        <time>2016-10-09T11:45:59Z</time>
      </trkpt>
      <trkpt lat="44.64409" lon="6.05469">
        <ele>1629.09</ele>
        <time>2016-10-09T11:46:09Z</time>
      </trkpt>
      <trkpt lat="44.64395" lon="6.05468">
        <ele>1627.17</ele>
        <time>2016-10-09T11:46:19Z</time>
      </trkpt>
      <trkpt lat="44.64391" lon="6.05471">
        <ele>1626.21</ele>
        <time>2016-10-09T11:46:25Z</time>
      </trkpt>
      <trkpt lat="44.64386" lon="6.05475">
        <ele>1624.77</ele>
        <time>2016-10-09T11:46:31Z</time>
      </trkpt>
      <trkpt lat="44.64375" lon="6.05482">
        <ele>1623.32</ele>
        <time>2016-10-09T11:46:39Z</time>
      </trkpt>
      <trkpt lat="44.6437" lon="6.05484">
        <ele>1621.88</ele>
        <time>2016-10-09T11:46:47Z</time>
      </trkpt>
      <trkpt lat="44.64369" lon="6.05484">
        <ele>1621.4</ele>
        <time>2016-10-09T11:46:49Z</time>
      </trkpt>
      <trkpt lat="44.64367" lon="6.05484">
        <ele>1621.4</ele>
        <time>2016-10-09T11:46:51Z</time>
      </trkpt>
      <trkpt lat="44.64361" lon="6.0549">
        <ele>1620.44</ele>
        <time>2016-10-09T11:47:00Z</time>
      </trkpt>
      <trkpt lat="44.64359" lon="6.05495">
        <ele>1619.48</ele>
        <time>2016-10-09T11:47:09Z</time>
      </trkpt>
      <trkpt lat="44.6436" lon="6.05497">
        <ele>1619</ele>
        <time>2016-10-09T11:47:11Z</time>
      </trkpt>
      <trkpt lat="44.6436" lon="6.05503">
        <ele>1618.04</ele>
        <time>2016-10-09T11:47:16Z</time>
      </trkpt>
      <trkpt lat="44.64355" lon="6.05519">
        <ele>1616.11</ele>
        <time>2016-10-09T11:47:26Z</time>
      </trkpt>
      <trkpt lat="44.64351" lon="6.0554">
        <ele>1613.71</ele>
        <time>2016-10-09T11:47:39Z</time>
      </trkpt>
      <trkpt lat="44.64349" lon="6.05552">
        <ele>1612.27</ele>
        <time>2016-10-09T11:47:48Z</time>
      </trkpt>
      <trkpt lat="44.64345" lon="6.0556">
        <ele>1611.31</ele>
        <time>2016-10-09T11:47:59Z</time>
      </trkpt>
      <trkpt lat="44.64343" lon="6.05563">
        <ele>1610.83</ele>
        <time>2016-10-09T11:48:02Z</time>
      </trkpt>
      <trkpt lat="44.64336" lon="6.05569">
        <ele>1608.9</ele>
        <time>2016-10-09T11:48:15Z</time>
      </trkpt>
      <trkpt lat="44.64332" lon="6.05575">
        <ele>1608.9</ele>
        <time>2016-10-09T11:48:19Z</time>
      </trkpt>
      <trkpt lat="44.6433" lon="6.05581">
        <ele>1607.94</ele>
        <time>2016-10-09T11:48:23Z</time>
      </trkpt>
      <trkpt lat="44.64324" lon="6.05591">
        <ele>1606.5</ele>
        <time>2016-10-09T11:48:31Z</time>
      </trkpt>
      <trkpt lat="44.64319" lon="6.05601">
        <ele>1605.06</ele>
        <time>2016-10-09T11:48:39Z</time>
      </trkpt>
      <trkpt lat="44.64308" lon="6.05613">
        <ele>1603.14</ele>
        <time>2016-10-09T11:48:50Z</time>
      </trkpt>
      <trkpt lat="44.64303" lon="6.05621">
        <ele>1602.17</ele>
        <time>2016-10-09T11:48:55Z</time>
      </trkpt>
      <trkpt lat="44.64294" lon="6.05633">
        <ele>1599.77</ele>
        <time>2016-10-09T11:49:08Z</time>
      </trkpt>
      <trkpt lat="44.64291" lon="6.05637">
        <ele>1599.29</ele>
        <time>2016-10-09T11:49:12Z</time>
      </trkpt>
      <trkpt lat="44.64279" lon="6.05652">
        <ele>1596.89</ele>
        <time>2016-10-09T11:49:23Z</time>
      </trkpt>
      <trkpt lat="44.64276" lon="6.05657">
        <ele>1596.41</ele>
        <time>2016-10-09T11:49:27Z</time>
      </trkpt>
      <trkpt lat="44.64264" lon="6.05665">
        <ele>1594.96</ele>
        <time>2016-10-09T11:49:36Z</time>
      </trkpt>
      <trkpt lat="44.6426" lon="6.05668">
        <ele>1594</ele>
        <time>2016-10-09T11:49:41Z</time>
      </trkpt>
      <trkpt lat="44.64256" lon="6.05673">
        <ele>1593.04</ele>
        <time>2016-10-09T11:49:45Z</time>
      </trkpt>
      <trkpt lat="44.64247" lon="6.05677">
        <ele>1591.12</ele>
        <time>2016-10-09T11:49:53Z</time>
      </trkpt>
      <trkpt lat="44.64241" lon="6.0568">
        <ele>1590.64</ele>
        <time>2016-10-09T11:49:58Z</time>
      </trkpt>
      <trkpt lat="44.64237" lon="6.05679">
        <ele>1589.2</ele>
        <time>2016-10-09T11:50:09Z</time>
      </trkpt>
      <trkpt lat="44.64238" lon="6.05678">
        <ele>1589.2</ele>
        <time>2016-10-09T11:50:10Z</time>
      </trkpt>
      <trkpt lat="44.64252" lon="6.05674">
        <ele>1586.79</ele>
        <time>2016-10-09T11:50:23Z</time>
      </trkpt>
      <trkpt lat="44.64267" lon="6.05676">
        <ele>1584.39</ele>
        <time>2016-10-09T11:50:35Z</time>
      </trkpt>
      <trkpt lat="44.64279" lon="6.0568">
        <ele>1582.47</ele>
        <time>2016-10-09T11:50:47Z</time>
      </trkpt>
      <trkpt lat="44.64285" lon="6.05681">
        <ele>1581.03</ele>
        <time>2016-10-09T11:50:53Z</time>
      </trkpt>
      <trkpt lat="44.64305" lon="6.05677">
        <ele>1578.14</ele>
        <time>2016-10-09T11:51:10Z</time>
      </trkpt>
      <trkpt lat="44.64315" lon="6.05679">
        <ele>1576.22</ele>
        <time>2016-10-09T11:51:20Z</time>
      </trkpt>
      <trkpt lat="44.64332" lon="6.05678">
        <ele>1573.33</ele>
        <time>2016-10-09T11:51:34Z</time>
      </trkpt>
      <trkpt lat="44.64347" lon="6.0567">
        <ele>1571.41</ele>
        <time>2016-10-09T11:51:48Z</time>
      </trkpt>
      <trkpt lat="44.64365" lon="6.05672">
        <ele>1569.01</ele>
        <time>2016-10-09T11:52:02Z</time>
      </trkpt>
      <trkpt lat="44.64381" lon="6.05674">
        <ele>1567.09</ele>
        <time>2016-10-09T11:52:15Z</time>
      </trkpt>
      <trkpt lat="44.64384" lon="6.05675">
        <ele>1566.61</ele>
        <time>2016-10-09T11:52:21Z</time>
      </trkpt>
      <trkpt lat="44.64382" lon="6.05682">
        <ele>1565.64</ele>
        <time>2016-10-09T11:52:27Z</time>
      </trkpt>
      <trkpt lat="44.64367" lon="6.05693">
        <ele>1564.2</ele>
        <time>2016-10-09T11:52:39Z</time>
      </trkpt>
      <trkpt lat="44.64365" lon="6.05699">
        <ele>1563.72</ele>
        <time>2016-10-09T11:52:44Z</time>
      </trkpt>
      <trkpt lat="44.64354" lon="6.05715">
        <ele>1562.28</ele>
        <time>2016-10-09T11:52:55Z</time>
      </trkpt>
      <trkpt lat="44.64347" lon="6.05724">
        <ele>1560.84</ele>
        <time>2016-10-09T11:53:05Z</time>
      </trkpt>
      <trkpt lat="44.64342" lon="6.05732">
        <ele>1560.36</ele>
        <time>2016-10-09T11:53:09Z</time>
      </trkpt>
      <trkpt lat="44.64331" lon="6.05741">
        <ele>1558.92</ele>
        <time>2016-10-09T11:53:19Z</time>
      </trkpt>
      <trkpt lat="44.64323" lon="6.05747">
        <ele>1557.95</ele>
        <time>2016-10-09T11:53:26Z</time>
      </trkpt>
      <trkpt lat="44.6431" lon="6.0576">
        <ele>1556.51</ele>
        <time>2016-10-09T11:53:37Z</time>
      </trkpt>
      <trkpt lat="44.64303" lon="6.05766">
        <ele>1555.07</ele>
        <time>2016-10-09T11:53:46Z</time>
      </trkpt>
      <trkpt lat="44.64287" lon="6.05782">
        <ele>1553.15</ele>
        <time>2016-10-09T11:53:59Z</time>
      </trkpt>
      <trkpt lat="44.64284" lon="6.05786">
        <ele>1552.19</ele>
        <time>2016-10-09T11:54:02Z</time>
      </trkpt>
      <trkpt lat="44.6428" lon="6.05789">
        <ele>1551.71</ele>
        <time>2016-10-09T11:54:06Z</time>
      </trkpt>
      <trkpt lat="44.6426" lon="6.05805">
        <ele>1550.74</ele>
        <time>2016-10-09T11:54:21Z</time>
      </trkpt>
      <trkpt lat="44.64257" lon="6.05809">
        <ele>1549.78</ele>
        <time>2016-10-09T11:54:26Z</time>
      </trkpt>
      <trkpt lat="44.6424" lon="6.05816">
        <ele>1548.34</ele>
        <time>2016-10-09T11:54:40Z</time>
      </trkpt>
      <trkpt lat="44.64232" lon="6.05823">
        <ele>1546.9</ele>
        <time>2016-10-09T11:54:51Z</time>
      </trkpt>
      <trkpt lat="44.64221" lon="6.05831">
        <ele>1545.94</ele>
        <time>2016-10-09T11:54:58Z</time>
      </trkpt>
      <trkpt lat="44.64212" lon="6.05838">
        <ele>1544.5</ele>
        <time>2016-10-09T11:55:09Z</time>
      </trkpt>
      <trkpt lat="44.64206" lon="6.0585">
        <ele>1543.53</ele>
        <time>2016-10-09T11:55:16Z</time>
      </trkpt>
      <trkpt lat="44.64193" lon="6.05864">
        <ele>1542.09</ele>
        <time>2016-10-09T11:55:27Z</time>
      </trkpt>
      <trkpt lat="44.64184" lon="6.05875">
        <ele>1540.65</ele>
        <time>2016-10-09T11:55:39Z</time>
      </trkpt>
      <trkpt lat="44.64175" lon="6.05891">
        <ele>1539.21</ele>
        <time>2016-10-09T11:55:51Z</time>
      </trkpt>
      <trkpt lat="44.64171" lon="6.05888">
        <ele>1539.21</ele>
        <time>2016-10-09T11:56:20Z</time>
      </trkpt>
      <trkpt lat="44.6417" lon="6.05892">
        <ele>1538.73</ele>
        <time>2016-10-09T11:56:26Z</time>
      </trkpt>
      <trkpt lat="44.64169" lon="6.05913">
        <ele>1537.29</ele>
        <time>2016-10-09T11:56:39Z</time>
      </trkpt>
      <trkpt lat="44.6417" lon="6.05915">
        <ele>1536.8</ele>
        <time>2016-10-09T11:56:40Z</time>
      </trkpt>
      <trkpt lat="44.64171" lon="6.05936">
        <ele>1535.36</ele>
        <time>2016-10-09T11:56:54Z</time>
      </trkpt>
      <trkpt lat="44.64173" lon="6.05945">
        <ele>1534.88</ele>
        <time>2016-10-09T11:56:59Z</time>
      </trkpt>
      <trkpt lat="44.64174" lon="6.05966">
        <ele>1533.92</ele>
        <time>2016-10-09T11:57:11Z</time>
      </trkpt>
      <trkpt lat="44.64172" lon="6.05972">
        <ele>1532.96</ele>
        <time>2016-10-09T11:57:20Z</time>
      </trkpt>
      <trkpt lat="44.64173" lon="6.05977">
        <ele>1532.96</ele>
        <time>2016-10-09T11:57:22Z</time>
      </trkpt>
      <trkpt lat="44.64169" lon="6.05992">
        <ele>1529.59</ele>
        <time>2016-10-09T11:57:35Z</time>
      </trkpt>
      <trkpt lat="44.64169" lon="6.05995">
        <ele>1528.63</ele>
        <time>2016-10-09T11:57:37Z</time>
      </trkpt>
      <trkpt lat="44.64167" lon="6.06002">
        <ele>1527.67</ele>
        <time>2016-10-09T11:57:42Z</time>
      </trkpt>
      <trkpt lat="44.6416" lon="6.06018">
        <ele>1526.23</ele>
        <time>2016-10-09T11:57:55Z</time>
      </trkpt>
      <trkpt lat="44.64162" lon="6.06037">
        <ele>1525.27</ele>
        <time>2016-10-09T11:58:08Z</time>
      </trkpt>
      <trkpt lat="44.64158" lon="6.06058">
        <ele>1523.35</ele>
        <time>2016-10-09T11:58:21Z</time>
      </trkpt>
      <trkpt lat="44.6415" lon="6.06078">
        <ele>1521.9</ele>
        <time>2016-10-09T11:58:37Z</time>
      </trkpt>
      <trkpt lat="44.64147" lon="6.06082">
        <ele>1521.42</ele>
        <time>2016-10-09T11:58:58Z</time>
      </trkpt>
      <trkpt lat="44.64138" lon="6.06093">
        <ele>1520.46</ele>
        <time>2016-10-09T11:59:07Z</time>
      </trkpt>
      <trkpt lat="44.64134" lon="6.06098">
        <ele>1519.98</ele>
        <time>2016-10-09T11:59:13Z</time>
      </trkpt>
      <trkpt lat="44.64131" lon="6.061">
        <ele>1519.02</ele>
        <time>2016-10-09T11:59:16Z</time>
      </trkpt>
      <trkpt lat="44.64114" lon="6.061">
        <ele>1518.06</ele>
        <time>2016-10-09T11:59:27Z</time>
      </trkpt>
      <trkpt lat="44.64109" lon="6.06095">
        <ele>1517.58</ele>
        <time>2016-10-09T11:59:32Z</time>
      </trkpt>
      <trkpt lat="44.64096" lon="6.0609">
        <ele>1516.62</ele>
        <time>2016-10-09T11:59:43Z</time>
      </trkpt>
      <trkpt lat="44.64082" lon="6.06093">
        <ele>1514.21</ele>
        <time>2016-10-09T11:59:54Z</time>
      </trkpt>
      <trkpt lat="44.64073" lon="6.06097">
        <ele>1513.25</ele>
        <time>2016-10-09T12:00:03Z</time>
      </trkpt>
      <trkpt lat="44.64055" lon="6.06106">
        <ele>1511.33</ele>
        <time>2016-10-09T12:00:18Z</time>
      </trkpt>
      <trkpt lat="44.64052" lon="6.06107">
        <ele>1510.37</ele>
        <time>2016-10-09T12:00:24Z</time>
      </trkpt>
      <trkpt lat="44.64042" lon="6.06119">
        <ele>1508.93</ele>
        <time>2016-10-09T12:00:38Z</time>
      </trkpt>
      <trkpt lat="44.64025" lon="6.06135">
        <ele>1507</ele>
        <time>2016-10-09T12:00:52Z</time>
      </trkpt>
      <trkpt lat="44.64014" lon="6.06147">
        <ele>1504.6</ele>
        <time>2016-10-09T12:01:05Z</time>
      </trkpt>
      <trkpt lat="44.63994" lon="6.0616">
        <ele>1503.16</ele>
        <time>2016-10-09T12:01:19Z</time>
      </trkpt>
      <trkpt lat="44.63988" lon="6.06166">
        <ele>1502.2</ele>
        <time>2016-10-09T12:01:25Z</time>
      </trkpt>
      <trkpt lat="44.6398" lon="6.06175">
        <ele>1501.72</ele>
        <time>2016-10-09T12:01:31Z</time>
      </trkpt>
      <trkpt lat="44.63975" lon="6.0619">
        <ele>1501.24</ele>
        <time>2016-10-09T12:01:41Z</time>
      </trkpt>
      <trkpt lat="44.63974" lon="6.062">
        <ele>1499.31</ele>
        <time>2016-10-09T12:01:51Z</time>
      </trkpt>
      <trkpt lat="44.63986" lon="6.06194">
        <ele>1497.87</ele>
        <time>2016-10-09T12:02:04Z</time>
      </trkpt>
      <trkpt lat="44.63992" lon="6.06195">
        <ele>1495.95</ele>
        <time>2016-10-09T12:02:11Z</time>
      </trkpt>
      <trkpt lat="44.63994" lon="6.06193">
        <ele>1495.47</ele>
        <time>2016-10-09T12:02:13Z</time>
      </trkpt>
      <trkpt lat="44.64011" lon="6.0618">
        <ele>1493.06</ele>
        <time>2016-10-09T12:02:28Z</time>
      </trkpt>
      <trkpt lat="44.64028" lon="6.06173">
        <ele>1490.66</ele>
        <time>2016-10-09T12:02:40Z</time>
      </trkpt>
      <trkpt lat="44.64047" lon="6.0617">
        <ele>1488.74</ele>
        <time>2016-10-09T12:02:53Z</time>
      </trkpt>
      <trkpt lat="44.6406" lon="6.06173">
        <ele>1486.82</ele>
        <time>2016-10-09T12:03:06Z</time>
      </trkpt>
      <trkpt lat="44.64082" lon="6.06183">
        <ele>1484.41</ele>
        <time>2016-10-09T12:03:21Z</time>
      </trkpt>
      <trkpt lat="44.64091" lon="6.06189">
        <ele>1483.45</ele>
        <time>2016-10-09T12:03:26Z</time>
      </trkpt>
      <trkpt lat="44.64099" lon="6.06195">
        <ele>1482.01</ele>
        <time>2016-10-09T12:03:33Z</time>
      </trkpt>
      <trkpt lat="44.64104" lon="6.06201">
        <ele>1481.05</ele>
        <time>2016-10-09T12:03:46Z</time>
      </trkpt>
      <trkpt lat="44.64114" lon="6.06215">
        <ele>1480.09</ele>
        <time>2016-10-09T12:04:00Z</time>
      </trkpt>
      <trkpt lat="44.64126" lon="6.06222">
        <ele>1477.2</ele>
        <time>2016-10-09T12:04:13Z</time>
      </trkpt>
      <trkpt lat="44.64141" lon="6.06231">
        <ele>1474.32</ele>
        <time>2016-10-09T12:04:27Z</time>
      </trkpt>
      <trkpt lat="44.6415" lon="6.0624">
        <ele>1472.4</ele>
        <time>2016-10-09T12:04:36Z</time>
      </trkpt>
      <trkpt lat="44.64157" lon="6.06251">
        <ele>1470.95</ele>
        <time>2016-10-09T12:04:42Z</time>
      </trkpt>
      <trkpt lat="44.64169" lon="6.06271">
        <ele>1469.03</ele>
        <time>2016-10-09T12:04:56Z</time>
      </trkpt>
      <trkpt lat="44.64175" lon="6.06278">
        <ele>1468.07</ele>
        <time>2016-10-09T12:05:04Z</time>
      </trkpt>
      <trkpt lat="44.6419" lon="6.06271">
        <ele>1467.11</ele>
        <time>2016-10-09T12:05:19Z</time>
      </trkpt>
      <trkpt lat="44.64202" lon="6.06264">
        <ele>1467.11</ele>
        <time>2016-10-09T12:05:32Z</time>
      </trkpt>
      <trkpt lat="44.64216" lon="6.06256">
        <ele>1466.63</ele>
        <time>2016-10-09T12:05:42Z</time>
      </trkpt>
      <trkpt lat="44.64223" lon="6.0625">
        <ele>1466.63</ele>
        <time>2016-10-09T12:05:48Z</time>
      </trkpt>
      <trkpt lat="44.64234" lon="6.06226">
        <ele>1466.63</ele>
        <time>2016-10-09T12:06:04Z</time>
      </trkpt>
      <trkpt lat="44.64239" lon="6.06212">
        <ele>1466.63</ele>
        <time>2016-10-09T12:06:16Z</time>
      </trkpt>
      <trkpt lat="44.64249" lon="6.06199">
        <ele>1465.67</ele>
        <time>2016-10-09T12:06:28Z</time>
      </trkpt>
      <trkpt lat="44.64257" lon="6.06196">
        <ele>1464.23</ele>
        <time>2016-10-09T12:06:34Z</time>
      </trkpt>
      <trkpt lat="44.64271" lon="6.06198">
        <ele>1462.3</ele>
        <time>2016-10-09T12:06:46Z</time>
      </trkpt>
      <trkpt lat="44.64279" lon="6.06199">
        <ele>1460.86</ele>
        <time>2016-10-09T12:06:53Z</time>
      </trkpt>
      <trkpt lat="44.64295" lon="6.062">
        <ele>1458.94</ele>
        <time>2016-10-09T12:07:06Z</time>
      </trkpt>
      <trkpt lat="44.64315" lon="6.06201">
        <ele>1455.57</ele>
        <time>2016-10-09T12:07:22Z</time>
      </trkpt>
      <trkpt lat="44.64331" lon="6.06198">
        <ele>1453.65</ele>
        <time>2016-10-09T12:07:34Z</time>
      </trkpt>
      <trkpt lat="44.64345" lon="6.06199">
        <ele>1451.25</ele>
        <time>2016-10-09T12:07:46Z</time>
      </trkpt>
      <trkpt lat="44.64364" lon="6.06197">
        <ele>1448.84</ele>
        <time>2016-10-09T12:08:00Z</time>
      </trkpt>
      <trkpt lat="44.64368" lon="6.06195">
        <ele>1447.4</ele>
        <time>2016-10-09T12:08:08Z</time>
      </trkpt>
      <trkpt lat="44.64384" lon="6.06182">
        <ele>1445</ele>
        <time>2016-10-09T12:08:22Z</time>
      </trkpt>
      <trkpt lat="44.64393" lon="6.06174">
        <ele>1443.08</ele>
        <time>2016-10-09T12:08:32Z</time>
      </trkpt>
      <trkpt lat="44.64408" lon="6.06172">
        <ele>1440.67</ele>
        <time>2016-10-09T12:08:47Z</time>
      </trkpt>
      <trkpt lat="44.64409" lon="6.06171">
        <ele>1440.19</ele>
        <time>2016-10-09T12:08:48Z</time>
      </trkpt>
      <trkpt lat="44.64422" lon="6.06173">
        <ele>1437.79</ele>
        <time>2016-10-09T12:09:02Z</time>
      </trkpt>
      <trkpt lat="44.64423" lon="6.06172">
        <ele>1437.79</ele>
        <time>2016-10-09T12:09:03Z</time>
      </trkpt>
      <trkpt lat="44.64447" lon="6.06176">
        <ele>1434.42</ele>
        <time>2016-10-09T12:09:19Z</time>
      </trkpt>
      <trkpt lat="44.64472" lon="6.0619">
        <ele>1432.02</ele>
        <time>2016-10-09T12:09:33Z</time>
      </trkpt>
      <trkpt lat="44.64486" lon="6.06191">
        <ele>1430.58</ele>
        <time>2016-10-09T12:09:46Z</time>
      </trkpt>
      <trkpt lat="44.64504" lon="6.06195">
        <ele>1427.7</ele>
        <time>2016-10-09T12:10:02Z</time>
      </trkpt>
      <trkpt lat="44.64514" lon="6.06195">
        <ele>1425.29</ele>
        <time>2016-10-09T12:10:14Z</time>
      </trkpt>
      <trkpt lat="44.64521" lon="6.06189">
        <ele>1424.33</ele>
        <time>2016-10-09T12:10:21Z</time>
      </trkpt>
      <trkpt lat="44.64525" lon="6.06175">
        <ele>1422.89</ele>
        <time>2016-10-09T12:10:33Z</time>
      </trkpt>
      <trkpt lat="44.64539" lon="6.06176">
        <ele>1421.93</ele>
        <time>2016-10-09T12:10:43Z</time>
      </trkpt>
      <trkpt lat="44.6455" lon="6.06177">
        <ele>1420.97</ele>
        <time>2016-10-09T12:10:51Z</time>
      </trkpt>
      <trkpt lat="44.6457" lon="6.06169">
        <ele>1417.6</ele>
        <time>2016-10-09T12:11:07Z</time>
      </trkpt>
      <trkpt lat="44.64586" lon="6.06165">
        <ele>1414.72</ele>
        <time>2016-10-09T12:11:21Z</time>
      </trkpt>
      <trkpt lat="44.64592" lon="6.06162">
        <ele>1413.28</ele>
        <time>2016-10-09T12:11:27Z</time>
      </trkpt>
      <trkpt lat="44.64605" lon="6.06157">
        <ele>1410.87</ele>
        <time>2016-10-09T12:11:40Z</time>
      </trkpt>
      <trkpt lat="44.6461" lon="6.06153">
        <ele>1410.39</ele>
        <time>2016-10-09T12:11:44Z</time>
      </trkpt>
      <trkpt lat="44.64615" lon="6.0615">
        <ele>1408.95</ele>
        <time>2016-10-09T12:11:50Z</time>
      </trkpt>
      <trkpt lat="44.64634" lon="6.06139">
        <ele>1405.58</ele>
        <time>2016-10-09T12:12:07Z</time>
      </trkpt>
      <trkpt lat="44.64642" lon="6.06134">
        <ele>1404.14</ele>
        <time>2016-10-09T12:12:14Z</time>
      </trkpt>
      <trkpt lat="44.6465" lon="6.0613">
        <ele>1403.18</ele>
        <time>2016-10-09T12:12:21Z</time>
      </trkpt>
      <trkpt lat="44.64656" lon="6.06125">
        <ele>1402.7</ele>
        <time>2016-10-09T12:12:27Z</time>
      </trkpt>
      <trkpt lat="44.64666" lon="6.06111">
        <ele>1400.3</ele>
        <time>2016-10-09T12:12:40Z</time>
      </trkpt>
      <trkpt lat="44.6468" lon="6.06098">
        <ele>1398.37</ele>
        <time>2016-10-09T12:12:54Z</time>
      </trkpt>
      <trkpt lat="44.64701" lon="6.06087">
        <ele>1395.97</ele>
        <time>2016-10-09T12:13:11Z</time>
      </trkpt>
      <trkpt lat="44.64705" lon="6.06082">
        <ele>1395.01</ele>
        <time>2016-10-09T12:13:19Z</time>
      </trkpt>
      <trkpt lat="44.6471" lon="6.06068">
        <ele>1394.05</ele>
        <time>2016-10-09T12:13:30Z</time>
      </trkpt>
      <trkpt lat="44.64713" lon="6.06063">
        <ele>1392.61</ele>
        <time>2016-10-09T12:13:34Z</time>
      </trkpt>
      <trkpt lat="44.64717" lon="6.06055">
        <ele>1391.65</ele>
        <time>2016-10-09T12:13:39Z</time>
      </trkpt>
      <trkpt lat="44.64735" lon="6.06048">
        <ele>1390.2</ele>
        <time>2016-10-09T12:13:52Z</time>
      </trkpt>
      <trkpt lat="44.64738" lon="6.06046">
        <ele>1390.2</ele>
        <time>2016-10-09T12:13:54Z</time>
      </trkpt>
      <trkpt lat="44.64751" lon="6.06031">
        <ele>1388.28</ele>
        <time>2016-10-09T12:14:07Z</time>
      </trkpt>
      <trkpt lat="44.64761" lon="6.06015">
        <ele>1386.36</ele>
        <time>2016-10-09T12:14:21Z</time>
      </trkpt>
      <trkpt lat="44.64765" lon="6.06024">
        <ele>1385.4</ele>
        <time>2016-10-09T12:14:27Z</time>
      </trkpt>
      <trkpt lat="44.64759" lon="6.0604">
        <ele>1382.99</ele>
        <time>2016-10-09T12:14:41Z</time>
      </trkpt>
      <trkpt lat="44.64757" lon="6.06044">
        <ele>1382.03</ele>
        <time>2016-10-09T12:14:45Z</time>
      </trkpt>
      <trkpt lat="44.64755" lon="6.06067">
        <ele>1380.11</ele>
        <time>2016-10-09T12:14:57Z</time>
      </trkpt>
      <trkpt lat="44.64754" lon="6.06077">
        <ele>1379.15</ele>
        <time>2016-10-09T12:15:02Z</time>
      </trkpt>
      <trkpt lat="44.64746" lon="6.06096">
        <ele>1377.23</ele>
        <time>2016-10-09T12:15:11Z</time>
      </trkpt>
      <trkpt lat="44.64748" lon="6.06097">
        <ele>1377.23</ele>
        <time>2016-10-09T12:15:13Z</time>
      </trkpt>
      <trkpt lat="44.64762" lon="6.06089">
        <ele>1375.3</ele>
        <time>2016-10-09T12:15:25Z</time>
      </trkpt>
      <trkpt lat="44.64772" lon="6.06068">
        <ele>1371.94</ele>
        <time>2016-10-09T12:15:40Z</time>
      </trkpt>
      <trkpt lat="44.6479" lon="6.06068">
        <ele>1369.54</ele>
        <time>2016-10-09T12:15:55Z</time>
      </trkpt>
      <trkpt lat="44.648" lon="6.06066">
        <ele>1366.65</ele>
        <time>2016-10-09T12:16:04Z</time>
      </trkpt>
      <trkpt lat="44.64816" lon="6.06053">
        <ele>1364.25</ele>
        <time>2016-10-09T12:16:18Z</time>
      </trkpt>
      <trkpt lat="44.64829" lon="6.06043">
        <ele>1360.88</ele>
        <time>2016-10-09T12:16:32Z</time>
      </trkpt>
      <trkpt lat="44.64841" lon="6.06026">
        <ele>1358.48</ele>
        <time>2016-10-09T12:16:46Z</time>
      </trkpt>
      <trkpt lat="44.64841" lon="6.06024">
        <ele>1358</ele>
        <time>2016-10-09T12:16:49Z</time>
      </trkpt>
      <trkpt lat="44.64838" lon="6.06003">
        <ele>1356.08</ele>
        <time>2016-10-09T12:17:00Z</time>
      </trkpt>
      <trkpt lat="44.64838" lon="6.05996">
        <ele>1354.63</ele>
        <time>2016-10-09T12:17:07Z</time>
      </trkpt>
      <trkpt lat="44.64836" lon="6.05977">
        <ele>1352.71</ele>
        <time>2016-10-09T12:17:17Z</time>
      </trkpt>
      <trkpt lat="44.64839" lon="6.05957">
        <ele>1351.27</ele>
        <time>2016-10-09T12:17:27Z</time>
      </trkpt>
      <trkpt lat="44.64839" lon="6.05949">
        <ele>1350.31</ele>
        <time>2016-10-09T12:17:31Z</time>
      </trkpt>
      <trkpt lat="44.64839" lon="6.05942">
        <ele>1349.83</ele>
        <time>2016-10-09T12:17:35Z</time>
      </trkpt>
      <trkpt lat="44.64839" lon="6.05926">
        <ele>1349.83</ele>
        <time>2016-10-09T12:17:44Z</time>
      </trkpt>
      <trkpt lat="44.64843" lon="6.0591">
        <ele>1349.83</ele>
        <time>2016-10-09T12:17:55Z</time>
      </trkpt>
      <trkpt lat="44.64846" lon="6.05909">
        <ele>1350.31</ele>
        <time>2016-10-09T12:17:59Z</time>
      </trkpt>
      <trkpt lat="44.64855" lon="6.05912">
        <ele>1350.31</ele>
        <time>2016-10-09T12:18:06Z</time>
      </trkpt>
      <trkpt lat="44.64868" lon="6.05922">
        <ele>1345.98</ele>
        <time>2016-10-09T12:18:19Z</time>
      </trkpt>
      <trkpt lat="44.64868" lon="6.05923">
        <ele>1352.23</ele>
        <time>2016-10-09T12:18:20Z</time>
      </trkpt>
      <trkpt lat="44.6487" lon="6.05924">
        <ele>1349.35</ele>
        <time>2016-10-09T12:18:22Z</time>
      </trkpt>
      <trkpt lat="44.64886" lon="6.0593">
        <ele>1345.5</ele>
        <time>2016-10-09T12:18:36Z</time>
      </trkpt>
      <trkpt lat="44.64887" lon="6.05931">
        <ele>1348.87</ele>
        <time>2016-10-09T12:18:37Z</time>
      </trkpt>
      <trkpt lat="44.64904" lon="6.05933">
        <ele>1346.46</ele>
        <time>2016-10-09T12:18:51Z</time>
      </trkpt>
      <trkpt lat="44.64921" lon="6.05941">
        <ele>1346.94</ele>
        <time>2016-10-09T12:19:08Z</time>
      </trkpt>
      <trkpt lat="44.6494" lon="6.05946">
        <ele>1346.94</ele>
        <time>2016-10-09T12:19:23Z</time>
      </trkpt>
      <trkpt lat="44.64946" lon="6.05952">
        <ele>1347.43</ele>
        <time>2016-10-09T12:19:29Z</time>
      </trkpt>
      <trkpt lat="44.64963" lon="6.05965">
        <ele>1347.43</ele>
        <time>2016-10-09T12:19:45Z</time>
      </trkpt>
      <trkpt lat="44.64975" lon="6.05971">
        <ele>1347.91</ele>
        <time>2016-10-09T12:19:57Z</time>
      </trkpt>
      <trkpt lat="44.64976" lon="6.05971">
        <ele>1347.91</ele>
        <time>2016-10-09T12:19:58Z</time>
      </trkpt>
      <trkpt lat="44.64984" lon="6.05959">
        <ele>1347.91</ele>
        <time>2016-10-09T12:20:10Z</time>
      </trkpt>
      <trkpt lat="44.64982" lon="6.05958">
        <ele>1349.35</ele>
        <time>2016-10-09T12:20:22Z</time>
      </trkpt>
      <trkpt lat="44.64979" lon="6.05965">
        <ele>1350.79</ele>
        <time>2016-10-09T12:20:34Z</time>
      </trkpt>
      <trkpt lat="44.64982" lon="6.05966">
        <ele>1348.87</ele>
        <time>2016-10-09T12:20:48Z</time>
      </trkpt>
      <trkpt lat="44.64986" lon="6.05962">
        <ele>1347.43</ele>
        <time>2016-10-09T12:20:54Z</time>
      </trkpt>
      <trkpt lat="44.64993" lon="6.05949">
        <ele>1346.94</ele>
        <time>2016-10-09T12:21:05Z</time>
      </trkpt>
      <trkpt lat="44.64996" lon="6.05943">
        <ele>1346.94</ele>
        <time>2016-10-09T12:21:15Z</time>
      </trkpt>
      <trkpt lat="44.65008" lon="6.05943">
        <ele>1346.46</ele>
        <time>2016-10-09T12:21:27Z</time>
      </trkpt>
      <trkpt lat="44.65026" lon="6.05956">
        <ele>1345.5</ele>
        <time>2016-10-09T12:21:41Z</time>
      </trkpt>
      <trkpt lat="44.65042" lon="6.0597">
        <ele>1345.5</ele>
        <time>2016-10-09T12:21:55Z</time>
      </trkpt>
      <trkpt lat="44.65053" lon="6.05978">
        <ele>1345.98</ele>
        <time>2016-10-09T12:22:07Z</time>
      </trkpt>
      <trkpt lat="44.6506" lon="6.05983">
        <ele>1345.5</ele>
        <time>2016-10-09T12:22:17Z</time>
      </trkpt>
      <trkpt lat="44.65076" lon="6.05988">
        <ele>1344.54</ele>
        <time>2016-10-09T12:22:31Z</time>
      </trkpt>
      <trkpt lat="44.65094" lon="6.05995">
        <ele>1344.06</ele>
        <time>2016-10-09T12:22:44Z</time>
      </trkpt>
      <trkpt lat="44.65112" lon="6.05992">
        <ele>1343.1</ele>
        <time>2016-10-09T12:22:59Z</time>
      </trkpt>
      <trkpt lat="44.65127" lon="6.05993">
        <ele>1342.14</ele>
        <time>2016-10-09T12:23:11Z</time>
      </trkpt>
      <trkpt lat="44.65144" lon="6.05991">
        <ele>1341.66</ele>
        <time>2016-10-09T12:23:24Z</time>
      </trkpt>
      <trkpt lat="44.6516" lon="6.05984">
        <ele>1341.18</ele>
        <time>2016-10-09T12:23:38Z</time>
      </trkpt>
      <trkpt lat="44.65162" lon="6.05983">
        <ele>1340.7</ele>
        <time>2016-10-09T12:23:40Z</time>
      </trkpt>
      <trkpt lat="44.65178" lon="6.05977">
        <ele>1340.22</ele>
        <time>2016-10-09T12:23:52Z</time>
      </trkpt>
      <trkpt lat="44.65193" lon="6.05974">
        <ele>1340.22</ele>
        <time>2016-10-09T12:24:02Z</time>
      </trkpt>
      <trkpt lat="44.65195" lon="6.05976">
        <ele>1339.73</ele>
        <time>2016-10-09T12:24:05Z</time>
      </trkpt>
      <trkpt lat="44.65214" lon="6.05971">
        <ele>1338.29</ele>
        <time>2016-10-09T12:24:21Z</time>
      </trkpt>
      <trkpt lat="44.65233" lon="6.05976">
        <ele>1338.29</ele>
        <time>2016-10-09T12:24:36Z</time>
      </trkpt>
      <trkpt lat="44.65255" lon="6.05984">
        <ele>1337.81</ele>
        <time>2016-10-09T12:24:50Z</time>
      </trkpt>
      <trkpt lat="44.65271" lon="6.05984">
        <ele>1337.81</ele>
        <time>2016-10-09T12:25:03Z</time>
      </trkpt>
      <trkpt lat="44.65286" lon="6.05986">
        <ele>1337.33</ele>
        <time>2016-10-09T12:25:18Z</time>
      </trkpt>
      <trkpt lat="44.65307" lon="6.06">
        <ele>1337.33</ele>
        <time>2016-10-09T12:25:35Z</time>
      </trkpt>
      <trkpt lat="44.65309" lon="6.06002">
        <ele>1337.33</ele>
        <time>2016-10-09T12:25:37Z</time>
      </trkpt>
      <trkpt lat="44.65326" lon="6.06009">
        <ele>1337.33</ele>
        <time>2016-10-09T12:25:53Z</time>
      </trkpt>
      <trkpt lat="44.65327" lon="6.06008">
        <ele>1337.33</ele>
        <time>2016-10-09T12:25:56Z</time>
      </trkpt>
      <trkpt lat="44.65331" lon="6.05989">
        <ele>1337.81</ele>
        <time>2016-10-09T12:26:11Z</time>
      </trkpt>
      <trkpt lat="44.6534" lon="6.05972">
        <ele>1337.81</ele>
        <time>2016-10-09T12:26:23Z</time>
      </trkpt>
      <trkpt lat="44.65354" lon="6.05954">
        <ele>1337.33</ele>
        <time>2016-10-09T12:26:37Z</time>
      </trkpt>
      <trkpt lat="44.65374" lon="6.05933">
        <ele>1336.37</ele>
        <time>2016-10-09T12:26:55Z</time>
      </trkpt>
      <trkpt lat="44.65387" lon="6.05914">
        <ele>1335.89</ele>
        <time>2016-10-09T12:27:10Z</time>
      </trkpt>
      <trkpt lat="44.65392" lon="6.05906">
        <ele>1335.41</ele>
        <time>2016-10-09T12:27:17Z</time>
      </trkpt>
      <trkpt lat="44.65409" lon="6.0588">
        <ele>1334.93</ele>
        <time>2016-10-09T12:27:34Z</time>
      </trkpt>
      <trkpt lat="44.65423" lon="6.05861">
        <ele>1333.97</ele>
        <time>2016-10-09T12:27:49Z</time>
      </trkpt>
      <trkpt lat="44.65435" lon="6.05838">
        <ele>1333.49</ele>
        <time>2016-10-09T12:28:03Z</time>
      </trkpt>
      <trkpt lat="44.65444" lon="6.05817">
        <ele>1332.52</ele>
        <time>2016-10-09T12:28:16Z</time>
      </trkpt>
      <trkpt lat="44.65448" lon="6.058">
        <ele>1332.04</ele>
        <time>2016-10-09T12:28:27Z</time>
      </trkpt>
      <trkpt lat="44.65446" lon="6.05784">
        <ele>1331.56</ele>
        <time>2016-10-09T12:28:37Z</time>
      </trkpt>
      <trkpt lat="44.65452" lon="6.05754">
        <ele>1330.6</ele>
        <time>2016-10-09T12:28:51Z</time>
      </trkpt>
      <trkpt lat="44.65451" lon="6.05747">
        <ele>1330.12</ele>
        <time>2016-10-09T12:28:59Z</time>
      </trkpt>
      <trkpt lat="44.6544" lon="6.05732">
        <ele>1330.6</ele>
        <time>2016-10-09T12:29:11Z</time>
      </trkpt>
      <trkpt lat="44.65432" lon="6.05715">
        <ele>1329.64</ele>
        <time>2016-10-09T12:29:23Z</time>
      </trkpt>
      <trkpt lat="44.65422" lon="6.05696">
        <ele>1329.16</ele>
        <time>2016-10-09T12:29:36Z</time>
      </trkpt>
      <trkpt lat="44.65424" lon="6.05693">
        <ele>1329.16</ele>
        <time>2016-10-09T12:29:51Z</time>
      </trkpt>
      <trkpt lat="44.65424" lon="6.05693">
        <ele>1329.16</ele>
        <time>2016-10-09T12:29:52Z</time>
      </trkpt>
      <trkpt lat="44.65415" lon="6.0568">
        <ele>1329.16</ele>
        <time>2016-10-09T12:30:02Z</time>
      </trkpt>
      <trkpt lat="44.65405" lon="6.05656">
        <ele>1328.2</ele>
        <time>2016-10-09T12:30:16Z</time>
      </trkpt>
      <trkpt lat="44.65394" lon="6.0564">
        <ele>1328.2</ele>
        <time>2016-10-09T12:30:28Z</time>
      </trkpt>
      <trkpt lat="44.65386" lon="6.05629">
        <ele>1329.16</ele>
        <time>2016-10-09T12:30:38Z</time>
      </trkpt>
      <trkpt lat="44.65379" lon="6.0562">
        <ele>1328.2</ele>
        <time>2016-10-09T12:30:47Z</time>
      </trkpt>
      <trkpt lat="44.65375" lon="6.05604">
        <ele>1327.72</ele>
        <time>2016-10-09T12:30:56Z</time>
      </trkpt>
      <trkpt lat="44.65376" lon="6.05589">
        <ele>1326.76</ele>
        <time>2016-10-09T12:31:08Z</time>
      </trkpt>
      <trkpt lat="44.65377" lon="6.05586">
        <ele>1326.76</ele>
        <time>2016-10-09T12:31:30Z</time>
      </trkpt>
      <trkpt lat="44.65368" lon="6.05573">
        <ele>1326.28</ele>
        <time>2016-10-09T12:31:41Z</time>
      </trkpt>
      <trkpt lat="44.6537" lon="6.05569">
        <ele>1327.72</ele>
        <time>2016-10-09T12:31:52Z</time>
      </trkpt>
      <trkpt lat="44.65386" lon="6.05572">
        <ele>1327.72</ele>
        <time>2016-10-09T12:32:05Z</time>
      </trkpt>
      <trkpt lat="44.65392" lon="6.05571">
        <ele>1327.24</ele>
        <time>2016-10-09T12:32:09Z</time>
      </trkpt>
      <trkpt lat="44.65395" lon="6.05565">
        <ele>1326.76</ele>
        <time>2016-10-09T12:32:15Z</time>
      </trkpt>
      <trkpt lat="44.65395" lon="6.05558">
        <ele>1326.76</ele>
        <time>2016-10-09T12:32:27Z</time>
      </trkpt>
      <trkpt lat="44.65401" lon="6.05549">
        <ele>1326.28</ele>
        <time>2016-10-09T12:32:31Z</time>
      </trkpt>
      <trkpt lat="44.65404" lon="6.05533">
        <ele>1325.31</ele>
        <time>2016-10-09T12:32:43Z</time>
      </trkpt>
      <trkpt lat="44.65408" lon="6.05531">
        <ele>1324.35</ele>
        <time>2016-10-09T12:32:52Z</time>
      </trkpt>
      <trkpt lat="44.65418" lon="6.0554">
        <ele>1325.8</ele>
        <time>2016-10-09T12:33:04Z</time>
      </trkpt>
      <trkpt lat="44.65428" lon="6.05548">
        <ele>1326.28</ele>
        <time>2016-10-09T12:33:15Z</time>
      </trkpt>
      <trkpt lat="44.65433" lon="6.05559">
        <ele>1325.8</ele>
        <time>2016-10-09T12:33:28Z</time>
      </trkpt>
      <trkpt lat="44.65449" lon="6.05564">
        <ele>1324.83</ele>
        <time>2016-10-09T12:33:40Z</time>
      </trkpt>
      <trkpt lat="44.65464" lon="6.05563">
        <ele>1324.83</ele>
        <time>2016-10-09T12:33:55Z</time>
      </trkpt>
      <trkpt lat="44.65467" lon="6.05559">
        <ele>1325.31</ele>
        <time>2016-10-09T12:33:59Z</time>
      </trkpt>
      <trkpt lat="44.65471" lon="6.05557">
        <ele>1325.31</ele>
        <time>2016-10-09T12:34:03Z</time>
      </trkpt>
      <trkpt lat="44.65489" lon="6.05554">
        <ele>1324.35</ele>
        <time>2016-10-09T12:34:19Z</time>
      </trkpt>
      <trkpt lat="44.65505" lon="6.05546">
        <ele>1323.39</ele>
        <time>2016-10-09T12:34:31Z</time>
      </trkpt>
      <trkpt lat="44.65518" lon="6.05535">
        <ele>1322.91</ele>
        <time>2016-10-09T12:34:44Z</time>
      </trkpt>
      <trkpt lat="44.65537" lon="6.05525">
        <ele>1321.95</ele>
        <time>2016-10-09T12:34:59Z</time>
      </trkpt>
      <trkpt lat="44.65547" lon="6.05516">
        <ele>1320.99</ele>
        <time>2016-10-09T12:35:12Z</time>
      </trkpt>
      <trkpt lat="44.65555" lon="6.05509">
        <ele>1320.99</ele>
        <time>2016-10-09T12:35:23Z</time>
      </trkpt>
      <trkpt lat="44.65574" lon="6.05504">
        <ele>1320.51</ele>
        <time>2016-10-09T12:35:35Z</time>
      </trkpt>
      <trkpt lat="44.65577" lon="6.05505">
        <ele>1320.51</ele>
        <time>2016-10-09T12:35:37Z</time>
      </trkpt>
      <trkpt lat="44.65593" lon="6.05497">
        <ele>1320.51</ele>
        <time>2016-10-09T12:35:53Z</time>
      </trkpt>
      <trkpt lat="44.65606" lon="6.05483">
        <ele>1319.55</ele>
        <time>2016-10-09T12:36:08Z</time>
      </trkpt>
      <trkpt lat="44.65616" lon="6.05463">
        <ele>1318.59</ele>
        <time>2016-10-09T12:36:19Z</time>
      </trkpt>
      <trkpt lat="44.65623" lon="6.05435">
        <ele>1317.14</ele>
        <time>2016-10-09T12:36:35Z</time>
      </trkpt>
      <trkpt lat="44.65626" lon="6.05418">
        <ele>1317.14</ele>
        <time>2016-10-09T12:36:45Z</time>
      </trkpt>
      <trkpt lat="44.65626" lon="6.05402">
        <ele>1317.14</ele>
        <time>2016-10-09T12:36:56Z</time>
      </trkpt>
      <trkpt lat="44.65635" lon="6.05386">
        <ele>1316.18</ele>
        <time>2016-10-09T12:37:08Z</time>
      </trkpt>
      <trkpt lat="44.65635" lon="6.05361">
        <ele>1316.18</ele>
        <time>2016-10-09T12:37:22Z</time>
      </trkpt>
      <trkpt lat="44.65633" lon="6.05353">
        <ele>1316.66</ele>
        <time>2016-10-09T12:37:26Z</time>
      </trkpt>
      <trkpt lat="44.65641" lon="6.05339">
        <ele>1315.22</ele>
        <time>2016-10-09T12:37:35Z</time>
      </trkpt>
      <trkpt lat="44.65647" lon="6.05336">
        <ele>1314.74</ele>
        <time>2016-10-09T12:37:51Z</time>
      </trkpt>
      <trkpt lat="44.65648" lon="6.05335">
        <ele>1314.74</ele>
        <time>2016-10-09T12:38:04Z</time>
      </trkpt>
      <trkpt lat="44.65648" lon="6.05312">
        <ele>1312.82</ele>
        <time>2016-10-09T12:38:16Z</time>
      </trkpt>
      <trkpt lat="44.65648" lon="6.0531">
        <ele>1312.34</ele>
        <time>2016-10-09T12:38:17Z</time>
      </trkpt>
      <trkpt lat="44.6565" lon="6.05301">
        <ele>1310.9</ele>
        <time>2016-10-09T12:38:22Z</time>
      </trkpt>
      <trkpt lat="44.65654" lon="6.05305">
        <ele>1308.97</ele>
        <time>2016-10-09T12:38:28Z</time>
      </trkpt>
      <trkpt lat="44.65658" lon="6.05311">
        <ele>1307.53</ele>
        <time>2016-10-09T12:38:31Z</time>
      </trkpt>
      <trkpt lat="44.6566" lon="6.05315">
        <ele>1303.69</ele>
        <time>2016-10-09T12:38:40Z</time>
      </trkpt>
      <trkpt lat="44.65664" lon="6.05297">
        <ele>1301.28</ele>
        <time>2016-10-09T12:38:53Z</time>
      </trkpt>
      <trkpt lat="44.65668" lon="6.05285">
        <ele>1298.88</ele>
        <time>2016-10-09T12:39:03Z</time>
      </trkpt>
      <trkpt lat="44.65669" lon="6.05282">
        <ele>1298.4</ele>
        <time>2016-10-09T12:39:04Z</time>
      </trkpt>
      <trkpt lat="44.65683" lon="6.05266">
        <ele>1295.03</ele>
        <time>2016-10-09T12:39:14Z</time>
      </trkpt>
      <trkpt lat="44.65687" lon="6.05256">
        <ele>1292.15</ele>
        <time>2016-10-09T12:39:24Z</time>
      </trkpt>
      <trkpt lat="44.65688" lon="6.05253">
        <ele>1291.19</ele>
        <time>2016-10-09T12:39:26Z</time>
      </trkpt>
      <trkpt lat="44.65694" lon="6.0525">
        <ele>1288.3</ele>
        <time>2016-10-09T12:39:33Z</time>
      </trkpt>
      <trkpt lat="44.65695" lon="6.05253">
        <ele>1289.27</ele>
        <time>2016-10-09T12:39:40Z</time>
      </trkpt>
      <trkpt lat="44.65699" lon="6.05256">
        <ele>1289.27</ele>
        <time>2016-10-09T12:39:54Z</time>
      </trkpt>
      <trkpt lat="44.657" lon="6.05259">
        <ele>1289.75</ele>
        <time>2016-10-09T12:39:56Z</time>
      </trkpt>
      <trkpt lat="44.65705" lon="6.0528">
        <ele>1291.19</ele>
        <time>2016-10-09T12:40:09Z</time>
      </trkpt>
      <trkpt lat="44.65707" lon="6.05287">
        <ele>1292.63</ele>
        <time>2016-10-09T12:40:15Z</time>
      </trkpt>
      <trkpt lat="44.65719" lon="6.05304">
        <ele>1295.03</ele>
        <time>2016-10-09T12:40:34Z</time>
      </trkpt>
      <trkpt lat="44.65733" lon="6.05319">
        <ele>1297.44</ele>
        <time>2016-10-09T12:40:50Z</time>
      </trkpt>
      <trkpt lat="44.65735" lon="6.05322">
        <ele>1298.4</ele>
        <time>2016-10-09T12:40:54Z</time>
      </trkpt>
      <trkpt lat="44.65739" lon="6.05326">
        <ele>1298.88</ele>
        <time>2016-10-09T12:40:58Z</time>
      </trkpt>
      <trkpt lat="44.65752" lon="6.05345">
        <ele>1301.28</ele>
        <time>2016-10-09T12:41:12Z</time>
      </trkpt>
      <trkpt lat="44.65758" lon="6.0536">
        <ele>1303.69</ele>
        <time>2016-10-09T12:41:25Z</time>
      </trkpt>
      <trkpt lat="44.6577" lon="6.0536">
        <ele>1307.05</ele>
        <time>2016-10-09T12:41:42Z</time>
      </trkpt>
      <trkpt lat="44.6577" lon="6.05359">
        <ele>1307.05</ele>
        <time>2016-10-09T12:41:43Z</time>
      </trkpt>
      <trkpt lat="44.65776" lon="6.05351">
        <ele>1309.93</ele>
        <time>2016-10-09T12:41:56Z</time>
      </trkpt>
      <trkpt lat="44.65785" lon="6.05347">
        <ele>1311.38</ele>
        <time>2016-10-09T12:42:07Z</time>
      </trkpt>
      <trkpt lat="44.65796" lon="6.05346">
        <ele>1317.14</ele>
        <time>2016-10-09T12:42:18Z</time>
      </trkpt>
      <trkpt lat="44.65797" lon="6.05345">
        <ele>1311.38</ele>
        <time>2016-10-09T12:42:19Z</time>
      </trkpt>
      <trkpt lat="44.65798" lon="6.05345">
        <ele>1315.7</ele>
        <time>2016-10-09T12:42:20Z</time>
      </trkpt>
      <trkpt lat="44.65812" lon="6.0534">
        <ele>1316.18</ele>
        <time>2016-10-09T12:42:35Z</time>
      </trkpt>
      <trkpt lat="44.65825" lon="6.05334">
        <ele>1316.66</ele>
        <time>2016-10-09T12:42:50Z</time>
      </trkpt>
      <trkpt lat="44.65846" lon="6.05337">
        <ele>1316.18</ele>
        <time>2016-10-09T12:43:04Z</time>
      </trkpt>
      <trkpt lat="44.65861" lon="6.05338">
        <ele>1316.18</ele>
        <time>2016-10-09T12:43:16Z</time>
      </trkpt>
      <trkpt lat="44.6588" lon="6.05345">
        <ele>1317.62</ele>
        <time>2016-10-09T12:43:31Z</time>
      </trkpt>
      <trkpt lat="44.65892" lon="6.05348">
        <ele>1317.14</ele>
        <time>2016-10-09T12:43:42Z</time>
      </trkpt>
      <trkpt lat="44.65913" lon="6.05366">
        <ele>1316.66</ele>
        <time>2016-10-09T12:43:56Z</time>
      </trkpt>
      <trkpt lat="44.65925" lon="6.0537">
        <ele>1315.7</ele>
        <time>2016-10-09T12:44:05Z</time>
      </trkpt>
      <trkpt lat="44.65932" lon="6.05372">
        <ele>1315.7</ele>
        <time>2016-10-09T12:44:09Z</time>
      </trkpt>
      <trkpt lat="44.65946" lon="6.05374">
        <ele>1315.22</ele>
        <time>2016-10-09T12:44:19Z</time>
      </trkpt>
      <trkpt lat="44.65956" lon="6.0538">
        <ele>1314.26</ele>
        <time>2016-10-09T12:44:28Z</time>
      </trkpt>
      <trkpt lat="44.65974" lon="6.05394">
        <ele>1313.78</ele>
        <time>2016-10-09T12:44:43Z</time>
      </trkpt>
      <trkpt lat="44.65988" lon="6.05394">
        <ele>1314.26</ele>
        <time>2016-10-09T12:44:51Z</time>
      </trkpt>
      <trkpt lat="44.65993" lon="6.05395">
        <ele>1313.3</ele>
        <time>2016-10-09T12:44:57Z</time>
      </trkpt>
      <trkpt lat="44.65997" lon="6.05397">
        <ele>1312.82</ele>
        <time>2016-10-09T12:45:00Z</time>
      </trkpt>
      <trkpt lat="44.66004" lon="6.05398">
        <ele>1312.82</ele>
        <time>2016-10-09T12:45:04Z</time>
      </trkpt>
      <trkpt lat="44.66008" lon="6.054">
        <ele>1312.82</ele>
        <time>2016-10-09T12:45:06Z</time>
      </trkpt>
      <trkpt lat="44.66014" lon="6.054">
        <ele>1312.34</ele>
        <time>2016-10-09T12:45:11Z</time>
      </trkpt>
      <trkpt lat="44.66026" lon="6.05407">
        <ele>1311.86</ele>
        <time>2016-10-09T12:45:19Z</time>
      </trkpt>
      <trkpt lat="44.66034" lon="6.05408">
        <ele>1310.41</ele>
        <time>2016-10-09T12:45:25Z</time>
      </trkpt>
      <trkpt lat="44.66045" lon="6.05407">
        <ele>1309.93</ele>
        <time>2016-10-09T12:45:34Z</time>
      </trkpt>
      <trkpt lat="44.66061" lon="6.05411">
        <ele>1308.49</ele>
        <time>2016-10-09T12:45:45Z</time>
      </trkpt>
      <trkpt lat="44.66079" lon="6.05408">
        <ele>1306.09</ele>
        <time>2016-10-09T12:45:58Z</time>
      </trkpt>
      <trkpt lat="44.6608" lon="6.05408">
        <ele>1305.61</ele>
        <time>2016-10-09T12:45:59Z</time>
      </trkpt>
      <trkpt lat="44.66095" lon="6.05405">
        <ele>1303.2</ele>
        <time>2016-10-09T12:46:12Z</time>
      </trkpt>
      <trkpt lat="44.66098" lon="6.05405">
        <ele>1303.2</ele>
        <time>2016-10-09T12:46:14Z</time>
      </trkpt>
      <trkpt lat="44.66122" lon="6.05408">
        <ele>1301.28</ele>
        <time>2016-10-09T12:46:29Z</time>
      </trkpt>
      <trkpt lat="44.6613" lon="6.0541">
        <ele>1300.8</ele>
        <time>2016-10-09T12:46:34Z</time>
      </trkpt>
      <trkpt lat="44.66137" lon="6.05411">
        <ele>1299.84</ele>
        <time>2016-10-09T12:46:40Z</time>
      </trkpt>
      <trkpt lat="44.6616" lon="6.05406">
        <ele>1298.88</ele>
        <time>2016-10-09T12:46:55Z</time>
      </trkpt>
      <trkpt lat="44.66171" lon="6.05412">
        <ele>1297.92</ele>
        <time>2016-10-09T12:47:06Z</time>
      </trkpt>
      <trkpt lat="44.66178" lon="6.05409">
        <ele>1297.92</ele>
        <time>2016-10-09T12:47:11Z</time>
      </trkpt>
      <trkpt lat="44.66199" lon="6.05408">
        <ele>1297.92</ele>
        <time>2016-10-09T12:47:28Z</time>
      </trkpt>
      <trkpt lat="44.66225" lon="6.05436">
        <ele>1296.96</ele>
        <time>2016-10-09T12:47:44Z</time>
      </trkpt>
      <trkpt lat="44.66246" lon="6.05446">
        <ele>1295.99</ele>
        <time>2016-10-09T12:48:01Z</time>
      </trkpt>
      <trkpt lat="44.66267" lon="6.05454">
        <ele>1294.55</ele>
        <time>2016-10-09T12:48:16Z</time>
      </trkpt>
      <trkpt lat="44.66288" lon="6.05467">
        <ele>1292.15</ele>
        <time>2016-10-09T12:48:34Z</time>
      </trkpt>
      <trkpt lat="44.66296" lon="6.0547">
        <ele>1291.19</ele>
        <time>2016-10-09T12:48:40Z</time>
      </trkpt>
      <trkpt lat="44.6631" lon="6.05468">
        <ele>1290.23</ele>
        <time>2016-10-09T12:48:48Z</time>
      </trkpt>
      <trkpt lat="44.66317" lon="6.0547">
        <ele>1289.27</ele>
        <time>2016-10-09T12:48:52Z</time>
      </trkpt>
      <trkpt lat="44.66327" lon="6.05475">
        <ele>1288.78</ele>
        <time>2016-10-09T12:49:02Z</time>
      </trkpt>
      <trkpt lat="44.66348" lon="6.05472">
        <ele>1286.86</ele>
        <time>2016-10-09T12:49:16Z</time>
      </trkpt>
      <trkpt lat="44.66364" lon="6.05477">
        <ele>1284.94</ele>
        <time>2016-10-09T12:49:29Z</time>
      </trkpt>
      <trkpt lat="44.66367" lon="6.05478">
        <ele>1284.46</ele>
        <time>2016-10-09T12:49:31Z</time>
      </trkpt>
      <trkpt lat="44.6639" lon="6.05473">
        <ele>1282.06</ele>
        <time>2016-10-09T12:49:46Z</time>
      </trkpt>
      <trkpt lat="44.66412" lon="6.05466">
        <ele>1280.13</ele>
        <time>2016-10-09T12:50:00Z</time>
      </trkpt>
      <trkpt lat="44.66426" lon="6.0546">
        <ele>1278.69</ele>
        <time>2016-10-09T12:50:13Z</time>
      </trkpt>
      <trkpt lat="44.66446" lon="6.05437">
        <ele>1276.29</ele>
        <time>2016-10-09T12:50:29Z</time>
      </trkpt>
      <trkpt lat="44.6645" lon="6.0543">
        <ele>1276.29</ele>
        <time>2016-10-09T12:50:35Z</time>
      </trkpt>
      <trkpt lat="44.66456" lon="6.05414">
        <ele>1273.88</ele>
        <time>2016-10-09T12:50:46Z</time>
      </trkpt>
      <trkpt lat="44.66476" lon="6.05409">
        <ele>1273.88</ele>
        <time>2016-10-09T12:50:59Z</time>
      </trkpt>
      <trkpt lat="44.66477" lon="6.05409">
        <ele>1273.4</ele>
        <time>2016-10-09T12:51:02Z</time>
      </trkpt>
      <trkpt lat="44.66496" lon="6.05403">
        <ele>1272.92</ele>
        <time>2016-10-09T12:51:14Z</time>
      </trkpt>
      <trkpt lat="44.66511" lon="6.05394">
        <ele>1271.48</ele>
        <time>2016-10-09T12:51:24Z</time>
      </trkpt>
      <trkpt lat="44.6653" lon="6.05389">
        <ele>1270.52</ele>
        <time>2016-10-09T12:51:38Z</time>
      </trkpt>
      <trkpt lat="44.66548" lon="6.05377">
        <ele>1269.56</ele>
        <time>2016-10-09T12:51:52Z</time>
      </trkpt>
      <trkpt lat="44.66568" lon="6.05365">
        <ele>1267.64</ele>
        <time>2016-10-09T12:52:08Z</time>
      </trkpt>
      <trkpt lat="44.66586" lon="6.05351">
        <ele>1265.23</ele>
        <time>2016-10-09T12:52:23Z</time>
      </trkpt>
      <trkpt lat="44.66587" lon="6.05351">
        <ele>1264.75</ele>
        <time>2016-10-09T12:52:24Z</time>
      </trkpt>
      <trkpt lat="44.66588" lon="6.05368">
        <ele>1262.83</ele>
        <time>2016-10-09T12:52:36Z</time>
      </trkpt>
      <trkpt lat="44.66587" lon="6.05381">
        <ele>1261.39</ele>
        <time>2016-10-09T12:52:43Z</time>
      </trkpt>
      <trkpt lat="44.6658" lon="6.05401">
        <ele>1257.54</ele>
        <time>2016-10-09T12:52:55Z</time>
      </trkpt>
      <trkpt lat="44.66578" lon="6.05406">
        <ele>1256.1</ele>
        <time>2016-10-09T12:52:59Z</time>
      </trkpt>
      <trkpt lat="44.66567" lon="6.05425">
        <ele>1253.22</ele>
        <time>2016-10-09T12:53:08Z</time>
      </trkpt>
      <trkpt lat="44.66558" lon="6.05443">
        <ele>1249.85</ele>
        <time>2016-10-09T12:53:18Z</time>
      </trkpt>
      <trkpt lat="44.66558" lon="6.05445">
        <ele>1249.85</ele>
        <time>2016-10-09T12:53:19Z</time>
      </trkpt>
      <trkpt lat="44.66562" lon="6.05464">
        <ele>1246.49</ele>
        <time>2016-10-09T12:53:31Z</time>
      </trkpt>
      <trkpt lat="44.66566" lon="6.05465">
        <ele>1243.12</ele>
        <time>2016-10-09T12:53:40Z</time>
      </trkpt>
      <trkpt lat="44.6657" lon="6.05465">
        <ele>1242.16</ele>
        <time>2016-10-09T12:53:43Z</time>
      </trkpt>
      <trkpt lat="44.66584" lon="6.05461">
        <ele>1239.28</ele>
        <time>2016-10-09T12:53:56Z</time>
      </trkpt>
      <trkpt lat="44.66593" lon="6.05454">
        <ele>1235.91</ele>
        <time>2016-10-09T12:54:07Z</time>
      </trkpt>
      <trkpt lat="44.66608" lon="6.05448">
        <ele>1234.47</ele>
        <time>2016-10-09T12:54:18Z</time>
      </trkpt>
      <trkpt lat="44.66632" lon="6.0544">
        <ele>1231.11</ele>
        <time>2016-10-09T12:54:34Z</time>
      </trkpt>
      <trkpt lat="44.66653" lon="6.05441">
        <ele>1229.18</ele>
        <time>2016-10-09T12:54:47Z</time>
      </trkpt>
      <trkpt lat="44.66668" lon="6.05439">
        <ele>1227.26</ele>
        <time>2016-10-09T12:54:59Z</time>
      </trkpt>
      <trkpt lat="44.6667" lon="6.05448">
        <ele>1226.78</ele>
        <time>2016-10-09T12:55:13Z</time>
      </trkpt>
      <trkpt lat="44.66669" lon="6.0545">
        <ele>1227.26</ele>
        <time>2016-10-09T12:55:17Z</time>
      </trkpt>
      <trkpt lat="44.66667" lon="6.05453">
        <ele>1228.22</ele>
        <time>2016-10-09T12:55:33Z</time>
      </trkpt>
      <trkpt lat="44.66665" lon="6.05455">
        <ele>1227.74</ele>
        <time>2016-10-09T12:56:00Z</time>
      </trkpt>
      <trkpt lat="44.66665" lon="6.05455">
        <ele>1227.74</ele>
        <time>2016-10-09T12:56:12Z</time>
      </trkpt>
      <trkpt lat="44.66667" lon="6.05455">
        <ele>1227.74</ele>
        <time>2016-10-09T12:56:14Z</time>
      </trkpt>
      <trkpt lat="44.66678" lon="6.05469">
        <ele>1225.34</ele>
        <time>2016-10-09T12:56:26Z</time>
      </trkpt>
      <trkpt lat="44.66685" lon="6.05483">
        <ele>1222.93</ele>
        <time>2016-10-09T12:56:35Z</time>
      </trkpt>
      <trkpt lat="44.66694" lon="6.05503">
        <ele>1220.05</ele>
        <time>2016-10-09T12:56:48Z</time>
      </trkpt>
      <trkpt lat="44.66694" lon="6.05507">
        <ele>1219.57</ele>
        <time>2016-10-09T12:56:50Z</time>
      </trkpt>
      <trkpt lat="44.66697" lon="6.05515">
        <ele>1219.09</ele>
        <time>2016-10-09T12:56:53Z</time>
      </trkpt>
      <trkpt lat="44.667" lon="6.05522">
        <ele>1218.13</ele>
        <time>2016-10-09T12:56:56Z</time>
      </trkpt>
      <trkpt lat="44.66701" lon="6.05534">
        <ele>1216.69</ele>
        <time>2016-10-09T12:57:01Z</time>
      </trkpt>
      <trkpt lat="44.66701" lon="6.0555">
        <ele>1215.72</ele>
        <time>2016-10-09T12:57:13Z</time>
      </trkpt>
      <trkpt lat="44.66705" lon="6.05565">
        <ele>1212.36</ele>
        <time>2016-10-09T12:57:25Z</time>
      </trkpt>
      <trkpt lat="44.66708" lon="6.05585">
        <ele>1211.4</ele>
        <time>2016-10-09T12:57:35Z</time>
      </trkpt>
      <trkpt lat="44.66702" lon="6.05585">
        <ele>1211.4</ele>
        <time>2016-10-09T12:57:43Z</time>
      </trkpt>
      <trkpt lat="44.66701" lon="6.05582">
        <ele>1214.76</ele>
        <time>2016-10-09T12:57:54Z</time>
      </trkpt>
      <trkpt lat="44.66701" lon="6.05582">
        <ele>1210.44</ele>
        <time>2016-10-09T12:57:56Z</time>
      </trkpt>
      <trkpt lat="44.66701" lon="6.05582">
        <ele>1213.8</ele>
        <time>2016-10-09T12:57:57Z</time>
      </trkpt>
    </trkseg>
  </trk>
</gpx>